GFSSGP_con_mlcape_000.txt.gz
CAPE
407 950 1270 1063 669 25 11 7 43 3 76 85 83 43 7 250 268 102 132 466 514 409 564 1042 1405 1158 982 896 966 1207 1530 1593 1606 1350 1181 1120 1324 1355 1375 1442 1495 1657 1819 1986 1990 1928 2077 2132 2169
507 1394 1034 1199 46 0 1 1 0 0 0 107 204 329 472 389 370 432 405 459 457 435 550 749 1400 1319 1332 1000 1080 1367 1757 1681 1309 1190 1113 1390 1619 1825 1782 1804 2084 2062 1979 1895 2055 2004 1851 1760 1656
261 1191 1132 392 1 1 14 0 0 3 0 12 109 246 350 503 552 622 484 578 735 1053 1132 1136 1055 1058 1490 1557 1470 1554 1730 1842 1591 1379 1184 1392 1520 1481 1567 1691 1830 2058 2104 2092 2007 1926 1811 1704 1611
1311 761 1079 0 0 0 0 0 0 8 0 45 180 193 410 718 753 693 598 975 1160 1253 1179 1283 1182 1197 1688 1752 1754 1640 1804 1924 1679 1324 1477 1307 1496 1888 1902 1963 2033 2075 2102 2122 2110 1969 1813 1659 1545
1247 751 159 2 17 26 15 0 0 0 0 6 234 274 532 1184 893 1089 989 963 1122 1280 1247 1717 2281 2233 2211 2154 2070 2032 1723 1644 1541 1380 1218 1653 1747 1845 2030 2099 2056 2014 1966 1956 1900 1875 1731 1615 1504
216 544 91 32 23 45 1 0 6 0 7 57 238 387 603 865 739 1243 1222 1213 1295 1148 1290 1422 2257 2313 2141 2253 2198 2132 1949 1886 1729 1688 1802 1951 1878 1822 1945 2008 2114 2037 1843 1808 1846 1848 1562 1407 1481
21 30 79 53 90 0 0 0 0 0 13 122 181 424 514 661 550 1039 1204 1371 1234 1507 1450 1499 1753 1874 1996 2400 2295 2261 2147 1917 1672 1874 2015 2109 2109 1952 1956 2028 2021 1927 1948 1913 2019 2154 1879 1865 1726
148 330 31 78 209 23 2 0 0 0 11 83 225 214 438 501 720 562 901 1108 1372 1472 1725 1824 1604 1643 1827 2217 2436 2563 2332 2095 1833 1951 1969 2016 2073 1992 1796 1238 1441 2086 1958 1815 2137 2226 2127 1658 1305
365 81 10 4 101 146 208 112 44 15 110 203 372 267 510 405 602 755 1132 1433 1411 1291 1471 1540 1806 1779 1702 1897 1907 2155 2394 2181 2018 1926 1841 1462 1409 1374 699 81 140 1644 1862 1451 1710 1835 1986 1706 1395
1 0 12 3 51 133 86 240 318 316 344 296 79 445 516 481 448 946 598 905 957 1044 1352 1439 1436 1812 1875 1801 1594 1902 1799 1793 1714 1456 1538 1688 1546 1274 944 407 398 1441 1568 1563 1789 1525 1841 1295 1169
0 0 0 44 95 216 38 393 457 82 403 384 288 501 508 529 571 502 981 709 1091 1036 1142 1369 1820 1868 1919 1432 1772 2060 1799 1644 1616 1570 1620 1789 1277 904 1392 1133 1394 1414 1397 1741 1572 1733 1754 1529 1179
13 41 0 0 56 40 24 169 129 8 191 695 359 476 502 531 522 479 581 610 966 765 1113 1520 1373 1866 1714 1526 1443 1848 1864 1719 1249 1758 1857 1756 1378 1482 1816 1640 1645 1497 1279 1177 1347 1505 1687 1424 1238
30 0 0 3 5 0 13 146 574 255 561 385 259 440 482 476 463 428 448 523 894 818 949 1182 1816 1598 1783 1875 1467 1328 1090 1032 1376 1779 1607 1808 1834 1520 1664 1679 1859 1427 1450 1513 1646 1594 1626 1265 1171
3 18 3 16 0 0 3 112 277 606 494 352 333 416 455 517 540 516 477 538 683 788 823 1065 1732 1800 1673 1865 1994 1991 1281 1529 1223 1381 1300 1202 1692 1465 1365 1279 1436 1793 1413 1800 1855 1600 1286 1352 1312
0 0 7 0 2 0 0 151 435 599 664 631 669 599 566 552 492 510 461 518 576 662 870 1080 1044 2113 2203 2189 2300 2304 2041 1514 1055 1274 1157 1430 1625 1834 1295 1018 1073 1195 1627 1504 1602 1599 1307 1289 1036
0 12 4 11 0 0 12 264 679 620 807 924 879 835 839 924 843 683 493 456 474 646 973 1123 1198 1873 2336 2320 2298 2326 2098 1987 1813 1545 1311 1317 1583 1463 1547 1279 1195 1180 1059 1046 1013 1149 1178 1127 1166
1 13 4 13 0 0 0 201 595 545 549 604 890 857 1007 964 1277 1093 965 1037 1050 1316 1245 1425 1460 1873 2193 2235 2547 2392 2279 1965 1937 1843 1583 1595 1573 1486 1499 1488 1646 1282 958 1150 1053 945 1161 850 629
0 1 15 17 5 1 21 104 269 218 329 453 577 548 720 757 635 1115 1366 1076 1266 1411 1631 1857 1587 1993 1961 2235 1958 2192 1785 1704 2025 1955 1897 1747 1630 1737 1924 1666 1418 1347 1200 1251 967 838 890 1041 1172
18 6 0 13 31 48 8 3 78 25 107 352 501 451 425 342 833 904 1151 1554 1340 1396 1606 1979 2257 2346 2349 2313 1965 1752 1918 2137 2156 2202 1791 1762 1961 1755 1898 1597 1491 1360 1187 1142 853 990 784 798 1071
0 1 1 7 23 56 47 46 49 30 32 184 417 470 346 436 392 415 550 570 757 1723 2119 2022 2525 2649 2656 2369 2527 2371 2047 1974 1786 1689 1788 1624 1401 1468 1066 1100 902 536 713 740 576 438 489 716 789
0 0 0 6 23 4 66 79 26 61 72 80 133 316 333 289 341 548 699 769 971 1231 1711 1891 2372 2090 2444 2731 2553 1735 1772 942 802 1017 1157 978 373 189 424 668 715 649 562 469 538 393 394 602 726
0 0 0 0 6 5 0 0 22 9 11 89 62 104 195 196 267 499 660 909 997 1381 1747 1981 2341 2646 2715 1709 657 442 28 0 412 198 257 23 14 192 265 340 518 687 444 385 423 512 493 565 364
0 0 0 0 0 0 0 0 55 42 2 24 53 68 88 144 176 215 388 599 777 1351 1644 2377 2874 2177 1409 653 77 58 6 0 0 0 0 11 8 123 339 355 457 327 464 506 405 497 455 547 463
0 0 0 0 0 0 0 15 81 79 189 4 16 77 78 120 178 143 202 388 611 1112 1379 2397 2409 1315 735 397 193 52 0 2 0 72 41 89 19 3 529 388 265 246 240 281 209 294 239 234 344
0 0 0 0 0 0 0 3 14 39 29 121 18 9 70 161 270 279 182 359 595 1055 1421 2259 1783 1294 774 258 97 0 0 0 71 199 162 3 0 7 203 213 194 114 153 173 140 124 85 111 66
0 0 0 0 0 1 1 1 11 9 79 161 155 339 84 67 370 456 511 443 925 1196 1628 1580 1572 1220 863 325 106 67 74 95 176 394 209 2 0 35 6 72 102 96 201 149 128 56 109 173 34
0 0 0 0 0 0 0 0 0 0 0 0 16 0 200 85 108 447 737 965 1216 1293 1552 1474 1464 1403 919 340 576 576 395 220 126 188 152 61 211 96 129 82 60 159 166 30 55 131 11 94 38
0 0 0 0 0 0 1 0 0 13 0 0 0 0 17 246 269 273 567 1184 1643 1534 1595 1323 1295 1526 671 551 708 605 204 174 295 246 149 175 155 182 214 214 230 200 212 188 47 41 47 181 55
0 0 0 0 0 0 0 4 3 3 0 0 0 0 0 16 383 630 716 1389 1960 1514 1499 945 1038 1289 670 381 500 151 0 0 132 135 105 100 222 249 283 278 243 257 206 254 116 84 240 97 188
0 0 1 0 2 0 0 0 0 0 0 0 0 0 0 41 140 984 940 1580 2095 1594 1342 781 590 783 638 486 467 276 115 26 20 60 93 84 95 92 83 154 236 359 385 315 119 172 276 250 278

GFSSGP_con_mlcape_003.txt.gz
CAPE
299 436 537 1297 769 163 0 18 63 48 50 7 39 34 115 117 118 0 2 288 457 403 880 755 1139 1277 1150 1071 1036 1120 1321 1461 1317 1233 1195 1370 1143 1214 1503 1684 1767 1796 1910 1916 1932 1940 1993 2021 1716
290 457 954 942 239 0 2 0 18 123 72 0 69 398 285 160 113 271 315 356 400 774 864 921 1051 1004 912 1043 1190 1567 1500 1466 1418 1407 1380 1512 1634 1784 1915 1944 1778 1674 1716 1904 1899 1844 1830 1875 1751
234 569 1082 1145 0 0 0 0 0 64 49 95 323 285 309 227 378 372 387 465 635 621 844 1071 1190 1133 1125 1226 1657 1829 1478 1235 925 1318 1702 1702 1666 1397 1566 1708 1838 1947 2005 1923 1867 1811 1715 1704 1606
164 576 1081 130 0 0 0 0 0 145 168 214 535 591 548 463 421 487 914 930 854 599 980 1422 1646 1839 1763 1893 1662 2044 1805 1356 1154 1135 1088 1372 1663 1823 1634 1747 1890 2007 2053 2066 1976 1866 1802 1766 1773
344 240 201 0 1 0 0 0 0 50 176 619 835 602 721 513 537 846 1028 1146 1028 966 1223 1556 1681 1865 1860 1742 1876 1831 1900 1626 1411 1377 1428 1760 1770 1862 1909 1949 1956 1879 1870 1811 1800 1863 1798 1569 1530
4 24 56 5 0 0 0 0 21 319 346 727 1081 902 950 773 573 806 914 1215 1019 1176 1694 2285 2319 2102 2114 1960 2008 2075 1882 1616 1307 1242 1849 1590 1850 1685 1712 1838 1977 1947 1781 1769 1751 1791 1688 1614 1700
10 0 59 19 0 0 0 0 0 108 318 353 874 915 800 1015 948 1000 1164 1176 1371 1219 1497 2105 2415 2436 2170 1908 2069 2139 1734 1755 1712 1715 1670 1475 1367 1436 1524 1808 1975 1834 1773 1826 2024 2070 1901 1822 1813
12 93 17 9 47 0 0 0 0 30 131 429 502 448 662 975 1067 1178 1271 1248 1462 1319 1495 1680 2016 2285 2297 2217 2344 2397 1954 1547 1728 1753 1555 1417 1490 1237 1545 1317 1215 1324 2107 2044 1992 2097 1900 1773 1443
45 103 9 0 15 20 0 0 0 20 127 281 285 533 493 709 1061 1161 1269 1370 1482 1662 1656 1549 1683 1783 1954 2212 2674 2556 2376 2069 1664 1697 1347 1194 1229 934 139 837 533 1161 1921 1936 1699 1540 1857 1560 1324
167 188 18 37 34 102 108 74 88 97 228 221 387 488 453 477 767 952 1455 1267 1350 1583 1812 1653 1636 1851 1903 1849 2123 1923 1921 1780 1444 1222 1207 1295 1433 1055 1046 605 70 1106 1567 1570 1582 1486 1704 1489 1047
217 14 44 71 46 96 99 330 221 313 77 248 424 346 351 671 848 1125 1030 1083 1203 1252 1278 1285 1494 1493 1782 1943 1375 1644 1355 1450 1379 1543 1508 1645 1372 924 977 1000 1053 1051 1387 1394 1666 1475 1363 1250 1052
3 29 88 52 49 95 104 16 0 262 169 398 454 407 421 408 636 594 587 692 1007 1029 1262 1681 1893 1741 1683 1589 1613 1842 1734 1733 1625 1498 1625 1757 1298 1137 1488 1655 1608 1513 1132 1071 1168 1096 1231 1101 952
6 0 25 5 0 137 246 307 0 9 224 498 464 475 491 531 458 704 570 874 734 1038 1539 1490 1576 1549 1422 1399 1656 1742 1752 1790 1697 1586 1649 1606 1288 1198 1620 1606 1355 1428 1402 1209 1384 1349 1240 1222 1273
0 0 13 0 5 111 126 317 392 154 131 315 345 459 494 524 491 431 579 897 722 617 1434 1651 1491 1509 1518 1671 1598 1374 1490 1618 1641 1756 1601 1754 1640 1475 1389 1212 820 1293 1396 1271 1308 1082 872 772 792
0 0 0 0 0 55 129 281 512 303 158 214 317 369 430 450 453 419 474 627 734 727 981 1246 1435 1447 1259 1383 1555 1872 2088 2017 1385 1475 1417 1355 1332 1428 1310 1025 775 695 760 959 979 900 943 813 812
0 0 0 0 0 31 114 262 479 402 287 271 291 333 376 446 509 424 456 453 595 470 727 925 1488 1803 1618 1618 1782 2031 1726 1866 2037 1650 1397 1372 1379 1568 1452 1007 942 830 829 643 388 368 356 404 599
0 0 0 0 0 0 12 412 435 503 574 655 631 581 565 488 479 393 368 351 353 556 739 728 864 1727 1970 1950 1980 1978 1952 2113 1953 1953 1664 1604 1516 1531 1343 1230 1249 1126 866 718 642 694 628 536 414
0 0 1 2 0 0 44 351 451 536 698 684 814 863 978 898 792 532 402 452 615 668 759 966 1026 1375 1843 1761 2023 2319 2046 1534 1602 1830 1800 1485 1304 1421 1125 953 1082 1090 979 859 765 528 538 606 500
0 0 2 0 0 0 6 228 346 350 386 360 675 708 784 791 1016 862 840 772 847 980 1000 1290 1308 1838 1698 1861 1658 1925 1440 1306 1486 1583 1550 1487 1400 1379 1342 1052 967 1014 869 814 848 598 570 255 344
0 10 1 33 2 8 0 75 87 112 230 304 495 486 687 639 1069 1098 998 717 1059 1082 1397 1578 1633 2000 2189 2187 2012 2096 1987 1892 1780 1699 1697 1245 882 1037 1102 1018 797 563 663 438 262 348 359 236 428
0 0 35 55 49 40 16 11 26 26 40 188 424 406 455 398 786 1262 1296 1119 1248 1500 1579 1744 1870 2096 2239 1616 2076 1680 984 1187 692 1038 1222 443 181 29 100 248 285 317 519 408 355 340 321 189 236
0 0 0 49 52 25 76 40 0 0 0 57 307 358 278 449 391 525 640 749 1354 1647 1806 2066 2162 1712 2128 1846 2005 1070 328 0 305 313 150 0 72 37 5 187 445 434 264 250 416 490 416 364 199
0 0 0 0 16 21 49 18 26 12 0 32 124 303 255 290 266 329 399 499 981 1515 1599 1469 2055 1858 1955 214 62 0 0 0 16 51 0 0 0 33 45 413 274 219 75 157 396 199 269 245 182
0 0 0 0 0 0 0 0 33 7 35 36 61 62 139 177 303 363 458 657 1129 1221 1653 1688 2054 1706 588 49 0 0 0 0 0 0 0 4 2 24 412 203 61 74 95 179 126 275 217 157 116
0 0 0 0 0 0 0 0 6 40 40 10 4 18 38 93 211 327 436 714 1219 1214 1752 2142 1836 993 359 0 12 0 0 0 0 0 11 12 0 34 0 0 3 0 11 76 125 101 14 76 56
0 0 0 0 0 0 0 0 0 81 88 20 25 13 43 70 64 168 270 472 974 1181 1763 2059 1675 1149 145 157 37 0 0 0 27 331 14 0 0 0 0 0 29 0 23 76 180 45 25 35 45
0 0 0 0 0 1 1 0 1 18 36 27 105 54 17 39 60 49 102 296 807 1014 1666 1842 1664 999 329 116 5 10 70 2 83 18 0 0 107 0 0 1 0 7 161 158 258 263 161 64 15
0 0 0 0 0 0 1 18 6 6 12 64 92 42 37 5 95 104 79 288 816 952 1503 1723 1543 972 327 484 237 392 375 178 20 37 0 0 0 0 9 48 83 86 97 57 223 86 1 27 46
0 0 0 0 0 0 0 0 33 0 0 0 0 0 32 85 61 299 245 381 901 1090 1466 1602 1407 1070 356 551 376 440 431 88 76 101 12 9 71 175 153 131 95 91 112 256 329 178 118 124 155
0 0 0 0 0 0 6 8 0 0 0 0 0 0 0 0 134 242 517 733 1076 1204 1476 1472 1364 1058 353 548 463 237 1 7 18 30 16 12 0 0 0 0 0 94 168 237 368 261 102 231 95

GFSSGP_con_mlcape_006.txt.gz
CAPE
536 405 828 1139 285 0 5 72 20 40 37 21 63 105 62 112 0 0 26 145 331 416 732 1005 1173 1478 1496 932 694 1014 1441 1244 1352 1042 898 1306 1496 1259 1650 2035 2013 2155 2066 2029 2086 2013 1931 1732 1823
378 684 951 948 42 0 0 45 92 15 71 152 355 278 167 130 131 46 191 253 387 591 890 1260 1379 1362 1114 1269 1263 1473 1251 997 1032 1004 976 1195 1300 1605 1656 1626 1679 1760 1918 1947 1819 1829 1826 1755 1661
248 582 1024 479 12 0 0 110 104 0 44 254 325 195 186 267 340 285 288 394 653 511 744 1236 1147 1209 1181 1540 1652 1443 1452 1209 1098 1222 1368 1428 1512 1630 1858 1777 1663 1773 1781 1827 1847 1744 1748 1702 1670
328 382 724 246 0 0 55 186 182 0 59 493 413 258 452 462 462 392 502 662 420 666 1053 1426 1356 1472 1615 1795 1541 1301 1064 947 1391 1600 1445 1194 1409 1574 1948 1942 1895 1927 1991 1920 1864 1766 1728 1693 1714
266 144 49 1 0 0 126 192 248 450 558 529 322 405 516 479 735 766 791 637 441 742 1248 1364 1361 1517 1567 1950 1648 1539 1255 1090 1077 1236 1525 1756 1937 1905 1919 1862 1790 1789 1795 1745 1770 1764 1707 1337 1412
9 5 2 2 0 0 124 229 345 660 764 533 358 388 523 757 954 981 948 700 587 726 1236 1632 1379 1558 1776 2011 2153 1864 1530 1359 1320 1464 1896 1730 1852 1835 1736 1780 1918 1880 1691 1625 1601 1757 1652 1597 1745
15 4 0 3 0 15 166 281 286 600 616 582 553 289 507 747 914 1058 1040 815 864 1270 1583 1874 1832 1871 1840 1882 1940 1954 1565 1261 1162 1706 1686 1720 1773 1450 1539 1746 1874 1774 1658 1709 1909 2090 1977 1911 1995
12 0 0 0 0 0 206 142 223 427 534 879 500 282 487 543 896 1083 1075 964 1081 1571 1732 1809 1958 2138 2048 1945 1789 1591 1650 1491 1459 1631 1536 1464 1487 1378 1583 1483 1620 1869 2048 2008 1726 1937 1871 1574 1504
56 29 3 1 0 0 0 16 294 441 722 387 518 394 815 779 890 1139 1152 1240 1105 1056 1359 1594 1882 1904 1574 1929 2148 1861 1460 1397 1437 1485 1401 1479 1377 1078 154 691 790 1241 1868 1912 1633 1475 1708 1707 1389
23 40 11 4 14 0 0 51 181 346 515 447 386 695 1096 1102 1200 1200 1346 1299 1186 1218 1204 1289 1420 1899 1828 2148 1913 1742 1833 1537 1241 1394 1257 1108 1253 1231 1033 752 520 579 1507 1588 1500 1559 1443 1605 1003
1 1 2 2 42 74 90 173 217 304 321 255 296 636 1255 1209 1305 1311 1383 1181 1296 1410 1428 1366 1602 1748 1661 1628 1739 1454 1449 1311 1207 938 992 1336 1317 1261 799 895 896 951 1264 1233 1458 1510 1378 1136 1001
0 0 22 26 168 78 79 119 117 185 276 345 495 686 1161 1166 1153 1351 1176 1139 1308 1557 1484 1411 1559 1569 1773 1748 1268 1114 1222 1108 1181 1165 1365 1425 1460 823 823 1184 1468 1360 1144 1074 1050 1098 1008 1059 954
0 0 11 78 70 128 111 0 182 198 343 341 333 510 701 968 1050 1048 945 1087 1216 1179 1197 1511 1672 1414 1508 1624 1399 1460 1499 1527 1514 1503 1449 1644 1373 991 1223 1345 1290 1312 1150 1100 1162 1013 957 887 772
23 19 78 112 129 182 0 38 144 465 374 234 289 344 569 694 752 618 694 1012 1086 1146 1444 1713 1618 1223 1422 1337 1562 1530 1589 1806 1690 1674 1515 1515 1379 1147 1190 1163 990 791 973 1022 1097 980 858 704 723
30 17 13 106 193 284 261 357 257 310 405 365 283 335 336 432 527 571 781 806 781 1174 1533 1412 1427 1644 1621 1730 1540 1196 1482 1457 1489 1516 1536 1290 1343 1294 1242 1061 898 733 704 698 739 587 395 345 420
4 0 0 27 116 302 93 301 215 369 395 357 382 351 377 421 339 503 663 667 509 713 1283 1311 1387 1375 1233 1323 1460 1642 1536 1627 1593 1381 1321 1276 1219 1147 1149 931 771 765 703 805 559 423 513 437 427
0 0 0 2 0 37 44 330 180 144 263 331 333 327 326 288 277 332 559 544 479 592 1018 1130 1258 1219 1263 1394 1550 1679 1765 1508 1453 1654 1373 1235 1044 1052 1220 867 852 834 695 619 583 546 473 290 250
0 0 0 0 0 3 14 169 256 203 172 216 243 217 257 266 269 287 300 361 361 393 578 686 1073 1411 1588 1687 1769 1774 1830 1597 1642 1428 1185 1212 1077 1160 1218 861 767 806 746 718 695 619 409 380 390
0 0 0 0 0 3 2 140 199 302 315 350 409 344 347 269 245 253 280 287 393 418 531 575 694 1256 1713 1638 1511 1630 1631 1508 1262 1091 1267 1386 1113 1084 985 672 630 790 587 531 505 432 453 386 266
0 0 0 3 0 0 68 115 185 340 442 503 577 592 523 595 315 266 295 363 412 492 570 760 866 1410 1561 1526 1527 1404 1288 1217 1285 1415 1599 1102 804 892 638 653 679 451 371 342 281 234 214 182 420
0 0 0 9 13 3 83 104 214 278 388 427 453 681 735 804 646 471 446 503 634 724 804 986 1279 1427 1563 1632 1655 1707 1520 1165 1046 952 1191 573 293 72 0 82 114 184 205 162 208 292 288 149 245
0 0 0 16 39 10 48 23 57 122 122 152 227 507 583 648 777 783 759 515 732 1023 1015 1369 1521 1665 1775 1898 1581 1305 424 241 125 510 530 36 0 0 0 29 209 196 91 47 147 239 231 159 71
0 0 0 20 52 37 24 23 20 8 9 64 118 332 400 528 762 873 890 602 793 1158 1322 1389 1484 1642 1732 1597 1420 1194 111 0 101 133 0 0 0 0 0 173 144 11 0 2 59 25 95 135 88
0 0 0 11 19 34 21 18 11 20 45 18 20 274 318 349 682 912 984 721 1092 1230 1445 1620 1467 1448 1468 1278 564 76 0 0 0 0 0 0 0 0 11 3 0 0 0 0 7 82 37 51 68
0 0 0 0 0 0 0 35 0 4 22 18 5 143 288 278 395 642 709 691 1212 1320 1444 1593 1543 1302 993 256 0 0 0 0 0 0 0 0 0 0 0 0 0 0 0 0 7 7 0 13 18
0 0 0 0 0 0 0 0 0 0 4 17 5 94 192 212 262 403 301 266 721 1169 1301 1424 1391 1331 831 49 0 0 0 0 0 0 0 0 0 0 0 0 0 0 0 1 16 38 2 27 35
0 0 0 0 0 0 0 0 0 0 3 12 1 17 105 178 216 268 289 317 607 1009 1213 1397 1183 1219 669 235 0 0 0 0 0 8 0 0 0 0 0 0 0 0 0 0 0 17 42 21 1
0 0 0 0 0 0 0 0 0 21 27 36 4 1 4 55 166 210 294 368 719 898 1300 1470 1156 1144 754 200 0 0 0 0 9 2 0 0 0 0 0 0 0 0 0 0 0 7 0 0 0
0 0 0 0 0 0 0 0 0 26 30 50 47 33 5 24 49 156 268 341 713 967 1300 1509 1320 1244 899 159 0 0 62 56 10 0 0 0 0 6 71 63 20 0 0 11 85 52 97 26 19
0 0 0 0 0 0 0 0 0 6 14 26 56 63 22 0 40 96 133 212 535 869 1315 1445 1475 1340 1058 189 0 40 248 230 100 47 14 0 17 12 0 0 0 0 11 1 15 56 111 122 59

GFSSGP_con_mlcape_009.txt.gz
CAPE
949 460 653 981 193 8 33 12 40 20 29 63 83 34 90 70 1 1 6 64 106 207 333 763 972 1134 1175 1036 1048 1231 1274 797 1178 1078 1036 1004 1140 1289 1226 1441 1643 1532 1535 1757 1868 1861 1869 1868 1804
505 481 879 789 0 0 26 30 0 14 96 181 220 166 148 84 76 91 81 226 270 489 714 1002 1245 1288 784 1096 1159 1358 1424 1119 1213 1264 1316 1080 1113 1519 1861 1900 1696 1700 1732 1794 1794 1804 1686 1726 1715
300 625 893 332 0 0 4 7 0 18 324 394 173 145 204 80 130 125 105 396 623 784 1149 1392 1385 1365 1339 1399 1388 985 1170 1026 976 834 955 1237 1422 1583 1696 1649 1533 1604 1732 1811 1776 1680 1714 1680 1689
245 448 449 18 0 14 100 33 0 116 141 448 317 141 375 432 274 227 263 562 511 933 1319 1542 1442 1572 1541 1464 1258 1061 1015 885 831 1015 1414 1549 1570 1865 1831 1663 1702 1836 1835 1731 1666 1622 1632 1722 1828
208 104 0 0 0 90 160 53 59 219 545 394 316 254 403 566 362 331 434 476 440 885 1357 1496 1727 1632 1749 1531 1379 1458 1508 1743 1801 1849 1639 1584 1586 1881 1911 1926 1953 1873 1817 1793 1798 1813 1792 1683 1635
14 1 0 0 8 216 206 116 276 644 650 401 259 311 442 678 482 616 639 346 661 933 1335 1657 1833 1956 1787 1574 1533 1473 1435 1409 1484 1594 1802 1884 2016 2012 2029 1954 1849 1746 1747 1775 1662 1816 1852 1737 1920
6 0 0 0 0 235 286 542 769 511 466 261 301 186 673 744 726 849 577 454 645 1127 1269 1334 1569 1769 2030 1882 1705 1490 1437 1318 1255 1691 1655 1886 1971 1919 1774 1857 1905 1828 1787 1735 1880 2187 2010 1906 1972
0 0 0 0 0 121 271 495 751 376 342 647 300 69 355 827 1020 940 780 618 879 1033 1345 1215 1636 1793 1909 2070 2052 1808 1519 1338 1275 1851 1752 1877 1819 1659 1645 1582 1644 1954 2051 2106 2037 1833 1682 1619 1555
14 0 0 0 0 52 290 339 701 852 524 224 488 209 435 948 1046 961 744 736 839 1135 1275 1417 1418 1813 1773 1964 1941 1974 1743 1591 1526 1898 2009 1974 1776 1548 982 688 957 971 1552 1684 1585 1300 1149 1173 1245
13 4 1 0 0 63 169 238 555 370 251 504 481 471 695 986 1065 870 670 711 830 1100 1320 1348 1496 1438 1745 1852 1780 1694 1739 1738 1579 1623 1810 1426 1048 1136 807 1003 1022 479 1091 1706 1373 1275 1365 1288 1074
4 0 0 7 0 1 30 185 298 257 342 306 168 500 755 894 1043 957 955 690 488 614 1020 1267 1460 1632 1453 1708 1660 1538 1500 1221 1217 1309 1309 1183 1065 1213 1088 847 772 767 1084 1316 1142 1449 1233 1063 941
0 0 0 8 24 0 56 192 289 266 280 314 586 871 951 1046 1148 1074 1141 980 819 857 873 1005 1236 1596 1476 1671 1754 1446 1367 1183 1083 1100 1080 1200 1371 1132 831 754 1110 1325 1078 1018 927 1018 889 967 1030
0 0 0 7 16 40 86 104 170 235 367 589 950 1088 1106 1204 1220 1190 1139 1016 1141 1210 1154 1177 1427 1445 1394 1497 1322 1182 1072 1245 1076 1101 1145 1359 1352 1110 814 1120 1187 1210 1085 1032 1000 1000 889 713 700
0 2 11 20 30 14 60 172 204 355 431 461 936 1084 1173 1235 1237 1303 1276 1079 1180 1318 1228 1279 1437 1433 1416 1559 1607 1153 1298 1365 1416 1394 1493 1447 1540 1295 1084 1097 938 898 837 939 1022 872 732 449 364
0 0 34 46 42 15 58 105 247 310 420 437 856 1008 1073 1086 1165 1115 997 1016 1052 1130 1185 1306 1437 1382 1284 1420 1477 1266 1459 1353 1415 1586 1516 1405 1448 1366 1184 995 807 768 693 657 616 513 331 407 342
0 0 38 51 45 59 150 10 339 306 274 334 439 610 718 869 787 755 784 880 939 979 1144 1308 1530 1422 1218 1258 1378 1266 1424 1363 1329 1377 1378 1318 1242 1254 1165 782 708 744 678 651 677 476 395 278 211
0 0 9 59 91 112 167 105 282 299 192 216 291 359 448 455 536 533 520 659 762 873 1108 1318 1409 1282 1350 1482 1502 1471 1349 1374 1483 1484 1242 1123 1019 998 985 677 684 585 580 580 504 444 427 209 123
0 0 3 7 99 38 88 77 225 293 218 162 144 170 225 277 259 415 494 548 472 739 1159 1187 1162 1248 1242 1184 1332 1496 1543 1592 1561 1387 1249 1081 980 916 883 884 692 623 516 446 483 401 372 353 326
0 0 7 14 0 18 51 48 101 236 171 134 174 188 161 180 215 248 465 450 380 346 681 802 917 1036 1115 1231 1409 1496 1538 1626 1515 1318 1301 1291 1180 1058 910 676 363 449 393 320 306 258 285 318 273
0 0 0 0 0 38 62 39 66 109 98 95 104 148 171 186 187 210 306 414 373 301 470 598 734 879 1206 1373 1396 1406 1391 1344 1131 1061 1246 1302 1026 747 603 392 401 424 251 135 116 89 69 144 380
0 0 0 0 0 41 55 56 158 112 118 120 149 166 144 146 163 166 196 236 286 263 299 371 530 679 1088 1465 1415 1405 1279 1220 1023 1220 1314 851 649 507 190 62 77 15 35 7 8 121 94 52 201
0 0 0 0 0 0 45 0 96 171 190 236 289 298 306 225 167 168 200 235 270 240 292 450 558 746 1144 1393 1415 1213 848 476 202 433 836 423 76 0 0 0 0 24 0 0 4 44 48 23 3
0 0 0 0 0 4 23 4 24 123 163 209 298 303 434 398 229 221 226 292 293 284 441 583 751 1072 1351 1443 1567 1285 890 246 37 167 482 40 0 0 0 0 27 8 0 0 1 0 4 15 2
0 0 0 0 0 2 5 5 0 16 84 110 181 204 396 412 495 402 291 293 398 468 642 816 856 1229 1435 1451 1558 1112 769 97 0 96 50 0 0 0 0 4 14 0 0 0 0 0 0 0 2
0 0 0 0 0 0 0 6 0 2 42 51 66 90 212 349 629 617 576 514 514 501 835 1017 1005 1255 1246 1299 1216 780 471 0 0 0 0 0 0 0 0 0 0 0 0 0 0 0 0 0 0
0 0 0 0 0 0 0 0 0 7 22 40 49 45 118 188 492 685 744 691 610 572 861 1125 1240 1273 1071 1064 805 364 1 0 0 0 0 0 0 0 0 0 0 0 0 0 0 0 0 0 0
0 0 0 0 0 0 0 0 0 0 0 9 11 6 66 138 288 635 808 731 742 731 872 1034 1353 1421 953 691 432 0 0 0 0 0 0 0 0 0 0 0 0 0 0 0 0 0 0 0 0
0 0 0 0 0 0 0 0 0 0 0 0 4 4 20 82 184 488 759 677 821 925 959 1147 1348 1448 1001 496 266 0 0 0 0 0 2 2 0 0 0 0 0 0 0 0 0 0 0 0 0
0 0 0 0 0 0 0 0 0 0 0 0 0 3 10 33 105 265 499 559 584 955 1152 1161 1335 1381 1026 597 325 25 0 0 0 0 11 11 0 0 0 0 0 0 0 0 0 0 0 0 0
0 0 0 0 0 0 0 0 0 0 0 0 5 15 4 11 90 196 312 426 430 614 910 1087 1345 1177 925 655 473 105 0 0 0 0 0 0 0 0 0 14 17 0 0 0 0 0 0 0 0

GFSSGP_con_mlcape_015.txt.gz
CAPE
1467 1385 1015 731 25 9 18 30 28 67 54 118 75 42 48 57 8 27 10 121 126 213 282 643 669 618 721 902 792 784 863 933 972 1011 846 761 934 1175 1608 1855 1880 1852 1849 1866 1808 1738 1761 1764 1782
1085 757 771 585 24 0 0 15 102 68 137 157 176 141 93 37 75 60 99 198 153 157 316 759 824 798 879 894 753 869 963 1199 1428 1244 953 1057 1339 1501 1928 1825 1648 1698 1877 1744 1736 1736 1718 1630 1644
738 562 874 18 0 0 0 15 78 237 291 155 133 133 45 48 71 88 135 335 490 508 546 1055 915 1255 1169 940 1008 1233 1516 1475 1386 1105 1162 1546 1898 2015 1821 1643 1487 1691 1711 1697 1637 1544 1496 1554 1633
588 632 115 0 0 0 0 33 346 351 432 305 82 66 155 104 84 136 324 440 606 723 825 1216 1292 1383 1406 1390 1346 1316 1401 1339 1443 1429 1630 1877 1795 1610 1538 1422 1629 1684 1672 1719 1709 1725 1746 1722 1570
261 53 0 0 0 154 0 116 400 406 468 240 167 77 93 474 242 235 447 569 697 892 1140 1215 1089 1174 1285 1525 1594 1380 1359 1473 1587 1654 1744 1755 1783 1754 1707 1843 1860 1794 1749 1738 1723 1669 1814 1859 1806
65 0 0 0 0 135 42 175 570 632 472 193 111 55 241 531 168 281 406 514 529 769 1081 1143 1203 1483 1489 1414 1625 1516 1231 1407 1342 1500 1647 1684 1776 1817 1769 1760 1667 1769 1816 1755 1728 1918 1863 1871 1731
34 0 0 0 35 154 75 209 571 389 351 218 164 136 295 371 177 371 420 603 717 872 1012 1340 1366 1709 1614 1469 1439 1473 1428 1387 1245 1278 1494 1595 1732 1697 1659 1651 1735 1846 1726 1911 2094 1820 1403 1495 1309
12 0 0 0 17 37 185 476 678 330 344 360 297 32 115 416 269 399 460 624 792 881 1229 1520 1713 1600 1223 1313 1719 1797 1871 1789 1738 1592 1652 1744 1850 1779 1638 1761 1530 1634 1671 1666 1871 1472 1155 1222 1165
0 1 0 0 12 42 355 396 733 652 338 344 392 330 234 590 365 340 465 686 974 1145 1291 1446 1512 1532 1686 1629 1435 1577 1567 1540 1505 1521 1705 1401 1559 1513 1731 1289 1069 1259 1460 1246 1532 1412 1256 1168 1185
30 0 0 0 7 16 217 556 701 649 356 351 439 577 663 713 409 323 354 521 694 862 1147 1406 1434 1311 1416 1214 1747 1608 1440 1218 1331 1549 1859 1755 1814 1721 1377 822 1268 1196 896 1288 1162 1162 1276 1356 1404
7 0 0 0 0 117 156 486 673 431 173 305 363 537 721 681 599 416 348 368 499 721 913 1216 1622 1660 1627 1775 1820 2140 1815 1619 1471 1758 1852 1962 1655 1445 1622 1704 1350 1270 1319 1553 1384 1394 1485 1536 1638
0 0 0 0 0 89 149 434 312 274 65 266 549 632 723 679 609 463 430 478 524 668 848 1100 1296 1680 1752 1626 1459 1580 1418 1534 1299 1263 1694 1589 1213 1308 1583 1481 1357 1461 1435 1638 1508 1562 1624 1543 1411
0 0 0 0 0 76 236 129 267 208 149 494 645 721 676 647 668 705 611 538 707 713 901 1343 1478 1491 1739 1757 1487 1222 1315 1131 1130 1369 1352 1245 1123 872 1204 1271 1073 1190 1408 1456 1306 1297 1445 1474 1131
0 0 0 0 0 23 114 167 142 162 385 529 647 614 671 754 859 930 734 722 762 754 833 1273 1541 1699 1823 1642 1660 1659 1575 1567 1396 1471 1277 1221 956 790 915 923 1027 1135 1420 1506 1307 1272 1260 1064 1030
0 0 6 3 0 0 136 47 61 313 526 373 450 597 663 786 880 843 703 759 792 660 703 804 1118 1446 1687 1656 1540 1617 1676 1260 1351 1409 1213 1034 1410 1244 1225 916 832 1089 1420 1332 1283 1200 1092 873 683
0 0 0 7 0 21 14 7 153 417 444 299 306 492 521 661 751 898 876 972 1054 821 756 862 757 1010 1326 1515 1613 1623 1813 1722 1396 1222 1193 1356 1402 1060 1032 783 874 1003 1253 1138 1058 1117 868 721 453
0 0 1 10 0 5 12 25 145 350 436 433 340 302 458 615 832 1004 1090 1149 1198 1108 1025 1112 1229 1298 1563 1601 1710 1775 1560 1333 1193 1731 1705 1195 1330 1310 1168 995 928 1141 1122 893 1053 889 711 185 62
0 0 2 29 17 39 29 79 190 367 438 449 506 501 554 733 902 1113 1161 1143 1203 1218 1333 1366 1404 1525 1634 1762 1764 1686 1670 1713 1665 1392 1426 1336 1085 1121 1235 920 1074 1230 853 833 681 578 533 297 350
0 1 35 50 44 38 59 54 158 263 325 360 561 692 599 591 724 889 1014 1076 1137 1210 1216 1258 1401 1445 1651 1628 1593 1500 1438 1804 1569 1062 1231 1431 1312 1438 1164 1119 1197 937 708 622 646 450 313 261 433
0 0 35 19 42 48 44 49 88 226 230 267 329 511 608 599 754 895 921 838 937 1083 1056 1221 1334 1413 1537 1751 1741 1656 1785 1839 1814 1835 1989 1833 1703 1570 1549 1298 915 812 621 415 259 329 171 139 477
0 0 16 12 21 40 51 9 21 114 266 239 230 258 302 354 463 546 642 725 799 883 1028 1129 1224 1319 1502 1701 1785 1666 1575 1509 1563 1659 1570 1629 1662 1630 1433 985 719 513 168 25 254 197 217 74 274
0 0 35 39 27 0 35 2 30 86 118 226 234 221 205 202 268 289 326 538 743 730 840 963 1175 1260 1437 1641 1511 1407 1338 1509 1560 1203 1349 1674 1499 1327 1129 702 122 66 77 133 144 107 195 127 13
0 0 0 26 46 9 9 1 0 14 42 76 185 268 207 164 174 183 232 350 543 616 663 782 1051 1142 1290 1470 1461 1479 1558 1681 1597 857 1053 1558 1076 953 486 42 1 3 94 148 13 90 72 102 13
0 0 0 0 5 0 0 0 0 0 29 65 127 201 206 163 162 189 208 224 370 527 564 666 778 847 959 1185 1392 1441 1487 1668 1290 680 443 933 742 376 66 1 57 183 214 91 22 77 58 40 103
0 0 0 0 0 0 0 0 0 0 9 30 73 109 139 144 135 156 236 254 368 446 565 609 701 762 788 993 1201 1342 1410 1706 1356 717 489 389 400 309 0 0 68 208 205 15 18 28 38 14 30
0 0 0 0 0 0 0 0 0 0 14 33 86 110 126 132 149 188 285 307 383 439 538 604 637 754 769 803 974 1261 1500 1732 1450 898 539 257 361 226 24 36 87 174 10 0 3 17 39 23 5
0 0 0 0 0 0 0 0 0 0 0 0 13 62 91 159 219 228 371 378 470 508 539 627 687 750 783 852 1074 1287 1525 1609 1321 858 592 205 283 86 58 48 90 77 0 0 6 0 3 31 89
0 0 0 0 0 0 0 0 0 0 0 0 0 8 59 140 262 394 543 524 554 678 719 759 805 810 804 932 1131 1249 1415 1292 1306 784 329 34 165 50 63 55 84 1 0 0 13 0 0 0 41
0 0 0 0 0 0 0 0 0 0 0 0 0 0 12 98 146 314 674 671 630 731 817 867 924 969 997 873 1054 1187 1234 1133 744 547 217 17 26 34 38 46 30 39 17 1 8 26 19 3 90
0 0 0 0 0 0 0 0 0 0 0 0 0 0 0 7 70 353 705 820 776 838 866 915 1027 1098 1115 1028 1075 1166 869 621 659 343 7 2 4 0 23 36 34 51 33 62 51 68 18 66 46

GFSSGP_con_mlcape_021.txt.gz
CAPE
498 546 1102 1373 378 51 76 74 105 104 107 55 18 89 134 68 75 0 1 229 168 240 275 318 502 534 774 1061 864 784 615 738 951 1103 1184 1414 1744 1934 1846 1795 1811 1782 1668 1592 1528 1486 1488 1496 1373
921 1227 1602 1542 308 3 59 101 62 99 152 93 94 129 125 91 26 31 98 216 161 126 249 269 587 769 1026 1106 996 835 761 805 925 973 1113 1281 1850 1862 1703 1695 1760 1691 1638 1532 1408 1488 1514 1536 1450
1464 1466 1481 1208 25 2 63 74 76 82 108 140 133 128 309 180 132 261 153 102 90 300 573 347 773 1012 1220 1167 1294 1104 1166 1188 966 1028 1188 1490 1928 1825 1606 1657 1706 1606 1543 1476 1524 1548 1589 1582 1614
1576 1132 957 54 0 35 104 114 76 115 150 153 223 243 211 260 344 327 505 404 412 572 715 595 989 954 1220 1272 1431 1523 1598 1402 1024 1156 1642 1900 1800 1593 1568 1735 1591 1552 1560 1563 1508 1593 1696 1802 1774
1050 699 131 10 20 60 135 141 171 148 127 193 246 327 270 451 390 429 485 461 644 729 922 733 1273 1373 1406 1567 1843 1693 1633 1366 1137 1554 1875 1805 1820 1658 1782 1593 1439 1513 1614 1687 1779 1743 1548 1573 1659
742 114 28 8 0 14 83 109 89 172 145 126 288 341 605 536 572 654 727 733 670 877 927 1034 1546 1581 1675 1665 1613 1359 1348 1383 1518 1751 1783 1944 1951 1760 1663 1485 1520 1593 1739 1829 2049 1829 1303 1412 1334
524 99 38 8 0 2 8 27 88 70 53 183 342 560 511 666 697 667 897 722 714 746 897 997 1187 1416 1832 1675 1415 1426 1533 1636 1649 1699 1795 1820 1822 1528 1222 1107 1349 1548 1809 1858 1679 1583 1172 1253 1054
515 79 29 54 32 0 0 28 5 34 81 95 434 511 468 714 582 552 531 593 698 982 858 974 1122 1028 1532 1685 1359 1362 1479 1451 1512 1586 1721 1657 1394 901 727 1086 1677 1313 1420 1598 1615 1387 1034 1038 940
265 49 64 6 36 0 0 4 6 32 0 22 169 348 496 587 512 464 403 600 748 934 966 1049 1101 924 940 1180 1323 1382 1509 1527 1500 1357 1586 897 1433 1500 1655 1346 821 1151 1356 1494 1272 1342 971 1085 1289
198 10 38 10 23 1 0 7 17 3 0 78 87 361 498 554 498 442 455 740 761 926 970 1009 887 922 863 662 1186 954 893 865 845 908 1380 1019 1255 1381 1080 1014 950 1000 723 1048 1136 834 1078 1529 1750
25 87 15 6 28 36 1 22 6 61 0 1 90 389 408 468 527 487 485 564 658 995 959 900 1216 864 830 1355 934 1051 990 932 958 1361 1362 1175 1267 1115 1077 1389 1893 1923 1276 1691 1642 1496 1603 1507 1348
5 31 17 42 0 70 9 72 7 1 48 0 129 383 387 477 507 500 528 616 812 850 733 612 827 1069 961 1016 813 889 733 709 733 974 1377 1350 1305 1016 1229 1159 1568 1708 1309 1518 1628 1555 1788 1147 1429
4 39 12 2 0 16 44 50 24 2 11 16 213 337 375 416 426 417 452 538 707 782 711 711 877 1239 1175 1510 836 822 744 653 680 836 1224 1050 966 976 1211 1337 1344 1592 1416 1300 1310 1318 1509 1318 1260
1 5 1 0 1 2 42 51 9 4 0 72 319 344 345 332 338 365 400 524 683 774 769 885 1118 1257 1374 1365 1539 979 1017 886 704 764 790 1364 1168 1151 1124 1467 1436 1370 1167 1541 1511 1546 1642 1551 1249
0 0 0 0 0 1 5 25 1 0 112 147 305 333 234 251 274 371 375 472 598 739 811 919 1081 1241 1498 1457 1484 1242 1046 853 907 781 1122 1310 1828 1759 1816 1783 1446 1216 1326 1865 1728 1819 1634 1330 1146
0 0 12 8 0 2 0 20 0 112 50 306 189 317 235 226 290 357 369 447 530 595 679 889 945 1039 1395 1512 1578 1388 1093 1195 1152 983 1309 1480 1623 1910 1821 1546 1350 1421 1532 1527 1351 1273 1145 166 32
0 0 0 2 0 8 8 3 24 163 27 11 248 148 260 247 310 370 417 523 533 635 715 847 949 938 1272 1588 1554 1471 1430 1663 1403 1517 1393 1487 1693 1895 1905 1385 1263 1911 1461 1522 1413 911 338 26 0
0 0 43 106 1 48 25 214 156 328 120 0 34 45 93 151 267 397 507 507 539 616 823 973 968 1036 1265 1482 1735 1604 1612 1686 1412 1143 1627 1644 1604 1736 1641 1448 1613 1697 1562 1400 1028 550 159 0 0
11 53 10 24 9 22 62 106 173 353 326 66 0 12 20 32 230 350 520 433 497 623 981 1087 1215 1461 1384 1504 1661 1484 1391 1226 1082 1257 1406 1863 1913 1730 1690 1507 1423 1544 1108 1032 530 151 0 0 36
0 19 40 17 44 5 66 94 210 325 373 296 118 20 17 15 35 228 511 447 609 766 1111 1451 1572 1876 1866 1904 1594 1372 904 609 924 1540 1713 1934 1708 1659 1664 1597 1490 1421 540 842 161 0 0 0 31
0 2 37 45 95 82 110 54 118 153 342 331 254 102 52 10 16 85 422 594 726 762 1145 1747 2036 2271 2277 2104 1807 1744 1591 1046 1235 541 1010 1598 1404 1495 1710 1808 1107 1326 416 1 51 29 13 2 3
0 0 9 44 39 48 23 129 87 75 73 232 382 339 119 75 33 43 344 654 719 835 1206 1752 2286 2508 2511 2540 1880 1539 1409 903 453 359 497 501 632 658 1184 703 700 723 0 14 13 23 44 2 9
0 0 6 28 69 112 67 59 40 22 26 45 221 372 305 99 94 50 156 403 642 820 1106 1537 2370 2772 2670 2675 2068 1750 1442 677 685 540 854 533 968 757 459 783 736 197 0 13 118 22 79 93 0
0 0 16 25 40 46 119 60 42 3 44 85 97 231 453 268 139 234 147 244 451 636 900 1184 2225 2890 3106 2949 2812 2452 2219 1101 976 918 920 465 678 615 610 803 519 106 0 158 152 63 59 14 57
0 0 9 14 31 18 72 64 25 64 91 66 53 78 209 519 124 114 217 248 407 592 867 1046 1933 2943 3318 2962 2773 2632 2579 2278 1692 1743 991 528 448 562 964 876 864 230 148 383 226 138 88 3 7
0 0 0 2 17 20 30 32 56 79 21 70 53 48 72 399 377 105 120 132 201 431 968 1177 1681 2729 3178 3101 3094 3049 2968 2148 1803 1584 1234 392 252 361 1311 1319 811 272 376 351 274 40 25 16 0
0 0 0 6 32 41 30 26 16 22 29 67 25 1 23 218 439 178 138 118 108 367 874 1280 1528 2453 2949 3015 3356 3154 3071 2665 1571 1563 1801 1245 463 161 470 1162 627 421 275 343 149 39 94 67 30
0 0 0 0 14 33 35 25 20 41 6 9 19 2 7 18 209 320 157 149 146 223 614 1149 1543 2508 2908 2912 3265 3042 3048 3072 2681 2377 2329 1689 882 355 758 863 579 413 344 360 197 65 103 123 50
0 0 0 0 1 17 38 35 22 24 12 0 0 0 13 19 118 376 320 246 292 247 370 946 1675 2227 2775 2822 2938 2792 2889 2715 2951 2509 2431 2247 1441 1051 709 871 622 387 484 218 353 298 228 96 139
0 0 0 1 0 2 16 31 23 0 10 2 12 25 24 8 37 106 357 388 425 572 489 779 1263 1737 2464 2592 3036 2961 2939 2599 2571 2698 2541 2683 1857 1404 854 888 651 468 290 52 5 146 126 30 69

GFSSGP_con_mlcape_024.txt.gz
CAPE
279 422 722 149 28 42 26 89 125 91 49 57 14 62 10 37 4 1 42 229 266 286 385 381 453 423 625 826 627 891 1048 1180 1234 1469 1736 1786 1783 1706 1714 1703 1732 1695 1623 1494 1469 1504 1520 1362 1322
380 532 573 41 16 13 118 183 83 84 37 123 91 69 9 1 18 99 121 228 161 154 141 177 505 620 898 944 694 726 856 1101 1136 1332 1673 1753 1735 1632 1583 1637 1672 1585 1488 1441 1538 1568 1529 1497 1386
602 674 900 461 38 5 72 147 39 165 110 124 102 108 68 50 77 152 98 77 108 138 396 667 613 1161 1154 1051 1008 1045 1084 1071 1166 1261 1516 1751 1679 1450 1544 1621 1508 1486 1494 1508 1528 1598 1587 1573 1530
1284 1389 1316 975 98 4 157 66 76 32 153 128 81 181 128 171 157 168 115 149 294 566 338 780 1148 1279 1362 1388 1357 1446 1318 1003 1074 1416 1715 1642 1473 1410 1647 1513 1439 1468 1482 1531 1688 1655 1490 1581 1483
1783 898 918 103 132 205 99 128 29 43 219 229 135 260 419 310 90 212 194 373 513 597 610 902 1206 1358 1408 1509 1604 1648 1372 1041 1270 1659 1622 1650 1553 1607 1626 1308 1301 1452 1643 1699 1947 1593 1405 1363 1386
1292 780 471 4 0 70 47 155 26 55 168 318 215 309 338 405 531 413 402 525 620 680 689 935 1432 1491 1560 1862 1659 1568 1304 1120 1378 1637 1633 1685 1628 1537 1391 1206 1324 1515 1688 1836 1759 1456 1245 1286 956
704 562 109 0 0 5 6 17 51 23 113 178 425 330 304 450 506 465 436 704 689 788 849 1167 1258 1599 1668 1585 1322 1285 1339 1371 1533 1485 1465 1617 1645 1407 1141 1034 1001 1240 1503 1534 1597 1334 994 1021 781
444 421 187 4 0 0 0 21 0 2 141 129 300 187 334 591 674 472 693 656 714 812 952 1263 1320 1511 1477 1328 1311 1355 1336 1310 1292 1202 1269 1457 1608 1346 1072 1243 1531 1095 1158 1184 1168 1071 845 837 941
145 33 96 11 0 0 0 0 44 34 13 209 293 240 438 261 397 808 743 617 502 728 811 1047 1189 1609 1461 1093 945 1233 1270 1226 1133 1019 1163 1333 636 1075 1456 1570 954 736 969 1279 1201 1009 981 1064 1233
42 0 7 0 43 0 1 0 0 0 0 26 417 387 352 279 350 414 887 871 701 656 598 904 730 753 1325 873 1049 1015 883 865 780 901 1317 1002 1090 1174 1669 1004 1136 865 1026 1257 1292 1252 882 1534 1707
2 0 13 15 5 0 0 0 0 2 0 15 418 412 373 325 309 181 795 552 830 867 830 1026 878 827 625 1087 707 1104 1096 1041 1062 1392 1259 1868 1473 1294 1113 1178 1844 1096 1869 1657 1649 777 25 1125 1625
63 3 0 25 28 70 0 1 0 29 11 0 372 525 503 350 202 180 652 404 926 651 827 958 1096 1067 1192 1161 731 1207 1274 1167 1281 1385 1236 1129 1678 891 1073 1431 1356 1455 1538 1728 1811 934 983 1561 1410
8 5 3 11 0 20 12 1 0 12 11 3 206 362 433 387 236 172 268 433 822 631 766 1330 1414 1071 1373 1576 964 964 1125 645 818 1310 1278 1104 1352 1223 1292 1308 1217 1734 1561 1090 1238 1403 1480 1021 1266
0 2 2 5 1 0 28 27 0 0 6 2 93 195 264 332 289 254 310 404 857 704 589 905 1201 1245 1266 1422 1547 1649 1061 974 460 852 1758 1174 1034 1458 1828 1297 1314 1503 1203 1483 1779 1821 1728 1622 1722
0 1 0 0 0 1 29 31 13 0 0 13 59 143 161 248 285 325 332 507 667 578 601 889 1080 1542 1111 1428 1575 1651 1212 725 835 788 1620 1744 1643 1794 1621 1824 1658 1550 1505 1523 1900 1598 1816 1739 1677
0 0 0 0 0 0 0 74 0 0 0 1 115 112 155 127 170 316 335 511 594 680 905 1072 771 1414 1548 1756 1875 1223 990 1088 1038 1455 820 1081 1748 1570 1712 1676 1696 1428 1405 1397 1314 1260 1156 1046 44
0 0 0 4 0 0 0 6 47 96 0 0 44 101 96 152 168 264 274 469 624 749 1012 869 1143 1158 1749 1578 1772 1712 1585 1216 1237 1071 1179 1364 1571 1769 1612 1724 1592 1721 1548 1428 1274 1078 686 206 0
0 0 0 13 2 0 1 58 33 45 13 0 14 54 95 84 83 283 313 307 498 642 941 1112 1073 1207 1751 1626 1746 2003 1555 1944 1470 1868 1154 1568 1703 1418 1459 1628 1730 1603 1487 1509 917 784 250 0 0
0 0 0 4 0 0 68 131 0 0 66 0 18 0 30 75 118 261 298 359 450 689 1050 1047 1237 1175 2212 2165 1744 1440 1544 1599 1247 1585 1221 1554 1962 1983 1548 1572 1460 1559 1271 1025 805 170 0 0 10
0 0 9 9 13 13 5 212 150 163 167 21 0 0 0 11 70 223 378 433 482 651 893 1375 1234 1909 1400 1667 1726 1615 1312 1718 1250 1170 1191 1556 1936 1720 1428 1420 1452 1539 1113 916 222 1 0 0 20
0 0 0 5 9 6 4 9 17 151 176 140 73 0 0 0 5 220 417 468 545 714 1142 1362 1451 1896 1592 1936 1671 1431 1749 1988 1493 1727 1350 1851 2058 1753 1684 1883 1471 1417 401 485 72 60 43 2 134
0 0 0 0 11 0 21 35 23 62 268 109 53 60 27 5 0 25 309 637 558 780 1250 1755 1836 1726 2558 1395 2097 1416 1475 1325 461 550 1487 2040 1552 1352 1831 1631 976 943 165 241 31 70 21 15 20
0 0 0 0 0 46 62 5 8 63 264 165 87 48 37 48 13 5 112 398 558 864 1243 1977 2228 2343 2462 2428 2103 2131 1777 641 1117 822 842 1545 1005 808 1414 736 1059 560 0 163 179 55 6 192 4
0 0 0 0 0 0 26 13 25 41 5 10 51 85 206 130 69 20 29 250 590 776 1157 1525 2593 2574 2460 2721 2136 1909 1967 1089 1041 1059 999 692 1062 947 759 979 686 301 7 388 160 65 94 13 58
0 0 0 0 0 0 23 54 30 52 16 4 3 18 193 288 143 112 70 208 698 802 1031 1621 2567 2790 2820 2756 3079 1861 2279 1796 1123 1784 1304 770 641 760 747 1229 693 431 7 379 316 186 270 93 31
0 0 0 0 0 1 0 0 15 41 5 1 8 0 71 188 288 252 285 190 701 781 1021 1460 2451 2813 3181 2706 3292 3096 1975 2879 2114 1586 1822 993 812 914 978 1028 839 767 183 453 319 302 36 82 40
0 0 0 0 0 1 6 7 4 61 16 1 0 1 27 214 404 357 472 537 544 880 1010 1256 2249 2797 3245 3375 3112 3470 2951 2191 2634 1807 1779 1458 513 1231 1138 1081 1143 573 699 461 449 93 87 186 185
0 0 0 0 0 0 0 1 11 49 6 7 3 16 4 156 251 464 282 509 674 914 1144 1440 1745 2749 3422 3507 3470 3324 3446 2735 2407 2264 1875 1246 1669 776 1372 1330 1167 659 479 553 437 114 194 176 168
0 0 0 0 0 0 0 2 33 68 109 42 11 1 5 2 223 482 390 343 453 666 1064 1429 1607 2693 3390 3516 3525 3508 3505 3479 2751 2541 2169 2215 1455 1031 1530 1479 1120 752 641 600 378 173 305 197 124
0 0 0 0 0 0 0 0 15 17 122 121 16 4 14 0 1 146 532 464 474 457 790 1259 1712 1945 2981 3361 3382 3566 3592 3543 3400 2462 2897 2592 2266 1940 1134 1262 1023 891 664 605 377 71 278 215 193

GFSSGP_con_mlcape_027.txt.gz
CAPE
362 353 399 0 41 25 44 97 50 15 30 17 1 13 1 2 0 0 34 45 32 0 78 156 423 647 828 1096 1214 1285 1268 1311 1544 1335 1434 1607 1547 1605 1667 1666 1681 1612 1494 1492 1534 1536 1379 1339 1359
208 598 0 0 22 41 107 77 92 65 55 26 52 35 0 10 2 36 37 133 138 79 129 279 374 802 717 923 1061 1217 1171 1320 1412 1411 1486 1567 1617 1668 1638 1647 1557 1514 1493 1571 1571 1533 1477 1409 1404
380 87 0 0 0 82 110 136 107 163 149 45 39 46 24 19 56 77 77 157 150 74 203 371 490 806 791 749 876 1109 1167 1160 1263 1692 1744 1692 1565 1611 1620 1513 1510 1537 1537 1555 1614 1590 1636 1579 1340
452 527 243 195 31 60 130 115 186 203 179 124 66 20 57 119 53 139 111 97 173 208 339 918 1023 977 972 956 1095 1049 1046 1161 1351 1772 1769 1563 1460 1610 1504 1453 1479 1517 1644 1789 1739 1472 1501 1504 1236
801 528 437 499 135 104 90 83 204 153 240 136 119 103 76 83 82 69 77 339 241 303 687 1258 1323 1315 1239 1318 1294 1192 1062 1198 1694 1718 1707 1518 1510 1635 1354 1271 1390 1562 1687 1919 1844 1455 1300 1067 1118
986 1053 337 159 114 126 76 67 190 217 365 423 293 96 142 84 68 181 300 537 367 294 690 1245 1296 1388 1383 1489 1586 1342 1079 1334 1739 1627 1620 1579 1414 1272 1127 1174 1265 1499 1697 1766 1646 1279 1217 895 623
1041 211 262 154 118 76 104 84 324 258 236 245 330 113 131 204 128 232 417 518 441 624 640 1148 1325 1536 1855 1700 1570 1386 1168 1389 1561 1369 1471 1464 1139 1156 1145 1057 1060 1180 1226 1345 1395 1158 914 949 829
14 21 128 105 19 16 91 67 303 295 299 265 413 337 338 363 348 348 485 571 609 705 850 1022 1153 1535 1476 1328 1335 1321 1367 1362 1211 1019 1002 1060 1175 1036 1101 1088 1340 1088 976 929 961 1154 978 1003 1212
1 6 17 26 1 1 7 55 220 402 358 257 266 349 419 489 331 475 580 657 768 929 849 914 1160 1242 1087 1042 1249 1308 1145 924 867 691 919 885 1072 318 1257 1136 1077 850 865 1185 962 1179 1211 1278 1391
14 0 1 6 4 0 31 92 111 250 320 252 228 403 519 434 494 629 545 673 747 733 989 944 1009 1109 910 850 956 641 565 448 260 294 630 759 480 812 1145 1396 1123 1067 1036 1197 1181 948 15 614 1214
0 0 0 13 32 6 1 0 0 8 259 298 351 366 594 644 645 524 558 623 616 754 972 1010 1167 1326 958 706 327 248 418 350 471 701 839 1133 1165 939 1068 1171 1330 730 1490 1066 1364 1237 557 794 1206
2 15 0 1 2 5 15 0 0 0 38 334 319 119 195 742 700 610 604 488 533 460 617 674 478 1026 926 834 294 532 778 727 743 853 1179 1376 1076 672 1227 1382 1172 1326 1585 1485 1263 906 901 955 1262
1 25 1 11 34 55 13 0 5 12 236 422 372 174 218 207 631 782 707 595 572 473 696 783 596 824 678 759 311 822 918 1046 956 1044 1554 646 639 1231 1422 1398 1187 1310 1069 1280 1078 1306 1292 1031 1006
7 92 42 3 42 103 32 6 2 29 449 485 438 258 278 128 120 553 458 701 740 715 822 1099 906 1041 883 937 1144 1638 1310 1035 1204 1220 1026 874 1225 1306 1274 1395 1126 1325 1404 1197 1396 1272 986 952 1294
0 0 34 66 10 70 76 0 3 9 249 432 449 363 336 264 135 116 601 684 462 221 589 997 779 1285 1168 1059 1397 1130 1219 674 541 1234 1265 1007 1035 1137 1120 1090 1286 1387 1299 1372 1399 1159 1154 1272 998
0 0 0 0 0 4 40 0 0 3 85 226 260 269 333 304 190 136 475 655 442 185 1037 1110 946 618 367 559 1221 908 691 794 802 1059 1184 1468 1314 1426 1198 852 1056 1439 1360 1321 1003 864 917 407 6
0 0 0 0 0 0 3 9 0 0 36 109 138 145 187 208 229 232 321 585 573 393 848 842 1110 876 743 392 909 1154 501 951 1050 811 1096 784 1470 1383 1244 1038 1382 1524 1245 1145 1019 774 354 2 0
0 0 0 0 3 0 0 13 0 0 0 58 110 55 96 70 157 255 204 383 561 374 749 764 761 1204 1037 1022 1059 1203 949 1320 1158 748 1013 1235 1347 1397 1297 1097 1361 1106 1120 1188 605 531 25 0 0
0 0 0 0 11 0 0 0 0 2 0 0 74 42 74 73 77 168 178 417 449 575 732 632 825 1417 1279 1293 1108 1116 1498 1485 1446 1375 1693 1353 1409 1393 1381 1159 1296 1248 983 635 817 28 0 0 0
0 0 0 0 3 2 3 1 2 0 0 0 0 28 43 71 47 138 187 257 444 517 691 684 662 1202 1476 1300 1219 1375 1102 1140 1207 1104 1039 1112 1397 1505 1055 805 805 1093 1310 743 39 0 0 0 16
0 0 0 0 9 3 15 15 0 0 0 8 6 5 34 52 61 111 168 212 314 458 729 801 807 1170 1563 1618 1494 1277 1154 969 1479 1369 1223 1543 1602 1515 1205 985 1143 1290 793 258 1 0 0 0 21
0 0 0 0 0 0 43 15 30 13 0 7 1 0 2 28 61 80 222 251 282 483 711 807 906 1113 1292 1598 1383 1241 978 1277 1361 1344 1097 1043 1373 1465 1341 1263 1133 564 20 24 0 3 13 0 0
0 0 0 0 0 1 0 0 19 76 67 57 0 0 0 0 22 87 251 227 370 478 677 968 860 1176 1189 1231 1385 984 986 885 1173 826 1064 1371 1588 965 1034 1017 944 194 43 70 0 0 0 52 10
0 0 0 0 0 0 0 1 0 38 87 88 104 41 0 0 0 23 132 324 338 581 907 1164 1058 999 1500 1154 1229 1585 1288 1314 607 634 906 1391 1228 972 1156 1028 427 225 0 50 23 56 0 18 36
0 0 0 0 0 0 1 1 0 26 29 175 150 58 45 0 0 0 110 378 387 589 922 1336 1284 1228 1439 1623 1332 1343 1851 1444 1179 1174 812 838 606 569 627 545 390 192 5 84 39 33 11 1 9
0 0 0 0 0 0 0 0 2 15 25 147 69 8 7 29 0 0 1 204 503 507 941 1714 1670 1529 1752 1717 1587 1493 1609 2112 1252 1223 1071 506 616 545 540 621 452 242 0 252 132 83 50 65 0
0 0 0 0 0 0 0 0 0 0 15 30 21 16 2 2 85 9 9 63 383 521 939 1218 2050 1849 1956 2130 1894 1716 1500 1460 2273 1474 1405 848 381 625 610 587 530 346 7 116 197 108 0 28 0
0 0 0 0 0 0 0 0 0 3 44 19 29 29 26 1 0 74 17 52 326 531 812 1259 2146 2131 2219 1996 2351 2220 1905 1789 1717 2397 1559 1601 943 964 809 740 582 539 127 37 277 176 39 57 72
0 0 0 0 0 0 0 0 0 0 64 47 18 20 14 0 68 84 116 75 355 631 823 1180 1959 2331 2530 2442 2231 2530 2460 2231 1800 1915 2169 1307 1516 990 797 928 753 542 439 252 276 227 36 126 39
0 0 0 0 0 0 0 0 0 0 161 111 41 26 2 0 0 34 273 340 427 684 842 1149 2043 2288 2558 2757 2621 2352 2626 2825 2215 1798 1938 1879 1293 1479 1317 975 902 660 364 376 325 232 76 100 167

GFSSGP_con_mlcape_030.txt.gz
CAPE
235 342 274 1 57 12 9 19 9 6 6 0 0 3 0 6 0 0 0 9 10 21 103 285 455 935 1180 1302 1292 1258 1184 1138 1435 1383 1417 1441 1605 1710 1712 1676 1687 1527 1529 1617 1705 1580 1445 1494 1393
432 364 0 1 37 36 64 40 3 28 9 8 1 2 3 1 1 2 1 0 20 39 146 344 551 927 1116 1185 1168 1389 1310 1269 1461 1430 1706 1743 1817 1741 1645 1588 1542 1547 1611 1618 1616 1605 1545 1480 1163
588 39 0 1 0 33 45 158 106 59 24 8 17 0 0 4 0 1 3 0 4 42 221 660 902 992 1129 1221 1374 1386 1508 1452 1307 1485 1542 1598 1689 1625 1519 1529 1545 1609 1532 1441 1660 1633 1686 1525 1095
429 0 0 49 51 38 106 233 221 155 108 31 0 6 29 64 56 26 69 0 23 88 290 892 930 806 914 1160 1314 1283 1220 1396 1679 1685 1608 1538 1642 1539 1470 1492 1535 1673 1668 1739 1482 1412 1527 1457 1095
677 144 24 103 82 74 127 350 359 155 143 38 4 28 8 24 34 146 184 116 34 129 724 996 1020 991 1051 1151 1194 1182 1147 1382 1717 1703 1554 1504 1643 1483 1309 1389 1504 1678 1702 2000 1572 1267 1117 1221 1146
436 198 22 9 65 87 162 405 281 241 183 40 15 18 24 75 145 134 170 194 101 312 1065 1280 1241 1227 1157 1170 1149 1087 1187 1586 1612 1731 1594 1389 1561 1194 1120 1237 1332 1537 1738 1680 1600 1166 1154 962 876
0 2 22 15 5 192 274 399 294 282 119 81 17 10 68 81 38 253 195 332 208 653 1061 1221 1262 1201 1408 1531 1237 1115 1191 1568 1551 1673 1503 1419 1281 1030 1067 1011 1124 1282 1361 1494 1458 1250 1008 997 886
179 46 35 28 13 89 314 407 357 231 245 154 42 0 38 95 140 399 391 367 238 513 933 987 1238 1377 1367 1569 1367 1118 1159 1398 1519 1355 1236 1134 859 855 1192 1175 1262 1321 1302 1291 1150 1281 1143 1057 1141
35 8 2 0 24 59 296 362 419 381 262 68 359 52 92 142 217 389 444 449 286 436 719 928 1116 1512 1268 1258 1248 1240 1232 1341 1060 740 663 600 716 955 946 1200 1189 1301 1109 1348 985 1139 847 1350 1277
173 3 16 4 1 0 88 316 406 320 296 293 136 249 207 176 282 437 522 570 592 477 572 706 1032 1170 904 1003 1057 931 917 682 339 251 328 574 648 423 800 1290 1048 1335 1140 1448 1044 926 403 212 1033
38 4 3 3 13 7 270 350 346 330 339 260 131 359 393 352 382 532 668 648 717 494 656 704 773 924 396 463 675 440 264 155 77 68 305 679 890 816 1138 1170 1055 853 1162 957 1291 1208 709 886 1022
0 0 3 5 25 0 247 369 384 268 337 250 284 469 390 420 520 633 733 717 708 589 605 605 708 626 210 155 200 51 57 54 48 199 607 856 1048 1196 1046 1040 822 1112 975 1296 1201 917 711 915 1008
0 0 10 7 29 11 4 41 248 320 302 358 518 561 469 500 637 578 655 619 656 762 755 723 831 875 615 284 68 0 131 239 445 479 647 903 978 921 1127 1107 1161 1184 1300 1293 1124 954 913 1045 1084
0 0 9 19 1 14 23 8 0 205 349 368 491 554 489 634 624 515 505 523 668 670 644 706 611 939 715 684 309 58 500 669 626 666 805 1037 697 1127 1124 1223 1023 1368 1115 1124 1235 993 1076 881 1421
0 0 0 7 5 6 0 3 45 408 386 230 116 457 639 668 544 531 475 552 544 400 552 546 492 654 718 687 561 442 989 979 898 908 891 1178 952 1089 873 918 936 968 1191 1255 1055 919 1000 712 312
0 0 0 0 0 1 0 22 310 423 392 234 134 144 226 594 614 617 593 502 429 409 572 722 655 625 689 640 833 1096 822 530 695 930 986 924 896 1068 1095 884 805 1279 1377 1240 898 745 440 5 0
0 0 0 0 0 1 8 5 254 463 456 390 279 188 217 83 164 514 612 511 469 471 619 844 814 855 700 879 1127 788 669 518 770 920 983 947 1123 1191 1021 847 1104 1196 1243 1076 926 616 182 0 0
0 0 0 0 0 0 8 5 57 508 468 430 424 292 201 150 134 108 515 441 401 294 585 744 747 782 833 881 798 706 561 507 1081 770 807 861 1065 1242 1113 769 1036 1108 828 978 476 425 3 0 0
0 0 0 0 0 6 15 0 0 271 299 364 376 356 272 161 194 101 457 445 383 221 563 737 770 633 428 442 373 338 289 443 936 963 790 951 1061 1235 1071 855 1099 1068 942 774 483 31 0 0 0
0 0 0 0 0 0 9 1 0 20 108 133 201 233 218 160 149 163 221 435 430 313 638 688 759 741 617 739 585 575 508 754 828 1025 1182 1253 1084 1218 1068 863 865 1030 987 569 98 0 0 0 0
0 0 0 0 0 0 10 12 0 0 6 31 73 111 147 79 62 115 148 297 414 275 555 551 656 879 813 928 915 850 749 1027 1183 1098 1094 1029 1171 1232 1124 758 589 850 813 323 4 0 0 0 0
0 0 0 0 0 0 3 0 0 0 0 0 6 49 88 61 29 40 114 194 289 323 367 411 530 923 982 1072 1061 904 874 798 692 798 1164 908 1066 1237 1203 853 661 573 653 102 4 0 0 0 0
0 0 0 0 0 0 0 0 0 13 0 0 0 41 55 49 42 8 65 93 222 263 388 457 469 909 1058 1119 1123 964 887 827 481 760 1313 1044 1169 1263 1136 951 780 297 167 16 0 0 5 0 0
0 0 0 0 0 0 0 0 0 0 1 0 0 0 31 22 21 2 45 57 101 263 417 518 566 816 1023 1152 1166 1087 987 816 489 906 969 1035 1153 1130 978 996 679 129 0 0 0 0 0 1 0
0 0 0 0 0 0 0 0 0 0 0 4 0 0 0 0 0 1 12 44 63 204 406 608 640 811 980 1181 1143 1083 999 730 589 587 885 817 930 976 728 934 528 95 5 0 0 0 0 0 0
0 0 0 0 0 0 0 0 0 0 0 0 5 0 0 0 0 1 9 38 51 172 453 721 676 764 953 954 1163 1165 1074 808 1000 928 827 727 845 967 736 753 404 110 22 0 0 0 0 0 0
0 0 0 0 0 0 0 0 0 0 0 0 27 11 1 0 0 2 27 52 75 227 488 709 754 723 1018 1005 906 1004 1203 1173 1239 1189 930 890 760 580 595 536 288 98 31 2 43 7 0 0 0
0 0 0 0 0 0 0 0 0 0 0 3 41 43 16 0 0 0 0 25 120 157 449 829 914 808 895 1170 1178 1166 1044 1104 1456 1480 1291 722 501 470 398 396 257 153 66 35 32 13 14 0 0
0 0 0 0 0 0 0 0 0 0 0 0 4 59 82 18 2 0 0 2 95 246 521 1033 1127 1035 1144 1257 1345 1366 1376 1159 1060 1697 1746 1326 712 581 391 476 369 266 200 35 29 21 42 4 0
0 0 0 0 0 0 0 0 0 0 0 0 0 42 54 30 15 1 15 2 42 297 450 884 1490 1340 1373 1537 1565 1489 1546 1586 1269 1079 1554 1789 1345 729 574 568 548 429 330 186 16 25 41 19 0

GFSSGP_con_mlcape_033.txt.gz
CAPE
322 337 162 1 42 47 20 1 0 0 0 2 1 0 0 0 0 0 0 7 32 36 83 170 500 888 1172 1332 1386 1339 1331 1283 1270 1205 1451 1484 1524 1634 1630 1685 1498 1449 1569 1638 1678 1482 1424 1021 1105
364 298 0 0 0 1 10 9 12 5 0 1 7 7 0 0 0 0 0 0 13 64 190 274 810 951 1165 1264 1294 1438 1556 1593 1539 1470 1707 1770 1727 1666 1604 1512 1491 1505 1569 1487 1570 1562 1436 1394 1131
510 130 0 0 0 15 40 43 10 11 14 24 1 0 0 2 3 2 0 0 13 95 314 568 912 1014 1085 1231 1370 1520 1734 1670 1501 1717 1739 1645 1619 1497 1466 1445 1554 1495 1544 1792 1491 1603 1552 1433 1187
177 5 0 80 59 52 72 166 59 38 76 22 0 0 15 3 0 2 0 0 2 121 442 780 1052 1010 1066 1205 1429 1604 1631 1525 1565 1466 1531 1636 1514 1449 1470 1526 1651 1580 1865 1631 1190 1260 1440 1435 1305
590 116 94 17 20 48 65 180 106 95 86 29 12 11 19 54 12 0 0 0 4 163 628 791 952 1068 1198 1264 1266 1267 1407 1553 1668 1577 1486 1633 1509 1449 1485 1529 1714 1683 1794 1702 1430 1189 1086 1318 1222
48 1 3 21 66 79 149 270 233 141 83 47 15 0 46 72 6 2 8 1 81 183 662 843 962 1068 1164 1194 1260 1208 1267 1640 1705 1552 1496 1594 1575 1386 1318 1454 1583 1706 1786 1548 1445 1073 1102 925 1014
0 7 3 6 98 193 219 327 225 84 16 26 16 0 83 77 90 118 107 47 133 516 709 946 938 933 1072 1199 1175 1183 1437 1616 1695 1613 1497 1447 1497 1246 1253 1218 1270 1379 1432 1527 1371 1075 968 949 949
2 17 2 18 103 309 417 326 285 56 61 79 22 0 22 169 194 178 160 84 229 594 726 795 959 981 1170 1294 1153 1161 1402 1647 1564 1520 1415 1302 1311 1233 1368 1249 1240 1369 1314 1353 1169 1034 974 1039 1090
148 20 0 2 122 302 486 429 353 297 107 49 135 20 56 138 243 212 247 158 281 601 740 859 878 1138 1275 1246 1128 1177 1268 1522 1390 1279 1236 1308 1040 986 1148 1225 1181 1041 1324 1208 1141 1124 861 1240 1272
114 15 0 4 77 186 502 448 308 254 49 87 188 69 112 232 323 257 313 205 182 413 749 903 971 1186 1219 1180 1048 1030 956 1224 1128 757 658 839 664 694 495 988 1007 1122 1108 1155 1128 1041 543 497 1051
118 36 1 5 0 183 434 426 392 228 50 182 0 36 171 277 418 376 416 267 118 241 546 748 867 1056 922 886 797 756 701 712 562 289 240 417 669 655 877 1021 1004 910 1108 985 1230 1180 673 718 918
3 0 0 0 4 232 388 444 384 206 142 161 31 73 177 279 399 451 482 468 211 241 299 545 856 1077 736 552 429 391 299 260 128 79 87 322 708 933 1004 821 905 873 833 939 1002 939 662 838 880
1 0 0 0 9 143 405 448 368 302 396 251 217 143 173 266 389 489 524 557 494 327 333 472 622 804 348 92 154 173 102 107 30 0 87 523 802 981 877 951 919 876 1151 1140 1125 813 837 820 1037
0 0 0 0 0 138 426 474 414 417 420 333 236 248 261 283 389 477 590 615 631 490 397 489 492 470 249 0 0 0 13 2 38 96 322 608 768 838 992 861 1022 1065 836 1123 996 860 732 738 1296
0 0 0 0 0 9 138 157 336 389 372 395 335 324 365 360 425 556 615 628 606 544 438 506 454 490 267 50 0 0 0 11 352 482 590 717 863 932 1003 930 922 1032 1025 1010 1114 872 854 434 181
0 0 0 0 0 0 0 0 98 272 441 484 453 427 417 417 550 550 584 594 540 584 550 561 519 465 566 390 267 254 149 352 726 790 792 814 903 901 895 763 732 884 1175 1133 821 659 210 0 0
0 0 0 0 0 0 0 0 46 274 404 518 494 498 498 471 595 556 519 494 499 515 438 477 499 337 548 534 569 559 790 647 649 692 799 905 1015 979 1071 790 658 891 1158 1095 873 573 198 0 0
0 0 0 0 0 0 0 0 148 351 334 388 501 537 543 561 583 559 507 422 425 370 316 340 421 392 358 552 600 506 799 520 594 662 796 853 1003 934 1107 874 886 1039 1015 924 531 326 0 0 0
0 0 0 0 0 0 0 0 47 275 287 242 229 322 415 531 620 548 539 498 406 335 269 356 460 527 426 464 591 731 733 568 553 824 837 835 987 1094 1133 846 832 771 797 749 445 115 0 0 0
0 0 0 0 0 0 0 0 77 220 305 262 217 164 190 171 199 311 420 537 484 353 240 330 525 596 611 474 638 875 740 596 469 548 814 790 943 1022 1054 881 860 927 907 582 507 50 0 0 0
0 0 0 0 0 0 0 0 33 240 372 384 318 234 166 131 128 68 229 419 485 302 245 414 503 504 624 550 580 698 498 428 383 522 848 977 1055 1124 1095 962 779 860 921 563 136 1 0 0 0
0 0 0 0 0 0 0 0 0 44 233 297 310 284 239 120 102 92 75 215 314 249 282 355 448 505 488 467 518 419 376 346 319 606 661 777 1055 1080 1079 971 753 579 640 551 67 0 0 0 0
0 0 0 0 0 0 0 0 0 0 3 62 126 149 139 131 104 85 31 114 190 227 266 282 275 449 545 549 547 532 578 503 388 465 851 969 967 1001 1085 995 762 506 523 352 27 0 0 0 0
0 0 0 0 0 0 0 0 0 0 0 0 0 55 50 43 67 63 41 45 178 253 178 354 308 519 609 565 622 676 686 640 495 472 554 520 997 1033 1036 1106 754 423 402 237 64 1 0 0 0
0 0 0 0 0 0 0 0 0 0 0 0 0 0 7 6 11 20 19 37 92 228 227 344 337 523 672 666 704 725 724 655 606 571 388 752 939 960 1068 1095 686 447 157 79 3 0 0 0 0
0 0 0 0 0 0 0 0 0 0 0 0 0 0 0 0 0 4 3 1 31 98 182 293 352 458 746 786 752 783 774 705 659 655 440 533 821 851 1018 1043 645 340 68 12 0 0 0 0 0
0 0 0 0 0 0 0 0 0 0 0 0 0 0 0 0 0 2 14 0 10 22 117 265 386 443 699 784 806 773 790 803 747 667 494 486 766 877 808 953 628 399 77 19 0 0 0 0 0
0 0 0 0 0 0 0 0 0 0 0 0 0 0 0 0 0 1 1 0 1 17 63 199 402 460 595 761 825 811 801 851 844 773 585 613 802 812 683 771 558 398 131 43 10 0 0 0 0
0 0 0 0 0 0 0 0 0 0 0 0 0 0 0 0 0 0 8 2 1 21 30 192 439 520 626 776 814 887 929 1024 1018 942 708 670 839 671 643 764 553 386 151 70 29 1 0 0 0
0 0 0 0 0 0 0 0 0 0 0 0 0 0 0 0 0 0 1 3 5 21 44 231 472 575 573 804 823 764 794 897 989 1105 999 830 800 797 620 587 448 355 188 65 67 54 2 0 0

GFSSGP_con_mlcape_036.txt.gz
CAPE
315 335 158 24 59 32 24 26 0 4 2 19 1 0 0 0 0 6 6 17 4 0 133 273 627 800 858 1218 1221 1316 1273 1319 1519 1738 1587 1560 1570 1587 1599 1493 1423 1471 1585 1670 1466 1554 1307 1309 856
298 241 5 0 8 19 5 27 10 2 9 4 1 0 3 0 0 2 3 7 6 6 44 116 843 1123 1231 1356 1398 1348 1372 1375 1380 1500 1620 1655 1656 1693 1503 1442 1338 1620 1449 1541 1518 1485 1431 1166 945
351 159 0 0 6 25 37 42 43 14 21 11 0 1 0 3 3 1 0 22 44 42 87 280 959 1219 1143 1176 1437 1491 1451 1449 1541 1758 1792 1676 1582 1506 1423 1420 1415 1490 1681 1517 1624 1622 1499 1299 1088
253 0 44 89 15 72 47 105 49 52 35 24 0 0 6 6 0 0 8 49 92 166 272 974 1062 1137 1103 1194 1520 1712 1554 1585 1625 1651 1636 1569 1486 1438 1436 1574 1640 1699 1874 1404 1289 1448 1476 1214 1060
582 153 34 30 36 81 76 149 60 62 33 24 8 0 1 44 15 8 15 56 89 190 564 1039 1079 1058 1136 1299 1549 1689 1602 1511 1326 1491 1609 1520 1379 1423 1516 1620 1758 1746 1922 1637 1353 1152 1173 1163 1038
36 37 51 56 10 52 171 150 134 90 46 25 0 0 30 42 10 7 9 17 145 348 696 1023 1050 1170 1220 1242 1422 1488 1517 1481 1544 1451 1618 1495 1343 1389 1429 1532 1681 1758 1799 1687 1309 1084 928 849 969
1 0 18 21 32 90 154 223 165 59 38 29 17 3 21 40 39 16 14 42 166 551 578 793 936 1151 1273 1261 1249 1238 1427 1511 1602 1508 1523 1383 1403 1338 1386 1389 1412 1518 1505 1520 1258 913 793 788 925
0 1 16 16 29 131 281 280 165 27 67 49 37 4 0 28 44 64 48 68 180 425 434 542 737 921 1076 1217 1220 1249 1415 1509 1708 1714 1439 1344 1517 1489 1545 1492 1237 1612 1440 1315 1103 850 891 982 1098
85 34 10 6 13 178 373 294 198 147 74 49 58 22 28 79 102 95 55 74 163 353 427 576 686 820 1007 1047 1097 1225 1369 1589 1669 1645 1522 1425 1223 1070 1290 1224 1120 1323 1023 1001 817 994 937 1106 987
321 39 26 1 9 158 369 336 243 188 68 85 74 45 61 163 119 70 34 26 65 208 403 601 633 728 928 1068 918 1014 1002 1308 1441 1251 1032 1203 942 740 868 820 1193 1128 1055 1197 797 920 545 863 929
379 41 33 0 0 214 374 404 288 220 22 37 51 32 106 148 131 92 62 1 23 180 461 698 618 813 815 983 813 895 686 833 961 794 583 551 719 677 665 969 896 934 1024 1060 972 980 651 685 677
79 22 72 1 0 69 288 435 323 203 57 51 89 51 148 156 157 179 165 120 103 250 340 605 677 805 995 978 746 622 447 460 478 398 205 161 258 515 786 828 880 847 878 822 837 890 655 837 896
4 0 0 0 8 45 328 407 351 292 170 138 99 129 133 231 228 226 223 197 92 139 331 538 720 801 796 678 541 359 255 224 181 132 51 69 370 738 857 969 934 821 918 1052 966 825 773 791 960
0 0 0 0 0 55 232 365 380 398 248 137 73 88 158 218 254 276 331 323 166 104 176 394 507 577 658 435 212 41 111 83 104 65 0 15 436 715 765 783 921 966 901 1119 1051 848 658 701 1141
0 0 0 0 0 9 241 336 393 407 300 165 105 104 147 183 298 283 363 417 386 190 190 285 308 458 533 350 81 0 0 0 2 19 30 161 539 688 734 869 838 879 1063 973 1038 840 684 204 52
0 0 0 0 0 24 186 81 349 404 351 280 133 105 116 182 282 322 384 437 511 399 284 275 394 363 291 196 0 0 0 0 0 67 225 463 638 700 810 825 899 830 976 1035 874 596 202 0 0
0 0 0 0 0 0 96 5 36 363 349 361 201 139 120 161 259 347 399 463 533 502 457 349 334 308 235 144 29 0 0 0 22 179 542 688 744 761 773 761 761 734 1035 998 836 574 253 4 0
0 0 0 0 0 0 0 0 0 163 321 362 330 197 193 215 197 331 449 508 500 490 520 371 313 288 205 154 117 109 160 335 484 532 703 717 790 867 918 922 751 834 863 934 698 307 0 0 0
0 0 0 0 0 0 0 0 0 131 265 321 407 294 243 252 277 380 441 452 436 474 405 398 340 266 210 190 149 232 409 482 568 432 580 633 703 855 933 869 763 753 799 778 519 130 0 0 0
0 0 0 0 0 0 0 0 0 100 110 183 384 376 297 322 324 414 462 383 338 394 340 349 328 308 259 197 273 381 388 343 694 516 587 689 704 880 912 882 767 695 639 650 473 108 3 0 0
0 0 0 0 0 0 0 0 0 137 194 239 269 371 374 350 351 392 424 393 339 329 281 268 317 243 338 280 210 298 409 461 611 506 561 676 731 820 956 1006 794 712 708 683 346 73 0 0 0
0 0 0 0 0 0 0 0 0 6 96 164 128 151 266 260 330 300 372 325 379 333 235 204 254 303 304 361 303 294 386 524 674 615 517 514 787 768 932 942 826 742 664 668 301 19 0 0 0
0 0 0 0 0 0 0 0 0 0 10 94 179 184 134 106 116 68 51 286 270 363 256 163 194 277 269 358 435 411 437 419 382 439 318 474 691 903 1039 1009 865 740 518 456 311 33 0 0 0
0 0 0 0 0 0 0 0 0 0 0 21 120 193 201 130 68 55 6 28 168 268 209 138 210 268 288 310 417 440 433 321 293 230 372 371 618 778 901 919 855 739 557 376 237 26 0 0 0
0 0 0 0 0 0 0 0 0 0 0 0 0 47 110 172 130 91 39 8 61 115 176 128 205 275 308 296 325 411 424 338 323 351 424 295 437 588 655 1011 865 708 467 325 130 36 0 0 0
0 0 0 0 0 0 0 0 0 0 0 0 0 7 18 23 60 89 88 14 3 50 95 109 172 209 294 343 328 388 445 443 398 441 450 419 368 368 799 908 817 792 434 265 114 27 0 0 0
0 0 0 0 0 0 0 0 0 0 0 0 0 0 0 0 0 11 32 39 2 12 75 74 149 149 221 343 341 408 484 513 473 493 489 465 512 438 833 905 857 780 450 221 72 14 0 0 0
0 0 0 0 0 0 0 0 0 0 0 0 0 0 0 0 0 0 0 0 0 0 45 88 121 168 201 377 464 483 512 524 537 533 524 519 558 541 602 745 856 724 434 244 73 15 0 0 0
0 0 0 0 0 0 0 0 0 0 0 0 0 0 0 0 0 0 1 7 4 0 11 53 93 166 204 446 567 607 595 621 593 570 552 543 594 591 529 698 763 687 525 266 145 55 6 0 0
0 0 0 0 0 0 0 0 0 0 0 0 0 0 0 0 0 0 0 3 2 0 2 16 52 175 247 370 597 665 663 697 619 596 624 612 633 564 565 658 742 575 534 347 312 177 50 0 0

GFSSGP_con_mlcape_039.txt.gz
CAPE
188 271 93 113 115 57 24 49 23 21 7 17 0 2 15 4 6 9 13 44 46 111 209 226 493 976 1307 1448 1509 1284 1188 1437 1695 1531 1564 1725 1565 1592 1557 1508 1527 1581 1480 1498 1371 1323 1387 1256 1068
334 259 60 1 43 25 34 21 28 27 32 11 4 8 16 9 15 15 27 15 120 250 311 381 667 1014 1327 1404 1299 1338 1352 1636 1696 1632 1557 1448 1676 1606 1518 1480 1715 1417 1470 1413 1422 1449 1310 1147 808
368 165 0 17 28 40 63 29 45 43 35 13 13 5 9 9 23 21 19 31 45 161 285 639 763 1134 1231 1369 1439 1456 1406 1550 1650 1661 1544 1595 1589 1501 1480 1523 1526 1510 1439 1489 1593 1493 1356 1187 1033
459 37 38 114 56 92 54 100 65 64 40 11 0 5 3 16 8 22 78 40 30 89 241 1050 1277 1275 1242 1450 1524 1466 1449 1686 1736 1642 1593 1520 1526 1485 1600 1665 1578 1780 1557 1291 1412 1481 1230 1110 938
417 268 56 83 50 94 89 154 103 60 36 29 3 0 7 90 49 78 107 69 77 169 450 813 1260 1198 1255 1634 1655 1486 1603 1601 1587 1660 1622 1514 1491 1530 1624 1711 1587 1706 1768 1499 1280 1208 1193 962 805
130 74 54 91 50 32 229 127 98 77 70 28 7 2 39 119 46 89 120 169 180 289 457 658 1126 1225 1333 1542 1725 1619 1537 1383 1486 1708 1722 1610 1528 1484 1556 1616 1691 1808 1719 1630 1105 1014 873 906 991
85 61 58 34 40 122 223 166 175 124 47 15 0 12 13 83 61 98 154 249 255 450 559 644 699 1086 1293 1475 1563 1532 1549 1556 1573 1599 1756 1702 1506 1408 1474 1369 1424 1563 1578 1505 1057 804 821 835 965
14 31 73 58 76 198 349 248 183 76 33 0 25 4 1 88 65 82 132 268 371 492 757 823 781 849 954 1087 1301 1342 1599 1507 1710 1639 1555 1447 1443 1524 1600 1516 1145 1440 1295 1149 985 849 921 1037 1232
111 97 53 42 44 211 449 321 135 84 39 40 58 36 40 91 70 95 125 204 433 513 497 639 656 1006 1106 1127 1056 1317 1502 1504 1690 1601 1431 1122 1595 1576 1603 1179 1342 1247 1062 866 868 976 801 1100 1289
447 203 81 44 6 113 520 453 234 118 49 41 104 57 82 94 108 94 121 159 203 319 408 493 447 560 896 746 1103 1164 1019 959 1323 1498 1676 1546 1603 1491 1353 1232 1220 1116 1097 1187 855 816 512 954 1370
441 197 63 7 7 182 466 498 324 190 62 83 108 79 108 116 122 96 112 132 125 160 193 296 467 693 687 626 838 1015 752 925 1235 1649 1399 1214 1350 1381 1409 1538 1512 1631 1206 1091 1387 1359 1117 1442 1435
39 166 180 86 7 73 399 554 411 214 84 63 162 117 137 158 149 113 99 108 118 224 264 363 477 717 773 744 699 722 601 682 798 904 1010 811 764 1117 1420 1581 1590 1601 1621 932 1002 1365 1309 1516 1674
17 76 19 22 0 0 310 431 522 343 180 185 267 147 171 182 157 77 60 75 120 224 310 578 593 704 827 883 781 666 717 413 477 761 595 443 653 1226 1548 1385 1515 1629 1435 1115 951 1086 1416 1424 1514
0 0 0 0 0 39 131 309 473 512 279 252 196 140 147 130 139 135 174 140 158 255 318 559 693 744 914 994 1137 866 679 513 595 427 247 217 359 1234 1439 1483 1560 1747 1733 1593 1409 682 677 473 1112
0 0 0 0 0 0 210 318 281 456 375 321 184 173 176 148 156 218 304 371 305 263 443 588 669 759 933 1013 970 855 427 373 179 164 209 146 328 1013 1341 1425 1466 1642 1607 1118 916 1128 1026 771 345
0 0 0 0 0 3 115 15 216 495 444 342 170 202 251 231 250 294 336 410 364 234 329 541 523 626 802 786 739 485 269 143 112 98 216 319 588 1184 1401 1451 1533 1623 1191 851 1293 1227 771 224 0
0 0 0 0 0 13 95 3 26 500 515 426 180 162 189 228 321 364 373 473 553 528 394 405 521 445 581 696 704 429 136 29 49 76 44 408 922 1206 1335 1356 1508 1460 1358 1113 1430 1160 878 240 3
0 0 0 0 0 0 24 19 2 408 558 515 327 188 151 168 182 292 400 485 619 737 724 508 542 620 677 574 568 372 84 1 62 203 531 840 1222 1344 1431 1354 1206 1372 1347 1030 1293 988 71 0 0
0 0 0 0 0 0 0 0 0 60 359 612 485 244 156 116 180 307 421 503 615 746 810 659 592 664 650 492 217 102 0 48 430 927 1148 1220 1350 1393 1523 1473 1051 1517 1298 1427 1207 734 254 0 0
0 0 0 0 0 0 0 0 0 1 67 329 574 428 307 185 221 346 427 537 633 729 788 817 751 687 497 551 438 270 207 409 790 1173 1139 1171 1271 1351 1461 1442 1463 1495 1379 1232 1145 605 234 0 0
0 0 0 0 0 0 0 0 0 8 175 321 527 546 483 398 303 351 437 557 635 725 739 771 731 770 536 571 594 609 689 817 795 907 1195 1103 1200 1377 1338 1191 1043 1511 1296 1251 1336 775 317 78 0
0 0 0 0 0 0 0 0 0 0 0 201 380 539 556 543 472 458 435 604 642 698 767 749 764 796 725 705 541 394 221 525 672 746 1109 1088 1184 1315 1469 1424 1347 1542 1407 1283 1148 645 270 2 0
0 0 0 0 0 0 0 0 0 0 0 50 308 406 487 528 491 504 532 509 588 664 678 749 663 696 704 739 605 456 423 633 861 959 1069 1204 1177 1276 1403 1579 1517 1486 1423 1394 1136 501 184 0 0
0 0 0 0 0 0 0 0 0 0 0 0 237 338 327 453 439 556 606 616 579 576 606 596 634 624 679 700 636 642 644 664 827 911 892 1039 1124 1072 1374 1652 1709 1571 1467 1281 983 733 376 8 0
0 0 0 0 0 0 0 0 0 0 0 0 0 176 285 246 242 364 452 478 676 597 606 593 554 562 679 674 720 692 655 839 865 844 840 870 808 941 1284 1468 1542 1471 1417 1318 999 651 326 137 0
0 0 0 0 0 0 0 0 0 0 0 0 0 5 192 321 231 193 293 274 229 532 587 626 521 518 623 677 713 754 781 878 940 964 870 868 861 870 1115 1372 1432 1431 1375 1267 887 610 363 234 42
0 0 0 0 0 0 0 0 0 0 0 0 0 0 25 197 314 304 282 260 185 186 440 565 525 485 598 637 688 730 803 787 817 920 1005 893 1038 1069 1073 1186 1255 1562 1345 1201 890 660 419 165 38
0 0 0 0 0 0 0 0 0 0 0 0 0 0 0 4 90 243 379 376 289 196 285 459 490 472 503 594 665 728 777 821 856 982 922 941 1024 1085 1055 1072 1362 1491 1307 1262 937 674 449 151 54
0 0 0 0 0 0 0 0 0 0 0 0 0 0 0 0 0 5 199 352 393 321 179 371 452 458 548 630 683 728 809 908 936 965 968 1032 1050 1102 1200 1177 1240 1389 1282 1249 1070 688 449 231 139
0 0 0 0 0 0 0 0 0 0 0 0 0 0 0 0 0 0 0 95 194 329 265 267 469 510 537 582 688 761 859 954 944 911 995 1067 1007 1127 1199 1215 1177 1293 1251 1217 1155 888 540 415 275

GFSSGP_con_mlcape_042.txt.gz
CAPE
64 42 86 148 263 255 71 72 23 17 20 33 30 30 63 21 55 3 6 6 0 3 342 487 835 1232 1692 1823 1790 1522 1571 1483 1566 1624 1674 1787 1622 1596 1584 1523 1625 1555 1514 1434 1433 1444 1291 1251 1284
240 293 225 105 333 51 40 54 54 79 101 68 38 30 77 14 68 30 111 50 2 206 374 599 901 1347 1666 1761 1579 1516 1482 1669 1648 1756 1749 1716 1580 1587 1537 1623 1400 1498 1478 1287 1498 1426 1323 1064 980
409 195 115 323 205 113 93 85 146 141 106 91 69 95 144 22 91 36 21 45 236 289 419 733 1136 1403 1569 1476 1399 1543 1645 1742 1730 1737 1758 1755 1558 1487 1555 1350 1544 1253 1498 1767 1553 1469 1326 1190 1072
319 242 114 650 141 158 138 163 192 210 157 97 101 115 17 68 81 73 110 230 304 406 628 609 1083 1402 1393 1476 1517 1505 1649 1723 1862 1733 1607 1537 1518 1603 1678 1739 1671 1665 1359 1401 1510 1461 1340 1204 879
510 492 441 341 117 206 216 274 224 197 166 113 90 30 9 51 128 99 143 202 344 368 590 691 1175 1352 1483 1519 1516 1558 1754 1911 1766 1623 1513 1511 1507 1635 1654 1710 1423 1862 1561 1393 1315 1350 1102 1000 824
734 228 293 124 33 94 358 338 209 182 184 157 135 58 134 166 177 169 219 161 250 263 411 625 1093 1360 1620 1621 1604 1635 1700 1696 1725 1689 1594 1556 1563 1589 1620 1577 1702 1825 1665 1345 1179 1061 1001 1083 1069
598 278 141 69 34 40 345 341 298 193 232 155 152 312 242 187 210 230 198 152 204 233 238 334 607 1068 1557 1883 1684 1639 1588 1528 1675 1747 1729 1642 1464 1427 1489 1325 1490 1557 1564 1414 1177 995 998 1127 1263
341 176 167 114 107 91 445 431 411 132 208 142 162 176 231 217 217 271 304 252 251 256 192 267 490 668 838 1176 1577 1626 1664 1662 1685 1667 1562 1430 1208 1296 1326 1385 1021 1388 1251 1277 1129 1144 1219 1284 1299
288 261 195 116 133 329 553 536 356 120 163 155 138 191 287 238 255 300 289 240 344 234 158 172 345 571 624 608 810 1303 1535 1623 1652 1341 1319 995 1572 1685 1552 655 1337 1206 1017 995 1021 764 1101 1194 1134
240 363 184 82 68 275 642 599 431 197 164 169 211 172 272 216 294 376 417 407 470 214 141 137 199 353 606 449 815 815 504 451 807 1299 1419 1550 1801 1813 1560 1142 1126 1247 1005 939 736 834 520 1007 1288
118 242 169 58 39 262 607 670 535 240 95 174 280 229 266 248 327 392 402 439 466 251 137 127 151 383 481 300 653 682 442 656 1070 1659 1693 1674 1680 1839 1678 1567 1485 1643 1052 1296 1254 1314 1126 1069 1059
89 50 312 130 25 67 510 702 675 346 151 112 367 276 287 292 338 366 377 376 415 413 279 205 287 406 446 333 436 485 145 388 516 808 1436 1381 1370 1625 1852 1573 1512 1680 1147 1235 1228 1179 1112 1230 1059
64 2 40 101 16 6 203 584 545 546 199 158 425 334 332 355 391 369 370 343 358 392 348 394 516 681 655 641 349 247 158 92 196 599 777 935 1205 1622 1825 1861 1708 1609 1580 1181 1182 1369 1096 692 581
0 0 0 0 7 0 80 327 571 646 489 335 391 375 380 417 457 437 383 319 309 274 244 326 428 573 703 706 712 631 463 138 263 236 392 903 1140 1568 1064 1382 1440 1530 1629 1351 1055 1030 834 662 760
0 0 0 0 0 0 62 208 504 717 668 615 486 444 394 415 443 440 411 300 280 269 318 393 588 581 820 858 958 919 292 173 82 46 384 692 965 1384 1401 1569 1353 1298 1161 1368 1087 921 781 941 741
0 0 0 0 0 0 4 109 443 743 820 798 624 466 320 361 353 310 208 188 197 235 351 522 529 565 872 894 1020 668 228 73 15 5 307 696 951 1510 1930 1535 1518 1713 1217 1083 1165 995 1089 645 12
0 0 0 0 0 0 11 62 132 685 772 854 785 475 303 277 262 220 247 272 284 319 419 597 619 433 667 878 839 600 254 203 0 85 464 864 1171 1689 2040 1488 1528 1604 1529 950 1097 1110 985 591 173
0 0 0 0 0 2 72 51 32 353 529 752 837 592 454 274 216 210 257 279 359 369 415 574 626 611 776 750 875 455 176 52 0 96 382 610 1226 1834 2134 1711 1566 2173 1523 1042 1129 1147 497 147 89
0 0 0 0 0 0 1 33 41 44 356 416 773 725 635 449 249 220 274 233 261 390 477 598 611 729 765 678 478 191 16 0 0 143 623 1465 2052 2030 2161 1548 2071 1782 1623 1340 1235 1109 836 129 33
0 0 0 0 0 0 0 0 0 1 84 238 560 717 688 548 329 281 299 260 289 440 647 892 832 960 1136 827 530 109 7 0 24 472 1228 1979 2039 2225 2092 1497 1610 1761 1445 1630 1526 1313 273 146 33
0 0 0 0 0 0 0 0 0 0 0 48 244 604 651 640 463 329 250 280 241 400 754 1032 1157 1105 1304 996 732 561 193 217 266 772 1394 1816 1906 1974 2158 1972 1537 1638 1448 1184 1652 1561 811 81 0
0 0 0 0 0 0 0 0 0 0 3 51 98 439 671 650 588 439 264 249 319 513 870 1124 1450 1574 1562 1278 580 675 189 74 326 745 866 1135 1734 1709 1771 2209 1452 1795 1480 1505 1632 1377 959 537 0
0 0 0 0 0 0 0 0 0 0 0 26 156 235 621 673 689 587 436 217 219 448 755 1070 1433 1740 1672 1513 929 801 654 49 586 697 985 1330 1439 1803 1621 1781 1989 2096 2008 1849 2003 1567 1326 587 6
0 0 0 0 0 0 0 0 0 0 0 0 52 158 495 614 661 766 673 287 349 411 690 1033 1468 1901 1860 1690 1493 1236 926 375 683 1103 1167 1184 1187 1162 1707 1604 1730 1861 2078 2081 2153 1857 1486 998 193
0 0 0 0 0 0 0 0 0 0 0 0 0 69 305 646 632 723 777 696 377 435 665 984 1547 1948 1946 1761 1671 1551 1338 1179 1199 1457 1367 1153 840 929 1184 1768 1673 1924 2346 1995 2173 2047 1386 1307 668
0 0 0 0 0 0 0 0 0 0 0 0 0 0 188 449 588 636 784 868 801 610 736 1028 1479 1852 1927 1824 1839 1917 1913 1282 1299 1503 1323 1230 888 743 930 1410 1764 2114 2070 2255 2275 1927 1491 1158 1135
0 0 0 0 0 0 0 0 0 0 0 0 0 0 0 175 470 596 738 844 1000 1038 1078 1244 1531 1793 1853 1794 2032 2009 2011 1709 1210 1397 1955 1458 1393 887 1146 1354 1873 1904 1988 2266 2218 1784 1457 1066 1255
0 0 0 0 0 0 0 0 0 0 0 0 0 0 0 1 306 504 572 699 830 1009 1223 1443 1721 1762 1675 1681 1916 1895 1978 2020 1859 1897 1859 1807 1670 1516 1059 1605 1648 1863 1979 2384 2238 1715 1408 1316 1014
0 0 0 0 0 0 0 0 0 0 0 0 0 0 0 4 171 482 641 636 723 852 928 1410 1726 1859 1767 1681 1802 1843 1895 1905 2026 1822 2021 2099 1985 2015 1842 1706 1767 1682 2146 2352 2271 1871 1382 1426 1129
0 0 0 0 0 0 0 0 0 0 0 0 0 0 0 0 4 121 202 425 609 818 903 962 1306 1585 1651 1693 1917 1758 1834 1929 1829 1987 2000 2105 2107 2254 2189 2149 2034 1672 1879 2235 2301 2072 1463 1485 1233

GFSSGP_con_mlcape_048.txt.gz
CAPE
1 0 50 73 73 157 10 60 44 64 26 3 29 30 201 250 32 2 0 0 0 136 282 923 1373 1663 1431 1180 1202 1484 1563 1580 1346 1660 1331 1613 1752 1639 1659 1604 1544 1534 1559 1578 1324 1213 1065 1124 1095
10 22 85 172 228 57 58 101 129 72 78 109 130 171 343 56 0 2 0 0 5 69 337 842 1355 1574 1457 1464 1475 1527 1483 1384 1459 1144 1389 1611 1668 1337 1444 1685 1559 1449 1605 1474 1403 1259 1062 1123 1115
97 122 449 293 149 10 57 132 102 111 76 168 257 321 497 117 1 0 0 0 37 138 477 1088 1421 1379 1384 1550 1519 1434 1403 1568 1375 1654 1398 1399 1357 1540 1550 1161 1593 1763 1590 1570 1364 1302 1187 1148 1167
448 435 400 67 46 127 158 112 103 160 149 250 237 374 176 18 3 0 0 0 114 398 712 1105 1504 1686 1517 1548 1536 1484 1510 1407 1704 1363 1437 1580 1565 1655 1721 1593 1266 1298 1372 1381 1389 1300 1199 1038 1043
448 689 419 29 231 197 170 285 157 154 262 316 358 286 142 90 60 0 0 1 260 554 740 1089 1396 1464 1499 1483 1589 1502 1643 1437 1370 1381 1422 1434 1668 1854 1582 1780 1417 1304 1324 1325 1325 1315 1213 1059 975
555 373 1 42 51 110 125 277 286 215 428 469 365 267 274 86 0 0 14 98 223 462 442 849 1341 1342 1345 1381 1512 1661 1615 1402 1361 1395 1468 1476 1502 1612 1687 1802 1527 1366 1210 1233 1231 1247 1386 1362 1179
531 248 218 261 178 76 80 107 54 388 248 574 333 237 210 106 0 0 203 154 213 300 807 1041 1286 1282 1333 1324 1631 1752 1421 1425 1491 1452 1404 1348 1344 1327 1321 1417 1428 1374 1225 1136 1100 1055 1106 1182 1169
350 202 24 73 1 22 62 15 15 283 469 436 491 241 192 111 13 39 101 297 305 503 755 1091 899 874 1023 1234 1481 1365 1381 1479 1528 1463 1408 1299 1173 1240 1017 809 1083 1160 1177 1121 1020 1097 1236 1217 1044
145 223 0 17 5 9 39 35 168 148 498 709 821 342 377 216 160 228 282 410 403 443 475 306 519 961 884 982 1120 1276 1334 1396 1266 1219 922 907 785 1198 1730 1136 868 893 956 1053 1174 1262 715 1178 947
117 71 15 0 43 56 22 0 17 42 138 518 689 634 295 313 329 296 318 397 291 486 147 79 199 402 790 404 865 1021 843 839 948 1046 32 59 953 997 1119 836 860 744 742 805 904 858 1025 777 1092
43 91 0 20 8 29 96 26 92 25 18 860 853 580 373 344 378 321 210 303 290 605 139 32 160 345 459 532 379 841 625 657 1155 1192 509 74 1189 1441 1136 1005 1104 976 1003 995 959 1007 1131 1238 1415
18 124 35 8 42 27 104 100 27 26 21 479 674 641 520 506 337 383 311 270 399 418 144 19 440 227 663 771 205 732 356 643 1243 1224 1486 1555 674 1279 56 710 733 1188 1100 1120 1172 1420 1207 613 661
20 57 80 74 94 127 20 0 42 4 49 375 643 602 511 531 396 394 439 327 523 521 124 126 584 321 779 804 234 414 223 380 789 1535 1101 1540 839 1362 617 835 671 1273 1412 1186 1013 1132 1197 423 621
19 50 76 110 128 108 142 227 18 8 6 254 494 464 604 533 607 597 623 460 672 201 112 349 802 589 723 775 965 578 273 14 394 534 1176 846 1399 1365 1129 1255 730 863 1303 1401 1168 1406 1229 696 646
0 16 38 25 56 91 6 197 208 51 84 110 350 427 350 695 756 776 726 772 797 232 80 361 512 686 767 848 972 675 501 264 42 508 960 877 1145 1416 1020 411 1075 1125 1095 1599 1179 1214 1148 527 454
4 13 23 30 28 66 14 7 255 15 91 241 230 337 346 337 531 892 818 842 536 126 175 546 264 761 773 931 995 906 740 204 312 144 666 948 1067 1353 1976 1005 764 1608 1282 1094 1047 1388 782 193 471
0 0 8 22 29 3 10 6 19 15 3 432 305 178 294 346 370 482 505 546 453 289 487 358 370 721 949 1143 1254 878 764 639 187 111 383 914 1131 1425 1516 1403 1024 1265 1414 1085 879 665 912 511 401
0 0 2 4 40 0 7 0 3 54 16 341 495 274 218 281 338 382 347 375 399 495 631 322 521 743 1020 1071 1078 1085 943 430 295 152 41 1266 1528 1671 2095 1602 1034 1206 832 1245 880 1156 645 389 5
0 2 0 0 3 16 0 40 19 3 3 40 353 625 278 237 261 397 339 340 460 492 617 468 701 781 1068 1145 1067 1129 614 463 327 189 74 1632 1469 1516 1978 1819 1007 1416 1155 1450 1262 1429 484 413 0
0 0 0 0 2 12 6 42 137 6 20 11 361 184 572 284 198 388 364 374 378 518 653 876 797 912 1349 1191 1161 900 721 441 248 175 185 820 1107 1559 1581 1357 1777 1202 911 1358 1060 1115 800 247 0
0 0 0 0 0 18 13 1 91 146 177 0 0 502 609 504 303 313 382 354 314 538 743 976 941 1549 1289 1136 1038 954 538 407 311 103 111 625 957 2018 1830 1759 1361 1436 1455 1096 1287 830 638 292 0
0 0 0 0 3 2 32 10 12 39 54 102 165 590 546 610 468 305 337 273 259 479 766 1119 1228 1395 1655 1235 1017 839 430 283 110 91 196 712 1156 1876 2190 1904 1480 1440 1524 1378 1539 1464 1229 98 0
0 0 0 0 0 0 3 31 31 32 24 33 192 140 601 512 649 426 313 243 280 404 885 1135 1495 1434 1900 1250 1420 729 622 236 223 61 312 421 1781 1832 2364 2281 2082 1497 1304 1496 1593 1360 530 1423 222
0 0 0 0 0 0 0 7 0 4 3 16 30 35 496 540 688 731 431 322 283 391 715 1045 1518 1580 1763 1895 987 1741 742 665 217 258 384 1014 1875 1964 1982 2244 2246 1826 1461 1355 1792 2095 1486 1010 1320
0 0 0 0 0 0 0 0 0 16 37 2 22 8 54 639 705 871 695 494 350 415 496 840 1652 1936 1915 2106 1972 985 2061 833 898 912 242 1039 1250 1828 1862 1725 2387 1940 1772 2009 1707 2099 1827 1344 1299
0 0 0 0 0 0 0 0 0 0 14 30 39 28 34 158 726 880 877 683 455 396 446 708 1469 1946 2311 1919 2274 1929 1468 2371 841 842 1477 724 1259 1234 1651 1755 1728 2064 1836 1656 2258 2652 2177 2156 1616
0 0 0 0 0 0 0 0 0 0 0 0 20 74 94 81 678 867 997 873 557 438 474 533 1293 2084 2441 2355 2467 2608 1896 1762 2129 815 1169 2031 1029 1282 1621 1867 1758 2228 2280 2365 1887 2236 2391 2028 1979
0 0 0 0 0 0 0 0 0 0 0 0 0 6 22 150 341 777 960 1010 778 481 467 640 1212 2170 2672 2811 2655 2784 2727 1760 1640 1952 898 1075 1850 1491 1894 2315 2235 2389 2166 2619 2050 2612 2084 2207 2288
0 0 0 0 0 0 0 0 0 0 0 0 0 0 0 111 278 612 877 1067 1008 677 553 788 1100 2205 2746 2873 2978 2809 2875 2779 2113 1571 1936 1317 1574 1596 2311 2619 2564 2170 2204 2245 2749 2378 2367 2064 2023
0 0 0 0 0 0 0 0 0 0 0 0 0 0 0 0 334 478 823 1109 1225 1054 793 802 1098 1523 2643 3090 3102 3110 3141 3220 2947 2215 1964 2246 2276 2371 2061 2615 2398 2361 2137 2503 2470 2655 2031 2362 2185

GFSSGP_con_mlcape_051.txt.gz
CAPE
0 16 25 5 42 27 19 23 99 59 1 17 0 2 53 19 0 0 0 0 39 146 843 1218 1303 1284 1116 1251 1346 1383 1643 1469 1190 1690 1843 1752 1698 1666 1740 1551 1689 1599 1632 1361 1065 1067 1186 1116 1100
0 0 112 199 133 38 60 110 74 34 130 78 113 99 130 2 0 0 0 0 67 155 969 1282 1537 1134 1049 1131 1472 1392 1339 1525 1210 1378 1498 1645 1453 1596 1825 1546 1613 1676 1441 1446 1268 1130 1191 1120 1062
6 32 231 304 47 22 87 120 105 97 184 241 268 248 294 1 0 0 0 0 67 384 910 1428 1567 1290 1051 1267 1424 1270 1593 1520 1420 1380 1480 1437 1649 1482 1290 1773 1784 1643 1588 1390 1387 1272 1220 1229 1098
137 155 122 143 4 37 46 165 135 121 261 251 246 87 0 0 0 0 0 0 82 630 947 1461 1457 1166 1259 1428 1234 1451 1513 1677 1611 1461 1536 1644 1729 1794 1389 1311 1363 1478 1540 1493 1404 1333 1210 1174 1009
543 403 366 59 4 41 118 166 180 240 321 354 115 0 1 0 0 0 0 49 480 528 1085 1493 1577 1237 1478 1167 1302 1223 1727 1485 1275 1507 1532 1773 1874 1678 1801 1464 1458 1454 1470 1460 1386 1274 1148 1056 962
411 37 4 11 47 23 52 235 264 362 455 216 13 17 64 2 0 0 2 24 505 400 1056 1456 1426 1255 1120 1335 1210 1677 1261 1161 1365 1518 1556 1603 1721 1807 1997 1586 1448 1403 1431 1369 1304 1321 1348 1303 995
259 0 0 32 70 76 2 241 414 474 533 275 162 123 13 0 0 0 13 163 457 435 805 1192 1260 1142 1234 1413 1643 1557 1269 1328 1425 1470 1371 1359 1387 1449 1585 1604 1549 1401 1333 1272 1183 1172 1348 1160 1032
578 291 122 0 15 20 113 242 395 619 559 335 178 43 0 0 0 1 57 132 322 503 689 999 1020 1064 1073 1413 1899 1371 1358 1492 1522 1416 1292 1109 1212 1327 1204 1205 1328 1385 1348 1282 1112 1049 1123 1232 694
559 244 54 10 16 33 7 307 546 543 502 510 329 133 0 0 4 91 39 86 450 615 511 965 708 879 933 1129 1241 1259 1350 1513 1460 1294 1170 910 636 980 1334 1109 959 1197 1187 1279 1091 801 538 1020 749
442 110 135 2 6 21 8 63 190 654 619 449 311 156 0 0 27 116 77 190 485 579 730 607 449 540 725 786 918 780 909 955 831 859 14 3 356 696 934 537 757 1114 994 1125 903 655 753 785 677
56 52 115 19 17 31 5 5 63 457 464 457 314 190 33 0 212 221 211 299 303 473 359 243 480 644 562 534 212 664 561 658 870 149 0 159 399 715 0 587 867 692 785 853 811 968 925 859 937
16 4 23 21 5 27 2 0 71 98 637 499 330 248 200 340 335 305 354 299 224 188 26 65 217 460 423 368 227 570 451 562 1055 88 0 256 467 266 166 537 418 685 1121 1175 926 1000 1210 1234 784
2 0 11 101 16 14 0 8 3 486 781 496 419 386 351 377 400 290 291 285 287 206 1 0 112 284 471 155 92 489 341 430 940 583 69 555 647 348 72 120 209 490 1351 1152 993 1257 1200 476 681
0 0 7 77 48 50 2 31 10 803 741 511 342 334 326 379 337 267 182 300 238 495 6 60 22 248 569 382 208 474 523 419 1115 1167 914 1465 834 796 469 599 705 1067 661 1232 1180 843 647 419 318
0 0 0 90 57 21 7 30 16 171 734 657 568 475 366 435 353 364 277 254 355 259 31 143 17 253 443 571 556 517 680 19 408 1151 929 613 779 1227 817 1006 836 1026 1145 1191 1137 982 730 277 361
0 0 0 3 36 68 99 84 26 190 587 651 689 585 545 381 344 299 265 266 227 378 348 267 173 190 272 387 485 598 384 229 1 798 677 536 998 1465 836 686 667 826 1298 1175 958 941 499 160 271
0 0 0 0 18 66 41 145 20 81 229 366 521 712 553 531 360 315 363 235 244 283 304 370 335 244 261 321 393 537 535 587 139 247 558 469 569 1152 1419 869 888 931 1041 993 503 485 424 253 57
0 0 0 0 1 41 42 150 53 150 18 0 260 384 423 579 535 503 564 374 368 78 125 101 385 354 394 299 462 453 319 634 404 237 566 733 752 1096 1253 1246 810 704 741 786 874 782 523 348 144
0 0 0 0 0 0 40 148 72 94 0 2 159 91 315 266 632 626 502 551 194 81 108 102 362 542 490 539 357 607 220 550 232 50 827 801 1008 1403 1403 1075 1029 1186 938 805 999 728 323 75 0
0 0 0 0 0 0 8 74 151 122 105 110 232 250 106 300 224 431 483 336 157 157 41 226 287 662 530 678 405 674 767 480 253 25 115 1121 1206 1214 1516 1355 1417 981 1134 1084 722 391 235 119 0
0 0 0 0 0 0 7 87 82 70 58 39 199 0 27 164 211 249 168 215 164 189 162 55 226 540 620 690 612 478 843 425 270 52 0 965 922 804 1255 1282 1075 1255 803 782 886 1052 452 0 0
0 0 0 0 0 0 0 15 83 19 95 42 88 12 21 74 158 262 147 234 247 262 318 79 375 644 708 854 766 550 307 393 371 46 25 46 733 762 1323 1539 1061 1093 1150 1145 822 712 175 116 0
0 0 0 0 0 0 1 0 22 128 102 51 34 60 0 139 189 208 213 282 321 358 409 312 282 700 1010 761 770 661 438 249 77 251 1 40 291 366 1054 1746 1384 827 1362 977 939 1263 964 645 1
0 0 0 0 0 0 0 3 0 64 115 166 28 0 4 254 254 203 338 285 264 469 533 614 411 686 853 961 764 440 587 296 283 14 43 78 555 690 1396 1831 1646 1325 1108 1051 1267 1287 557 378 823
0 0 0 0 0 0 0 0 0 17 56 103 86 55 244 405 250 253 366 253 235 367 550 777 670 618 1118 818 673 1095 525 438 80 127 58 67 682 1088 1420 1678 1973 1581 1282 1056 1366 1654 1302 641 616
0 0 0 0 0 0 0 0 0 0 2 64 140 215 483 509 421 323 345 264 205 216 580 850 915 773 902 1196 904 591 1337 680 410 434 294 117 843 1113 1330 1431 1710 1857 1510 1188 1557 1474 1657 1207 400
0 0 0 0 0 0 0 0 0 0 0 0 5 53 549 520 590 477 334 309 165 243 448 797 1086 944 938 1094 1210 894 546 1572 955 270 611 1112 442 1066 1269 1297 1470 1784 1640 1216 1255 1602 2066 1914 1501
0 0 0 0 0 0 0 0 0 0 0 0 0 0 48 583 693 668 443 357 241 213 343 547 1099 1128 1152 1119 1383 1427 900 510 1666 1182 387 380 1140 900 1118 1511 1426 1711 1739 1447 1319 1311 2102 1914 1846
0 0 0 0 0 0 0 0 0 0 0 0 0 0 1 509 732 776 666 513 382 239 336 458 841 1334 1525 1607 1337 1611 1620 1220 702 1823 1203 445 492 989 2077 1476 1814 1778 1675 1961 1849 1668 1788 2103 2005
0 0 0 0 0 0 0 0 0 0 0 0 0 0 2 137 787 852 875 721 574 378 372 439 704 1221 1490 1716 1800 1639 1998 2142 1528 974 1576 1230 283 697 1133 2355 2228 1982 1733 1785 1907 1560 1654 1904 1822

GFSSGP_con_mlcape_054.txt.gz
CAPE
0 12 4 10 68 53 53 99 90 11 10 5 3 1 2 0 0 0 0 0 0 182 875 1143 1268 1135 1085 1511 1315 1625 1694 1214 1852 1708 1742 1721 1791 1716 1798 1703 1686 2014 1388 1079 1296 1346 1323 1250 768
0 21 82 220 126 41 74 105 60 6 10 3 56 23 51 0 0 0 0 0 32 624 980 1091 1219 1182 1130 1443 1504 1530 1465 1728 1642 1666 1416 1496 1735 1605 1652 1849 1728 1537 1488 1171 1256 1382 1237 1224 1018
0 22 178 257 46 41 67 101 55 68 9 87 238 169 69 0 0 0 0 43 264 701 1062 1379 1130 1198 1120 1394 1434 1636 1408 1403 1603 1673 1548 1717 1584 1722 1885 1656 1658 1553 1520 1501 1402 1339 1376 1369 1191
8 31 124 117 17 20 14 84 138 142 227 248 152 68 0 0 0 0 7 75 515 788 1293 1262 932 886 1007 1433 1320 1856 1663 1643 1510 1476 1736 1794 1663 1308 1429 1647 1620 1634 1536 1519 1496 1457 1352 1332 1127
245 351 36 0 4 15 14 62 157 268 373 315 54 0 1 1 0 0 4 270 464 908 1421 1370 1053 1124 1309 1243 1512 1529 1790 1513 1631 1657 1804 1859 1826 1707 1527 1506 1552 1619 1611 1529 1443 1295 1213 1105 1012
261 0 0 1 0 7 50 121 264 445 291 12 0 0 3 0 0 0 84 478 607 892 1255 1306 1240 1415 1407 1431 1302 1758 1480 1360 1550 1606 1796 1953 2036 2074 1644 1553 1594 1610 1581 1552 1488 1482 1310 1159 756
23 0 0 0 0 0 103 204 342 449 309 98 16 0 0 0 0 0 424 512 689 966 1216 1239 1330 1220 1400 1209 1783 1299 1193 1319 1562 1618 1511 1556 1637 1750 1757 1718 1565 1504 1475 1396 1337 1431 1266 1073 920
223 12 4 10 0 0 73 163 505 544 401 221 52 0 0 0 0 0 542 494 700 909 1007 1028 994 995 1049 1555 1797 1087 1258 1386 1513 1486 1341 1232 1306 1310 1473 1318 1489 1435 1294 1314 1219 1248 1141 833 916
560 199 27 9 0 0 59 121 578 454 290 283 249 0 0 0 0 128 423 459 485 785 848 921 783 783 818 1828 1511 1134 1371 1483 1517 1423 1324 538 762 1016 1133 859 1199 1340 1176 1120 1186 1102 1037 750 564
331 250 122 33 1 1 6 373 606 446 478 260 110 9 0 0 5 179 356 374 419 398 743 762 475 455 805 1344 1177 687 1050 1268 1203 818 159 38 525 772 926 1029 1101 1228 1125 1169 1140 787 812 879 407
214 216 84 96 4 9 2 6 398 510 477 340 44 0 0 1 200 196 256 530 523 427 677 496 266 459 519 492 311 266 482 723 830 315 0 53 315 276 466 488 794 783 872 758 1047 837 983 877 790
41 99 147 103 55 47 19 17 590 601 514 249 32 13 0 123 221 236 255 609 606 544 541 302 171 445 481 105 0 3 157 433 710 17 0 62 85 245 162 545 587 651 859 961 1075 887 973 1098 867
0 6 22 29 52 31 27 6 142 165 472 164 0 0 16 151 233 267 373 567 619 557 333 110 220 484 444 50 0 195 298 518 664 113 0 241 292 161 0 4 14 277 877 1012 827 938 1052 461 466
0 0 0 3 11 35 12 23 428 581 396 171 7 0 35 249 305 361 449 463 438 435 192 33 157 469 432 246 0 219 305 282 552 578 0 468 489 372 204 191 409 523 706 1171 908 786 464 423 199
0 0 0 0 21 2 14 5 662 617 350 241 114 27 165 384 339 477 480 495 419 263 91 29 94 369 411 291 10 215 419 247 485 853 383 1014 729 583 538 511 481 795 859 1026 1091 895 561 187 379
0 0 0 0 28 22 20 32 220 573 504 367 249 223 215 389 435 345 382 403 310 353 12 0 116 326 504 468 339 689 336 244 462 855 699 1019 988 722 566 774 803 864 1045 1045 746 646 363 211 235
0 0 0 0 2 47 43 41 298 713 490 455 325 309 231 277 336 329 277 286 240 358 130 34 49 316 521 585 401 339 403 177 303 780 569 584 810 914 463 610 700 799 966 1097 842 609 194 58 65
0 0 0 0 0 43 74 56 333 444 644 479 429 323 203 230 249 230 244 200 229 189 182 53 27 291 433 346 219 142 280 313 423 368 349 326 494 927 1073 768 734 451 775 868 706 604 460 466 281
0 0 0 0 0 2 96 88 137 408 520 661 651 595 393 265 249 164 190 184 164 138 214 63 42 155 206 221 170 30 117 176 283 156 327 402 425 603 693 723 689 687 711 741 538 642 71 2 0
0 0 0 0 0 0 88 106 129 231 277 534 490 399 462 525 362 192 108 171 123 112 245 116 58 34 121 86 113 68 23 89 201 174 186 453 511 815 1089 724 923 896 896 880 914 763 108 3 0
0 0 0 0 0 0 65 111 32 20 0 109 257 213 323 297 438 317 210 191 214 86 138 105 124 108 197 233 147 100 64 0 188 211 0 508 648 995 1191 1145 978 1060 914 870 623 649 270 0 0
0 0 0 0 0 0 0 45 59 59 29 0 27 193 194 206 162 390 340 324 309 111 73 49 232 231 262 390 208 141 5 0 192 153 1 163 836 955 1163 944 1025 983 959 793 614 828 670 41 0
0 0 0 0 0 0 0 4 68 63 34 5 55 180 89 127 101 115 418 427 324 115 47 94 241 294 334 488 361 236 161 202 350 179 18 0 615 803 854 900 1258 818 976 1011 852 940 387 3 0
0 0 0 0 0 0 0 0 2 13 7 7 62 90 115 5 28 92 208 336 251 102 71 90 273 320 387 491 451 320 227 121 262 205 64 0 15 408 704 845 1378 1015 632 1052 920 904 1010 917 22
0 0 0 0 0 0 0 0 0 0 17 14 16 44 109 15 7 57 64 109 77 147 183 51 258 363 392 424 451 414 344 196 22 61 38 53 1 131 271 637 1437 1305 934 896 911 1073 1106 476 657
0 0 0 0 0 0 0 0 0 0 0 27 44 72 89 40 33 66 135 90 140 160 246 184 165 343 455 390 386 485 406 360 196 128 75 0 20 187 296 598 1314 1541 1292 1048 988 1117 1058 925 631
0 0 0 0 0 0 0 0 0 0 0 5 24 54 63 54 57 76 194 139 128 220 297 355 256 263 536 524 519 543 501 402 287 240 17 23 64 186 560 696 1238 1442 1523 1315 1287 1050 1502 1329 1032
0 0 0 0 0 0 0 0 0 0 0 0 11 35 63 97 66 140 250 228 179 259 349 450 461 352 444 680 563 501 657 825 515 271 188 171 110 384 719 1021 1168 1413 1437 1493 1376 1181 1327 1504 1477
0 0 0 0 0 0 0 0 0 0 0 0 0 16 152 272 213 442 310 295 177 173 384 552 630 543 555 695 857 684 508 415 998 972 257 133 291 677 737 980 1248 1343 1452 1361 1400 1219 1159 1358 1725
0 0 0 0 0 0 0 0 0 0 0 0 0 0 53 466 567 625 379 305 234 208 279 575 767 737 684 693 775 904 959 798 390 658 1363 796 332 230 516 1363 1431 1251 1336 1477 1372 1350 1321 1326 1419

GFSSGP_con_mlcape_057.txt.gz
CAPE
46 33 3 43 113 62 71 151 173 41 0 0 0 1 3 2 0 0 0 0 7 276 988 1370 1069 1215 1280 1457 1526 1555 1479 1713 1805 1815 1686 1778 1699 1642 1649 1845 1852 1624 1228 1544 1517 1397 1092 943 1123
45 28 29 166 110 21 68 144 117 15 0 0 7 38 14 0 0 0 0 0 151 661 1015 1410 1086 1250 1393 1569 1580 1486 1956 1897 1843 1620 1735 1837 1762 1771 1846 1814 1820 1359 1215 1365 1525 1305 1167 1039 1065
39 63 154 164 23 23 37 93 79 22 1 60 138 63 16 0 1 0 0 27 539 796 1073 1220 1147 1270 1347 1501 1653 1682 1730 1525 1704 1584 1693 1745 1809 1768 1877 1730 1632 1733 1529 1509 1476 1452 1364 1094 985
20 8 87 85 0 15 16 62 100 4 69 175 93 22 0 0 0 0 36 457 507 835 1165 1299 1165 1208 1318 1467 1616 1394 1452 1464 1475 1693 1527 1324 1668 2036 1848 1882 1704 1614 1673 1292 1038 1232 1487 683 695
16 325 53 10 0 8 39 82 138 67 290 238 9 0 1 2 0 14 177 606 543 902 1166 1176 1180 1160 1319 1620 1851 1850 1475 1488 1467 1627 1761 1805 1468 1491 1543 1644 1685 1704 1683 1594 1445 1400 1358 1238 683
403 0 0 2 10 2 23 169 195 320 69 0 0 0 3 0 0 40 439 589 855 991 1017 1033 1177 1389 1262 1636 1657 1868 1485 1723 1728 1701 1959 1710 1821 1716 1714 1722 1726 1737 1699 1667 1489 1035 825 942 778
35 0 0 5 32 0 25 390 309 365 53 0 0 0 1 1 1 73 519 727 1046 1233 957 982 1195 1308 1358 1365 1908 1593 1415 1513 1660 1769 1863 1829 1985 1892 1821 1743 1756 1706 1639 1554 1444 1051 585 613 675
359 1 0 14 1 5 35 156 180 396 233 0 0 0 0 0 0 451 601 763 995 1033 884 878 1307 1323 1380 1596 1490 1342 1415 1543 1657 1618 1626 1620 1639 1740 1816 1673 1608 1566 1548 1509 1428 1122 615 697 742
544 80 22 13 5 0 63 115 151 224 146 186 28 0 0 0 177 403 503 562 656 924 725 902 1056 1201 910 1848 1243 1341 1465 1569 1606 1518 1635 1289 954 987 1261 1114 1581 1563 1516 1296 1199 1154 988 734 811
362 100 90 110 3 0 166 226 421 296 215 112 35 0 15 0 362 387 381 324 465 678 797 824 818 572 984 1830 1331 1147 1336 1481 1466 1240 826 240 698 821 906 845 1377 1451 1469 1420 1293 880 983 399 424
304 61 129 101 0 4 52 261 415 336 240 102 43 0 23 10 345 397 361 298 369 605 721 742 534 431 1007 1292 1071 702 900 1034 1047 626 39 232 496 267 433 603 986 860 993 782 995 888 884 853 594
23 104 277 253 110 24 59 93 481 461 397 186 16 3 19 37 245 353 407 304 271 422 525 607 335 103 458 707 526 258 417 598 627 375 0 114 407 210 383 370 409 443 726 819 957 843 876 944 841
0 14 20 59 7 23 18 294 476 512 364 108 0 6 15 54 181 273 405 487 346 251 289 354 195 9 0 74 120 41 93 396 567 243 0 46 135 86 54 165 104 300 745 851 773 692 690 535 527
0 0 0 0 0 9 12 69 380 443 108 25 0 0 8 101 177 192 414 528 424 265 217 207 0 0 63 28 0 0 86 339 520 413 0 157 290 178 39 26 228 427 690 915 908 613 497 237 121
0 0 0 0 0 8 10 7 174 292 63 18 0 0 13 104 180 194 332 513 532 310 232 152 0 32 41 21 0 0 193 293 380 608 62 68 480 403 226 281 467 573 696 925 924 584 326 110 81
0 0 0 0 0 3 9 10 322 272 81 1 0 0 0 98 185 236 312 406 477 370 215 81 0 70 119 234 130 0 248 321 245 436 625 203 808 575 436 621 663 704 923 904 524 419 291 125 131
0 0 0 0 0 2 8 36 333 335 138 13 0 0 11 65 170 231 306 324 331 237 129 10 0 46 228 234 244 214 143 235 322 465 555 653 892 736 429 574 630 701 831 846 666 490 210 47 92
0 0 0 0 0 0 11 57 323 429 309 166 21 3 15 126 191 201 276 302 253 201 29 8 0 0 201 338 262 382 368 87 254 431 661 632 767 810 415 619 620 593 760 520 501 407 431 239 95
0 0 0 0 0 0 5 52 191 398 421 333 210 119 67 123 222 201 165 237 207 149 103 0 0 0 84 261 319 306 245 322 291 259 652 479 704 1001 960 626 659 278 699 637 412 308 131 28 41
0 0 0 0 0 0 1 44 165 459 366 370 338 246 188 113 116 160 173 135 136 92 87 0 0 0 42 220 379 215 47 108 210 233 210 395 444 720 848 526 540 539 869 574 567 500 23 0 0
0 0 0 0 0 0 18 27 95 358 564 555 436 305 273 168 123 101 127 169 118 56 21 45 22 0 8 172 230 165 78 53 102 134 149 246 481 612 798 802 507 665 689 708 627 552 28 0 0
0 0 0 0 0 0 3 0 42 76 224 246 424 451 483 282 161 137 117 131 175 58 47 31 0 0 0 21 110 88 20 0 6 26 67 118 514 591 939 1015 982 836 814 833 531 522 369 0 0
0 0 0 0 0 0 4 42 0 3 31 111 121 277 404 394 371 253 141 121 160 134 28 48 0 0 0 22 12 3 0 0 0 0 27 49 304 582 901 1011 1016 892 791 767 693 715 586 173 0
0 0 0 0 0 0 0 0 0 0 0 21 41 72 154 268 288 313 269 143 144 158 42 26 9 15 0 15 20 5 17 8 0 0 0 36 12 306 787 977 961 1035 694 863 743 747 597 144 0
0 0 0 0 0 0 0 0 0 0 0 0 0 67 56 123 189 153 288 287 232 221 118 29 31 58 33 71 53 20 32 13 0 0 0 0 0 35 441 815 808 969 1031 649 822 849 836 728 460
0 0 0 0 0 0 0 0 0 0 0 0 0 48 61 70 130 103 157 348 332 309 199 67 38 82 94 108 91 81 62 24 0 0 0 15 0 11 21 294 739 756 1164 1027 749 733 830 848 792
0 0 0 0 0 0 0 0 0 0 0 0 0 24 47 66 76 16 80 175 366 329 228 97 100 133 145 139 129 151 132 86 19 2 0 0 4 73 99 78 216 521 930 1249 1011 929 929 880 659
0 0 0 0 0 0 0 0 0 0 0 0 0 0 39 58 72 52 9 87 147 230 192 106 63 208 227 184 156 179 166 132 123 27 12 0 0 6 91 146 350 558 723 1160 1271 1182 1092 1044 1071
0 0 0 0 0 0 0 0 0 0 0 0 0 0 9 46 51 39 28 58 103 145 203 216 79 137 217 262 188 196 212 180 200 172 149 104 56 12 64 281 309 649 909 1079 1164 1230 1358 1229 1245
0 0 0 0 0 0 0 0 0 0 0 0 0 0 8 44 64 34 19 69 135 139 225 278 213 111 135 268 296 269 289 358 424 337 198 133 113 196 114 143 605 868 1192 1248 1251 1236 1293 1429 1250

GFSSGP_con_mlcape_060.txt.gz
CAPE
73 63 30 31 90 59 64 87 92 2 0 0 0 0 4 4 2 0 0 0 11 151 545 881 988 932 1604 1411 1783 1726 1841 1589 1745 1828 1966 1907 1806 1678 1507 1696 1648 1039 1629 1260 1194 986 729 868 1206
44 43 36 175 72 14 37 92 74 3 0 0 10 3 20 0 0 0 0 1 106 433 779 863 991 1191 1518 1494 1322 1848 1695 1752 1917 1831 1827 1777 1813 1880 1787 1575 1291 1379 1474 1468 1197 1161 1140 1368 1413
36 134 166 209 20 8 24 108 142 1 0 37 55 26 9 4 0 0 0 102 343 782 1014 879 1176 1155 1526 1526 1682 1741 1779 1589 1625 1772 1881 1779 1799 1961 1858 1742 1665 1480 1605 1494 1387 1240 1178 1167 1212
69 39 19 85 15 48 51 125 119 7 42 103 33 5 0 0 0 0 17 361 465 922 936 1044 1342 1294 1465 1686 1796 1588 1612 1686 1850 1747 1821 1893 1864 1896 1874 1820 1764 1336 1588 1531 1577 1388 896 1065 920
0 207 40 13 27 29 95 163 36 68 157 61 8 0 3 7 0 4 234 453 468 894 984 958 1245 1228 1465 1480 1444 1347 1418 1589 1800 1798 1498 1607 1720 1694 1840 1893 1806 1765 1667 1465 1523 1467 1140 862 976
252 4 0 4 3 26 46 295 181 281 52 2 0 0 3 10 3 59 343 517 704 721 903 994 1114 1267 1486 1828 1870 1393 1453 1664 1827 1872 1679 1781 1704 1738 1809 1858 1852 1770 1751 1622 1277 1180 1219 684 717
62 0 0 7 17 4 32 456 295 256 51 8 0 0 3 12 18 201 394 647 881 830 726 916 1024 1142 1550 1632 1927 1405 1726 1698 1876 1770 1574 1749 1840 1868 1874 1910 1863 1775 1449 1522 1226 972 968 865 873
274 0 6 7 31 17 70 283 288 253 105 0 0 0 1 6 62 243 485 657 811 717 696 738 988 1016 1245 1620 1641 1317 1504 1651 1692 1667 1679 1744 1875 2003 1930 1731 1764 1394 1508 1319 1282 903 831 774 838
359 36 12 10 10 11 35 95 474 209 0 31 0 0 0 7 158 201 251 465 532 462 499 745 921 1053 1000 1488 1220 1219 1507 1639 1612 1542 1632 1439 1162 1316 1392 1417 1655 1678 1625 1014 1107 1287 965 645 890
269 10 33 83 8 0 134 143 249 258 40 8 0 0 0 48 126 98 120 220 415 306 393 716 839 829 947 1541 1047 1163 1416 1433 1348 1347 957 617 669 667 818 1079 1116 1459 1096 974 1085 1122 877 495 655
200 11 125 140 8 8 210 345 366 229 123 19 0 0 0 70 99 81 84 140 257 301 299 626 729 680 992 1475 1001 1009 1186 1139 1132 899 215 235 594 445 618 599 890 859 1070 939 887 858 906 623 456
5 89 237 247 159 57 1 224 431 279 286 87 1 0 0 69 88 92 58 109 202 421 232 509 575 307 766 1165 843 577 737 714 724 447 4 182 429 278 321 299 458 452 722 681 841 652 715 859 690
0 2 46 87 116 2 13 33 378 433 270 4 0 0 0 90 109 174 158 161 313 421 296 391 349 84 278 688 566 280 321 428 478 384 2 14 312 162 170 212 253 188 478 620 568 546 639 586 771
0 0 0 1 0 0 2 23 377 406 105 0 0 0 0 100 176 219 211 137 169 276 231 266 80 4 14 202 99 19 94 210 379 415 0 78 103 135 14 31 103 235 536 652 563 399 423 195 209
0 0 0 0 0 0 7 47 88 155 58 5 0 0 0 66 192 120 236 129 89 148 203 68 0 0 0 0 0 0 0 68 263 279 145 8 279 348 109 95 345 513 770 736 356 384 247 106 74
0 0 0 0 0 0 2 6 89 100 63 1 0 0 0 78 111 158 293 285 160 106 78 23 0 0 0 0 0 0 0 107 224 379 492 161 185 552 337 291 447 550 871 628 384 170 136 99 69
0 0 0 0 0 0 0 13 138 65 74 6 0 0 1 36 95 93 213 336 317 152 40 7 0 0 0 0 0 0 0 92 177 195 287 484 270 755 452 511 554 649 689 864 471 219 37 65 65
0 0 0 0 0 0 0 0 196 88 61 24 0 0 0 14 37 64 129 281 347 262 40 0 0 0 0 0 47 117 153 32 27 181 357 356 548 818 660 446 563 615 643 366 366 334 278 53 70
0 0 0 0 0 0 0 0 183 190 63 14 9 7 1 1 30 73 101 179 226 232 74 0 0 0 0 1 59 121 173 304 75 173 318 410 618 807 661 477 539 348 503 501 92 231 58 60 54
0 0 0 0 0 0 0 0 89 213 157 103 26 18 24 10 11 51 88 139 156 167 78 0 0 0 0 11 136 160 138 213 101 36 248 511 594 729 789 831 595 452 543 481 458 285 76 0 0
0 0 0 0 0 0 0 0 18 278 304 215 95 26 8 8 38 75 65 97 117 97 137 0 0 0 0 0 35 80 55 75 142 135 78 374 389 499 735 854 500 553 768 544 542 492 0 0 0
0 0 0 0 0 0 0 0 0 44 205 248 255 169 92 42 50 99 72 43 88 73 72 0 0 0 0 0 0 100 172 152 39 64 72 90 219 383 584 708 740 556 756 580 500 425 123 0 0
0 0 0 0 0 0 0 0 0 0 9 152 308 281 201 164 113 69 81 83 55 23 19 47 0 0 0 0 0 4 153 22 0 0 0 31 143 296 505 756 949 882 858 623 583 581 451 134 0
0 0 0 0 0 0 0 0 0 0 0 37 255 323 339 258 192 129 67 10 2 0 0 0 0 6 0 12 14 0 4 10 0 0 0 0 27 160 360 678 941 954 871 721 608 649 660 361 12
0 0 0 0 0 0 0 0 0 0 0 0 24 170 211 384 376 202 104 69 46 46 5 14 0 19 1 3 9 0 0 0 0 0 0 0 0 11 147 424 832 852 834 830 694 687 763 470 158
0 0 0 0 0 0 0 0 0 0 0 0 0 34 77 137 289 345 316 142 62 54 46 22 41 40 17 0 0 0 0 0 0 0 0 0 0 0 36 124 487 795 853 882 830 636 872 783 842
0 0 0 0 0 0 0 0 0 0 0 0 0 2 2 37 89 122 255 278 177 66 60 22 33 48 59 39 0 23 0 0 0 0 0 0 0 0 0 46 135 405 653 749 958 914 736 723 774
0 0 0 0 0 0 0 0 0 0 0 0 0 0 0 27 39 65 94 84 200 155 92 51 0 4 60 66 36 66 70 0 0 0 0 0 0 0 0 58 109 125 300 466 635 1117 1053 924 934
0 0 0 0 0 0 0 0 0 0 0 0 0 0 0 13 26 34 47 42 86 178 133 88 38 0 0 42 62 94 142 109 45 3 0 0 0 0 0 16 90 141 221 412 516 888 1209 1263 1173
0 0 0 0 0 0 0 0 0 0 0 0 0 0 0 12 40 41 61 14 27 151 188 175 54 44 54 106 101 129 185 171 104 46 26 0 0 0 0 6 83 185 292 400 653 708 1036 1260 1303

GFSSGP_con_mlcape_063.txt.gz
CAPE
47 63 45 28 124 68 123 170 87 0 6 2 0 1 2 0 3 4 1 43 119 282 702 730 1193 1715 1520 1225 1445 1773 1876 1799 1867 1875 1972 1965 1811 1799 1716 1527 983 1547 1378 1313 834 777 982 1423 1556
54 34 33 176 19 47 92 156 61 2 0 1 10 12 20 1 0 0 5 83 27 211 676 644 1126 1745 1454 1776 1693 1663 1618 1669 1651 1863 1847 1845 1833 1603 1574 1604 1415 1597 1466 1102 1331 1229 1366 1397 1616
44 152 132 142 54 11 67 151 36 1 0 9 32 15 17 0 0 0 4 102 64 341 727 814 1243 1547 1600 1391 1933 1757 1792 1820 1791 1752 1808 1805 1766 1520 1638 1258 1387 1573 1453 1282 1213 1316 1358 1368 1431
94 118 31 103 51 83 107 153 25 15 104 104 47 16 0 1 1 0 59 163 130 398 600 1062 1180 1621 1487 1834 1701 1639 1389 1740 1746 1829 1790 1591 1354 1561 1827 1811 1495 1529 1562 1483 1365 1299 1349 1059 812
50 106 63 51 83 47 145 85 53 40 98 59 4 1 2 6 0 5 172 253 354 251 540 1149 1301 1596 1807 1805 1548 1677 1663 1706 1662 1560 1641 1828 1771 1809 1860 1613 1444 1325 1338 1572 1426 1130 1143 1309 1169
205 8 0 12 26 46 163 276 151 270 85 14 7 0 4 14 3 63 191 229 478 284 257 972 1189 1568 1560 1413 1335 1435 1713 1758 1799 1782 1548 1632 1695 1801 1881 1763 1727 1655 1558 1438 1462 1242 988 1041 1219
111 0 0 0 26 8 83 470 231 255 95 48 0 0 5 13 16 222 256 350 594 343 267 712 907 1322 1820 1923 1398 1524 1738 1812 1844 1584 1906 1788 1760 1736 1751 1831 1652 1361 1400 1157 1209 1013 928 969 1076
356 0 45 9 33 67 255 386 444 297 97 0 0 0 1 7 88 207 376 517 734 423 392 677 964 1122 1535 1668 1370 1625 1602 1779 1838 1839 1891 1968 1721 1790 1848 1471 1167 1052 1291 1185 1087 1065 915 954 1209
187 120 23 59 18 64 168 299 616 85 5 8 0 0 0 10 146 217 399 518 676 426 216 318 800 1006 1397 1670 1076 1307 1470 1551 1551 1458 1642 1299 1731 1608 1407 1238 845 797 1222 1184 1311 1125 906 1046 1196
378 70 21 89 14 7 60 249 561 101 11 13 0 0 1 30 118 101 176 330 363 158 186 215 497 690 1063 848 1037 1197 1174 1113 1294 1526 1221 1144 1164 1248 1125 1125 875 1078 984 1088 1361 1280 1123 940 1042
171 0 53 153 18 105 351 239 472 214 127 64 12 1 5 39 41 39 69 272 100 2 42 146 669 883 921 731 952 1009 1221 1167 1453 1385 745 1038 1213 1304 1162 1120 837 1114 925 1030 1172 1216 947 958 1071
13 57 340 272 246 101 96 590 509 380 422 199 16 3 1 30 6 8 20 200 129 0 32 270 782 862 1355 1007 782 958 1011 1141 1171 983 307 867 991 777 820 974 1062 727 1103 902 1509 1535 1499 1428 1262
3 31 30 114 126 44 15 289 606 445 372 78 16 0 0 9 2 0 3 78 118 22 59 377 804 726 1237 1404 871 784 923 825 895 768 261 270 936 715 793 836 816 863 1194 1487 1076 1406 1560 1564 1558
0 0 2 0 0 3 0 18 374 543 127 54 0 0 0 22 0 5 19 44 89 42 30 275 663 616 882 1149 833 590 719 818 843 883 14 317 610 661 331 495 565 817 1245 1323 1163 1111 596 857 1024
0 0 0 0 0 0 0 63 185 329 134 103 22 2 25 33 12 11 24 2 71 135 131 296 511 401 299 784 556 400 345 400 740 890 432 227 653 924 651 450 986 1209 905 1249 1192 1074 380 326 312
0 0 0 0 0 0 16 52 313 241 166 135 41 14 35 62 20 41 74 40 94 137 308 392 197 98 123 178 249 138 92 204 559 853 938 402 210 1085 931 883 1152 1128 828 987 780 385 778 718 396
0 0 0 0 0 0 17 19 202 198 199 167 68 3 13 65 92 104 126 123 134 216 372 265 233 5 48 56 94 98 40 168 588 729 855 1005 883 1031 1222 1111 1321 1334 661 427 664 774 596 622 148
0 0 0 0 0 0 44 27 165 205 160 149 92 35 20 20 77 122 141 211 190 181 314 268 183 80 27 107 138 121 103 152 403 598 792 933 977 1084 1336 1123 1157 1437 554 350 634 859 292 341 218
0 0 0 0 0 0 9 24 128 157 175 142 103 76 44 28 40 77 138 287 338 232 239 183 54 43 0 0 17 168 207 498 542 485 638 906 980 1197 1461 1213 1244 1078 688 655 648 490 236 347 149
0 0 0 0 0 0 0 1 25 144 118 182 117 85 50 37 54 81 107 212 323 447 332 129 50 36 0 2 224 470 601 709 900 589 840 953 1031 1285 1318 1233 1285 947 665 629 487 710 335 32 76
0 0 0 0 0 0 0 0 0 193 228 159 116 70 17 47 51 90 116 171 260 369 455 215 38 76 101 2 331 409 498 460 609 443 507 768 1088 1195 1289 1506 1377 1057 843 591 494 875 525 0 0
0 0 0 0 0 0 0 0 0 92 103 206 169 67 52 6 26 79 91 113 162 274 371 291 227 131 185 36 153 191 319 329 547 654 573 703 975 981 1141 1363 1350 1017 1385 716 733 1060 597 114 0
0 0 0 0 0 0 0 0 0 0 58 88 371 305 113 47 49 60 107 113 141 254 287 275 219 213 179 130 37 301 391 536 590 515 563 545 660 863 941 1186 1372 1361 1414 982 1157 1037 940 564 8
0 0 0 0 0 0 0 0 0 0 0 65 319 486 403 220 89 132 136 134 113 164 210 226 192 154 138 192 44 60 268 465 340 348 373 463 632 789 844 1133 1339 1691 1485 1257 1327 1149 1191 1117 705
0 0 0 0 0 0 0 0 0 0 0 0 84 272 499 425 295 198 179 187 156 106 170 187 265 131 109 147 179 107 168 305 245 363 324 294 320 525 696 802 1003 1311 1507 1501 1425 1395 1256 1337 822
0 0 0 0 0 0 0 0 0 0 0 0 80 194 445 513 476 413 294 241 259 243 191 168 207 235 206 136 177 247 293 297 304 367 312 292 159 219 589 625 837 1062 1601 1568 1566 1464 1454 1654 1527
0 0 0 0 0 0 0 0 0 0 0 0 0 65 185 456 558 551 449 355 251 269 290 139 201 168 207 213 260 292 334 313 323 354 311 249 276 150 215 323 480 674 1127 1455 1509 1603 1589 1505 1605
0 0 0 0 0 0 0 0 0 0 0 0 0 0 13 172 326 566 639 487 378 283 279 240 189 211 221 169 214 296 315 355 342 360 254 253 314 213 61 181 359 524 764 1127 1291 1349 1662 1765 1625
0 0 0 0 0 0 0 0 0 0 0 0 0 0 0 29 114 196 562 710 509 342 315 275 202 256 242 183 175 213 337 366 392 354 357 316 300 322 281 225 278 417 579 832 954 922 1138 1782 1908
0 0 0 0 0 0 0 0 0 0 0 0 0 0 0 2 48 143 214 468 650 621 420 328 284 274 277 287 263 261 372 422 403 423 418 406 337 320 336 406 383 477 619 824 921 768 990 1275 1511

GFSSGP_con_mlcape_069.txt.gz
CAPE
18 12 156 272 98 362 220 435 254 314 171 171 141 110 321 244 388 530 309 392 523 509 634 858 1112 1357 1484 1477 1524 1488 1557 1622 1806 1821 1713 1590 1873 1931 1681 1226 1719 1559 1128 986 1432 1508 1536 1534 1676
70 207 333 174 260 151 223 130 149 234 225 164 130 226 239 224 285 290 369 496 464 514 508 444 1218 1598 1781 1949 1970 1897 1775 1819 1839 1976 2038 1898 1834 1763 1102 1598 1767 1399 1709 1395 1241 1433 1699 1577 1885
275 297 187 404 348 47 175 103 220 103 61 286 184 84 545 254 313 477 314 522 473 196 79 1317 1433 1634 1803 1802 1801 2004 1941 1882 1792 1900 1777 1839 1707 1665 1812 1786 1691 1385 1497 1571 1558 1603 1646 1515 1343
230 493 566 679 311 222 416 179 291 124 170 307 103 93 148 412 245 313 369 501 310 148 401 1406 1750 1684 1812 1941 1910 1866 1650 1634 1798 1698 1822 1731 1865 1208 1486 1575 1823 1568 1556 1684 1570 1359 1374 1444 1631
396 575 592 711 192 470 403 236 341 276 355 275 174 168 128 195 317 325 304 368 213 51 512 1106 1509 1749 1835 1844 1734 1803 1780 1746 1700 1667 1560 1722 1683 1625 1429 1446 1551 1596 1637 1451 1415 1382 1168 1318 1388
427 388 634 299 257 392 453 395 528 466 440 447 557 254 141 124 302 284 282 232 41 14 404 614 1469 1703 1686 1699 1632 1653 1646 1754 1749 1736 1722 1930 1637 1670 1628 1713 1682 1654 1572 1491 1406 979 1255 1332 1400
202 399 224 338 377 318 441 622 606 502 511 450 463 715 238 124 278 188 196 98 40 22 239 555 1074 1497 1501 1768 1544 1811 1913 1703 1598 1741 1718 1349 1229 1733 1663 1534 1487 1399 1334 1248 1272 1109 1036 1313 1623
76 456 133 233 246 370 707 607 632 547 647 508 466 502 272 238 238 157 135 49 36 175 141 450 824 545 517 1060 1426 1772 1734 1589 1644 1791 1731 1591 1682 1310 1153 690 1189 1280 1227 1175 1196 1162 1094 1058 975
0 456 443 77 278 354 548 788 1046 781 544 411 266 711 417 227 239 125 52 46 31 119 147 262 462 897 526 653 1483 1512 1766 1872 1608 1558 1508 1189 966 1361 1199 477 1080 1241 1269 1129 1091 1195 1334 1076 725
0 491 248 181 217 525 692 789 1060 694 575 361 445 484 282 186 183 112 49 31 18 59 116 99 410 1245 451 345 1156 1225 893 1050 1344 1017 1669 1275 1469 1270 607 567 873 1202 1247 1109 919 870 1113 829 731
0 92 209 384 324 480 611 698 622 563 261 364 476 451 231 167 155 178 66 31 6 20 52 51 628 498 653 467 822 547 921 840 1179 1298 1406 847 651 705 870 834 1047 938 1227 721 694 772 881 290 707
0 4 75 308 400 457 507 809 675 381 20 295 435 387 198 173 222 220 69 52 6 7 32 86 231 615 481 289 529 513 608 633 624 1000 1185 1065 1321 1127 987 896 1140 1040 1325 1018 799 1129 1036 829 971
0 11 0 115 465 393 408 566 294 175 364 401 443 338 249 274 233 126 93 60 6 2 23 150 255 329 695 618 589 553 385 623 947 914 1206 961 791 1055 1184 1214 1035 1033 892 733 1054 890 774 475 316
0 0 0 3 499 231 249 441 560 563 636 660 441 375 343 315 248 230 152 109 14 1 16 179 284 412 728 670 790 641 570 910 824 963 1118 1396 1412 1196 1171 1244 1097 1099 328 711 1242 1051 890 1181 444
0 0 0 0 242 297 199 248 292 738 706 737 553 388 405 319 254 214 147 167 10 0 8 113 223 367 762 912 692 617 682 715 905 992 1233 1358 1589 1470 1451 1376 1057 896 1216 1265 1077 817 195 904 162
0 0 0 0 0 63 94 272 216 985 730 757 656 395 372 314 260 211 178 178 5 0 0 71 62 187 650 740 698 485 375 518 690 665 987 1386 1644 1613 1526 1240 816 818 1022 646 919 1007 69 531 55
0 0 0 0 0 0 2 197 157 859 764 778 718 427 379 352 291 206 147 197 16 0 0 22 34 60 420 785 543 443 474 770 808 1051 1116 1462 1606 1508 1611 1010 1218 1443 706 807 595 603 156 461 303
0 0 0 0 0 0 0 153 0 555 613 737 741 506 359 352 335 220 138 176 42 0 0 5 15 135 414 643 652 422 588 649 698 912 1299 1740 1672 1565 1702 1425 1465 1302 483 623 666 1078 673 349 23
0 0 0 0 0 0 0 138 121 403 514 716 737 680 304 493 342 270 140 121 35 1 0 0 24 311 231 254 321 300 223 393 871 524 1163 1491 1435 1208 1718 898 1311 1480 1091 1072 757 614 132 128 100
0 0 0 0 0 0 0 3 266 449 421 630 720 758 561 472 435 305 180 130 58 7 1 32 106 461 284 136 113 257 274 338 468 435 988 1249 1340 1483 1309 1067 1263 1283 1240 1095 913 1125 252 98 49
0 0 0 0 0 0 0 34 130 366 464 512 742 825 722 343 551 351 268 193 128 41 31 258 374 530 446 96 98 136 446 744 515 872 965 1313 1346 1492 1893 1579 1433 1503 1281 1019 1038 871 1092 298 41
0 0 0 0 0 0 0 0 73 79 480 338 486 705 744 612 367 517 416 349 238 116 52 303 519 657 645 357 0 148 312 299 408 552 439 856 1271 1276 1554 1521 1555 1348 1112 1156 1199 928 970 937 31
0 0 0 0 0 0 0 0 10 95 111 459 445 537 669 709 392 430 562 492 363 224 106 115 701 812 610 437 116 204 443 160 302 271 864 882 1301 1250 1158 1471 1509 1173 1277 1358 1557 1615 1357 238 590
0 0 0 0 0 0 0 0 0 13 115 116 351 431 591 710 610 410 479 575 471 356 265 119 675 958 939 764 219 591 393 444 69 210 727 583 881 1123 1231 1195 1592 1824 1415 1662 1518 1496 1410 1640 484
0 0 0 0 0 0 0 0 0 0 9 89 273 391 470 576 717 588 454 494 594 500 466 437 607 1169 1078 1168 452 710 983 576 880 755 549 456 257 327 1213 1446 1644 1644 1575 1684 1642 1802 1519 1484 1154
0 0 0 0 0 0 0 0 0 0 1 6 112 354 418 420 598 710 598 529 614 655 751 778 988 1303 1423 1119 962 520 774 296 511 885 395 253 92 182 1545 1697 1374 1504 1589 1516 1915 1770 1636 1612 1406
0 0 0 0 0 0 0 0 0 0 0 0 11 218 369 417 415 678 705 630 575 679 888 947 1154 1567 1621 1230 1240 1502 967 193 117 574 1092 881 548 384 400 806 1534 1413 1321 1374 1753 1417 1708 1455 1947
0 4 0 0 0 0 0 0 0 0 0 0 0 67 204 405 456 484 591 631 646 622 748 1012 1135 1698 1835 1547 1430 1437 1546 1254 416 900 1538 939 1143 821 821 896 941 1381 1316 1343 1804 1466 1494 2068 1713
0 0 0 7 0 0 0 0 0 0 0 0 0 0 69 237 375 498 545 608 705 692 688 796 1132 1553 1645 1553 1637 1386 1351 1381 897 1138 1463 1563 1534 1610 1319 1229 1314 1078 1120 1308 1940 1828 1532 1958 2003
0 0 4 40 8 0 0 4 12 0 0 0 0 0 0 3 203 404 511 680 691 814 820 803 881 1042 1557 1561 1658 1569 1635 1445 1275 520 1345 1757 1957 2081 1949 1815 1556 1342 915 1413 1847 1724 1374 1655 1630

GFSSGP_con_mlcape_072.txt.gz
CAPE
0 0 0 40 191 215 45 157 359 164 140 136 112 245 273 468 393 575 363 448 509 540 797 1057 1219 1390 1482 1367 1144 1181 1372 1746 1877 1896 1672 1608 1911 1789 1139 1679 1526 1112 1009 1568 1384 1663 1485 1730 2210
2 14 104 245 144 1 98 103 194 125 130 153 161 263 312 370 284 375 338 410 355 554 745 879 1195 1400 1449 1491 1486 1548 1573 1615 1609 1629 1806 1734 1865 1174 1686 1749 1387 1795 1408 1233 1561 1622 1437 1966 2027
124 163 285 244 356 0 98 206 183 141 128 177 336 508 276 232 219 413 280 251 273 353 509 887 1288 1630 1732 1920 1901 1928 1934 1918 1888 1862 1590 1591 1709 1663 1649 1590 1393 1503 1591 1446 1563 1623 1335 1532 1800
242 270 291 376 57 67 250 108 121 153 129 82 116 233 168 289 215 298 308 172 89 512 782 1144 1526 1766 1713 1705 1939 1868 1793 1788 1776 1727 1613 1755 1358 1409 1447 1579 1552 1606 1684 1497 1325 1449 1472 1559 1466
202 273 334 328 0 16 215 233 188 247 61 51 174 217 120 243 236 270 134 140 16 487 684 1213 1598 1731 1850 1805 1789 1601 1707 1783 1627 1714 1662 1873 1668 1588 1458 1543 1593 1640 1448 1341 1300 1209 1294 1307 1262
229 483 371 40 22 133 238 279 304 269 313 250 115 180 105 198 193 122 125 72 143 155 403 933 1628 1725 1676 1742 1803 1757 1727 1707 1617 1592 1742 1784 1399 1487 1640 1592 1611 1521 1444 1307 1039 1314 1346 1316 1137
12 209 252 142 85 286 321 422 496 421 371 354 174 275 181 201 246 286 170 28 1 259 224 705 1456 1664 1602 1717 1545 1544 1672 1671 1746 1766 1694 1530 1688 1874 1625 1638 1475 1284 1271 1212 1092 1103 1171 1158 740
4 28 333 172 228 72 170 585 331 474 354 527 498 153 154 132 220 95 67 23 17 207 281 978 1407 986 1389 1454 1856 1718 1643 1578 1671 1640 1242 1162 1631 1408 1149 1164 1291 1225 1204 1124 1031 1082 1104 1000 663
7 0 251 154 113 48 1 307 648 469 455 452 630 284 225 119 86 61 40 38 129 37 236 408 490 649 1007 1216 1617 1680 1489 1473 1657 1799 1376 1267 1332 1294 1104 893 1230 1189 1034 1038 1144 1349 1109 959 785
3 7 228 122 237 0 0 183 780 588 336 356 650 388 236 114 84 58 38 44 90 50 88 68 315 474 582 847 1258 1419 1366 1146 1222 1348 986 1294 957 1319 617 651 1168 1166 1028 869 1096 956 914 692 577
0 0 12 53 163 31 111 88 13 396 300 294 645 338 222 171 76 21 29 22 99 31 60 239 723 835 305 508 1547 1462 1091 1477 1179 1061 607 1181 1316 746 822 601 806 731 929 754 806 750 424 393 311
2 2 1 15 115 366 221 599 261 198 213 292 514 309 205 135 33 6 25 7 40 33 55 564 554 497 382 413 1092 645 867 1472 874 937 1236 1192 891 594 51 1079 1221 733 900 349 346 577 526 447 463
0 0 1 26 4 350 337 183 242 103 0 108 488 259 188 170 25 31 28 4 3 23 219 501 629 864 564 489 500 582 554 575 974 720 1188 465 1035 674 488 863 741 358 531 718 217 485 436 634 356
0 0 0 8 0 361 145 489 254 251 105 491 405 209 246 205 115 211 32 4 0 6 173 278 172 788 405 715 969 291 926 871 971 964 1128 1033 1137 840 1132 1120 618 561 0 437 825 483 139 821 572
0 0 0 0 0 390 204 320 480 480 363 282 462 267 182 278 189 80 47 6 0 3 162 229 206 485 400 1003 956 643 413 55 940 1038 1288 1172 1303 1528 1209 1236 470 533 389 1052 1207 724 723 230 234
0 0 0 0 0 48 305 250 583 366 293 443 464 421 388 341 202 153 161 21 0 0 58 133 117 199 505 1131 561 675 888 832 1039 1035 1175 1194 1583 1710 1280 1347 1197 1318 1032 165 713 404 215 214 295
0 0 0 0 0 0 214 252 521 323 217 564 472 516 399 323 285 321 198 61 0 7 34 86 244 143 507 957 480 634 637 708 711 943 1235 1538 1587 1354 655 963 1253 1023 1522 948 427 72 11 792 339
0 0 0 0 0 0 26 178 173 39 6 54 568 408 425 262 268 261 191 158 0 5 36 148 205 227 720 980 631 627 636 912 377 975 1250 1650 1632 1498 1020 1101 1309 1434 1187 527 115 771 314 783 35
0 0 0 0 0 0 8 137 45 0 0 2 472 332 380 325 218 268 192 205 0 0 25 183 56 448 381 795 689 465 608 521 1061 715 1188 1743 1368 1489 1282 1249 1436 1531 1080 1014 933 1112 566 522 87
0 0 0 0 0 0 0 26 69 4 0 30 12 329 247 361 281 273 173 217 37 0 2 39 139 638 279 921 662 508 779 253 599 1051 1735 1240 1091 1425 1299 958 1354 1431 1334 1051 1196 81 55 521 15
0 0 0 0 0 0 0 14 105 7 3 56 0 454 139 411 284 299 157 183 124 7 39 9 290 868 352 399 356 495 553 409 783 1065 1096 1040 1401 1367 1543 1575 1600 1596 1565 1103 1047 693 613 499 12
0 0 0 0 0 0 0 0 76 321 49 21 286 462 306 289 344 356 164 237 151 96 120 105 361 983 344 322 144 220 377 616 342 855 1205 1078 1561 1395 1506 1666 1681 1463 1294 1205 1008 1439 1076 975 212
0 0 0 0 0 0 0 0 0 40 72 7 1 392 352 177 432 356 282 191 197 161 182 391 356 938 498 212 546 180 347 521 1032 493 1094 1477 1367 1658 1321 1506 1682 1403 1383 1438 1186 1518 1302 1355 841
0 0 0 0 0 0 0 0 0 11 280 21 0 30 329 290 207 493 428 298 283 222 137 492 544 739 744 188 537 342 188 689 500 263 1088 1611 1277 1291 1545 1683 1569 1414 1416 1409 1760 1770 1292 1660 1359
0 0 0 0 0 0 0 0 0 0 147 110 0 96 377 499 406 321 461 489 385 317 228 271 751 647 830 715 210 985 179 378 833 574 1032 662 1200 975 1151 1616 1669 1385 1408 1366 1640 1616 1788 1642 1650
0 0 0 0 0 0 0 0 0 0 0 215 20 142 23 269 522 390 523 602 603 547 381 260 849 830 858 1057 126 519 984 286 694 1318 392 1024 369 839 1236 1192 1757 1826 1533 1789 1712 1838 1860 1756 1270
0 0 0 0 0 0 0 0 0 0 0 0 110 12 0 0 704 532 601 653 865 720 639 506 681 1058 1071 914 1020 162 1073 1205 606 951 1049 565 695 775 1511 1392 2002 1646 1866 1647 1794 1656 1371 1771 1807
0 0 0 0 0 0 0 0 0 0 0 0 0 24 4 19 108 665 595 700 858 872 936 846 853 1093 1310 932 1319 786 548 844 785 449 1140 1003 937 362 1877 1916 1785 1754 2059 1628 1923 1644 1315 1484 1534
0 0 0 0 3 0 0 0 0 0 0 0 0 0 60 86 40 591 707 744 797 954 996 1095 1117 1239 1472 1558 1208 1170 809 595 359 617 325 1224 1049 2013 1150 1567 1447 1854 1650 1984 1776 1604 1927 1851 1696
1 1 0 17 0 6 0 0 3 0 0 0 0 0 2 74 122 20 85 850 898 966 1040 1198 1197 1620 1731 1772 1608 1251 1471 1063 731 121 772 1720 1207 1239 2293 1428 2049 1565 1706 1769 1775 1851 1616 1938 1755

GFSSGP_con_mlcape_075.txt.gz
CAPE
0 3 0 6 181 102 0 2 7 51 65 66 100 209 210 230 271 79 32 174 259 225 114 1005 1343 1292 1257 1251 1123 1131 1373 1671 1796 1751 1575 1903 1713 1594 1618 1642 1025 1342 1592 1442 1769 1549 1877 2047 2121
0 0 24 195 45 0 0 35 229 108 148 141 276 355 245 160 127 142 265 290 238 296 700 975 1202 1352 1219 1129 1164 1396 1751 1856 1725 1467 1941 1793 1290 1708 1773 1453 1702 1227 1205 1692 1529 1328 1915 1936 1969
0 80 125 86 0 0 19 65 130 177 235 294 307 151 259 140 242 248 259 332 354 458 750 891 1193 1329 1310 1228 1305 1442 1429 1663 1767 1547 1647 1643 1487 1720 1604 1413 1622 1685 1265 1591 1614 1442 1599 1745 1424
90 206 152 2 1 0 56 34 108 150 182 190 98 65 91 169 167 136 176 239 344 552 591 1013 1467 1526 1780 1728 1911 1915 1797 1771 1772 1647 1706 1506 1846 1593 1502 1533 1700 1535 1367 1464 1421 1294 1413 961 1001
343 252 69 0 0 0 2 33 166 84 127 194 75 93 131 81 50 39 66 238 371 404 720 1407 1566 1673 1732 1812 1693 1646 1737 1778 1729 1660 1774 1148 1557 1641 1652 1688 1567 1419 1292 1233 1172 1217 1257 843 898
158 323 129 0 0 11 26 49 42 69 174 132 66 97 141 102 22 6 41 335 367 130 940 1305 1476 1664 1626 1636 1568 1742 1606 1552 1581 1729 1653 1714 1399 1483 1515 1466 1538 1404 1248 1226 1317 1381 1136 823 714
76 30 30 103 16 34 282 258 88 160 153 71 39 92 89 37 4 33 80 182 78 463 710 1193 1500 1564 1744 1596 1658 1630 1659 1584 1585 1734 1805 1497 1534 1681 1604 1536 1374 1360 1227 1065 1200 1135 989 740 490
200 17 0 53 144 77 53 155 195 428 149 128 59 67 2 48 18 18 6 35 180 241 462 928 1417 1082 1296 1382 1468 1580 1667 1688 1696 1603 1396 1420 1627 1382 1289 1229 1160 1173 1126 1092 1050 1080 1268 1185 1085
64 25 1 62 169 0 0 41 102 365 134 172 190 49 1 0 16 2 5 33 90 91 715 913 751 1051 1052 1428 1505 1522 1566 1622 1636 1384 1297 1044 1133 958 1041 1150 1224 1152 1085 1077 1135 1228 949 786 822
12 5 10 102 62 68 0 0 0 164 364 310 103 132 22 24 67 0 30 40 42 145 393 762 248 855 891 1227 1227 1027 1254 1253 790 789 740 960 911 749 443 1136 1183 1076 1047 1065 1251 757 473 527 201
0 0 7 28 51 180 65 0 0 159 223 348 125 59 4 68 10 8 10 2 28 131 311 145 207 622 739 371 880 883 855 838 828 875 717 811 729 515 284 502 898 902 797 746 691 228 29 113 193
0 0 0 11 164 251 97 240 118 44 236 209 146 33 23 13 7 8 4 0 18 61 8 149 108 181 521 577 1013 948 961 1203 933 711 643 842 237 153 464 698 519 234 187 260 111 197 243 26 650
0 0 0 12 141 215 525 429 0 4 182 242 187 28 10 7 5 6 1 0 0 20 95 125 344 294 310 796 1048 887 755 1059 799 948 523 611 745 389 227 807 483 349 0 0 1 4 404 396 450
0 0 0 1 2 84 304 297 0 32 95 236 174 45 13 13 4 5 0 0 6 220 123 141 217 155 576 519 711 318 624 865 583 713 221 383 869 671 617 482 479 403 297 11 285 354 297 310 599
0 0 0 0 0 3 277 279 334 251 215 348 241 115 12 7 12 5 0 0 0 151 48 414 384 122 345 925 622 390 183 491 1052 1097 554 201 791 931 1308 669 219 429 41 273 481 203 295 260 649
0 0 0 0 0 0 136 144 269 203 487 306 263 227 89 9 12 10 0 0 0 128 35 38 446 578 129 730 754 202 27 8 717 939 1019 907 1295 911 905 920 529 499 288 326 587 317 339 154 524
0 0 0 0 0 0 4 258 290 63 45 306 304 207 228 58 43 7 0 0 0 42 14 3 6 503 99 565 282 499 307 308 992 863 1031 1357 1230 180 693 820 802 927 789 299 365 44 239 310 315
0 0 0 0 0 0 0 284 167 51 27 0 229 136 164 194 118 10 0 0 0 56 13 24 0 115 175 265 58 323 520 565 808 798 1106 1208 1271 945 677 712 858 1171 826 293 263 82 119 581 239
0 0 0 0 0 0 0 121 429 298 216 117 2 46 244 159 202 103 4 0 0 15 0 13 0 351 371 323 0 235 488 247 741 1060 1284 1182 1335 992 775 677 1115 1105 547 384 725 977 549 207 99
0 0 0 0 0 0 0 32 233 136 41 28 15 86 312 217 242 161 20 0 0 0 0 0 41 282 528 393 56 203 554 331 455 644 977 1567 1056 1086 938 785 1005 1049 923 1055 791 151 145 299 150
0 0 0 0 0 0 0 79 69 64 16 23 185 313 86 274 255 184 98 0 0 0 0 0 74 86 522 251 196 281 611 25 698 685 1113 970 1363 1161 1057 842 1326 1336 1088 580 712 108 220 265 9
0 0 0 0 0 0 0 0 54 49 43 21 183 152 166 23 194 273 124 1 0 0 0 36 130 108 216 319 53 189 357 73 381 739 1195 1105 1051 1347 1019 1192 1205 1226 1262 926 458 687 999 1029 168
0 0 0 0 0 0 0 0 0 78 77 51 65 51 4 17 30 171 156 92 0 0 0 0 253 190 41 355 0 43 142 225 458 877 827 472 1061 1402 1200 1565 1080 956 1171 991 905 1129 1309 1290 977
0 0 0 0 0 0 0 0 0 11 25 52 13 0 0 2 5 264 209 116 9 0 0 0 209 107 57 1 152 0 11 105 549 310 914 825 1115 1292 1458 1408 1099 984 1118 1496 1053 1521 1118 1095 1029
0 0 0 0 0 0 0 0 0 0 50 91 94 0 0 1 118 364 223 176 144 24 0 0 57 166 94 13 125 115 0 14 487 548 792 828 828 886 1393 1379 1251 1144 985 1149 1326 1428 1415 1358 1001
0 0 0 0 0 0 0 0 0 0 87 205 209 0 0 184 235 357 322 196 208 145 107 16 5 197 202 0 0 219 44 0 192 1023 873 947 867 723 683 1560 1167 938 862 1320 1110 1202 1305 1288 1150
0 0 0 0 0 0 0 0 0 0 0 105 86 24 5 237 345 362 356 239 232 265 188 257 58 101 352 135 0 60 350 0 44 257 1142 511 596 824 657 1133 1357 1099 1308 1182 1326 1225 1280 1420 1490
0 0 0 0 0 0 0 0 0 0 0 0 25 49 248 366 250 270 334 354 234 341 277 194 412 160 355 362 83 1 252 199 1 92 591 987 575 667 995 976 1335 1505 1337 1165 1557 1211 1344 940 1304
0 0 0 0 0 0 0 0 0 0 0 0 0 38 178 365 188 246 349 384 415 414 419 257 591 463 429 360 415 5 10 561 507 232 303 851 667 1202 988 1395 1324 1541 1300 1443 1665 1405 1254 1202 965
0 0 0 0 0 0 0 0 0 0 0 0 0 187 325 234 99 67 57 43 393 489 600 450 462 635 592 411 572 430 0 148 390 511 110 406 699 760 1762 1466 1167 1460 1526 1632 1553 1409 1404 1505 1407

GFSSGP_con_mlcape_078.txt.gz
CAPE
11 0 0 2 38 117 0 0 0 90 18 44 6 59 19 92 231 37 0 66 0 0 491 1099 1199 1227 1375 1440 1255 1596 1788 1710 1709 1528 1930 1712 1711 1726 1676 1117 1938 1287 1492 2022 1700 1870 2106 2295 2327
0 0 1 89 7 0 0 0 40 67 127 131 241 253 256 118 146 0 0 45 0 0 616 1227 1177 1408 1432 1310 1443 1605 1758 1891 1547 1821 1770 1406 1849 1718 1720 1270 1086 1622 1557 1741 1362 1964 1979 2202 1660
0 1 28 51 0 0 0 27 177 137 280 274 192 245 216 166 0 4 101 12 0 7 768 1121 1303 1345 1230 1363 1567 1704 1650 1531 1843 1837 1678 1621 1722 1582 1656 1724 1665 1453 1635 1604 1705 1934 1911 1654 1308
59 187 35 0 0 0 13 159 233 319 226 203 119 96 146 137 147 135 152 121 5 395 661 1227 1318 1325 1241 1209 1341 1529 1810 1881 1637 1785 1583 2046 1796 1539 1603 1615 1398 1702 1589 1440 1317 1727 1515 1345 1312
261 172 0 3 0 0 24 31 77 212 269 133 48 101 179 161 203 188 197 184 126 410 834 1177 1279 1469 1591 1830 1533 1765 1718 1792 1709 1886 1535 1383 1577 1642 1692 1562 1428 1325 1313 1346 1416 1484 1319 962 1099
230 156 9 12 0 4 2 3 180 219 225 171 136 47 96 127 191 154 208 233 325 429 1118 1472 1632 1728 1818 1680 1602 1766 1791 1759 1790 1817 1480 1762 1470 1481 1507 1543 1447 1379 1416 1372 1398 1365 805 481 1133
171 78 65 28 0 100 0 0 232 282 224 159 152 55 43 45 59 116 253 233 177 695 957 1183 1397 1671 1617 1479 1724 1579 1586 1699 1869 1789 1661 1466 1578 1370 1499 1578 1456 1333 1246 1373 1344 1277 1138 564 736
276 130 24 51 27 18 28 237 278 260 245 233 182 1 7 24 26 211 204 39 56 560 870 1020 1225 1480 1285 1568 1558 1652 1600 1652 1833 1856 1562 1474 1557 1500 1539 1224 1365 1275 1233 1208 1221 1148 1080 520 648
182 209 10 5 23 8 40 75 53 226 280 204 237 57 40 6 61 67 33 60 214 478 751 943 899 1013 1077 1193 1477 1580 1693 1755 1750 1368 1225 949 1089 998 1046 1058 1291 1255 1214 1310 1340 1258 937 739 930
72 147 13 24 6 54 0 3 158 81 177 209 180 146 51 41 39 23 21 3 2 161 506 787 470 556 1034 1282 1296 1230 1428 1238 1047 601 902 966 906 791 978 1214 1145 1188 1210 1058 1222 807 595 31 431
0 0 3 83 31 124 8 6 116 29 142 237 22 3 55 52 10 8 10 0 0 221 386 385 438 586 619 912 781 736 668 462 412 499 561 759 755 560 614 1093 1089 1073 1064 596 255 59 11 36 455
0 0 0 1 249 66 0 15 19 111 167 142 0 5 43 7 16 1 4 9 20 135 227 26 268 496 413 453 552 541 520 476 569 561 538 579 285 182 312 394 553 386 380 276 137 165 48 241 178
0 0 0 0 40 164 80 18 48 36 301 231 38 47 34 104 2 10 4 0 78 137 81 83 158 464 280 161 560 682 590 612 715 436 494 569 157 83 466 243 359 3 12 14 0 64 213 348 360
0 0 0 0 202 247 199 78 0 12 197 138 76 29 59 10 1 9 5 14 92 77 25 103 113 291 282 352 565 611 630 809 681 481 432 477 429 148 309 383 321 278 0 0 0 3 192 351 550
0 0 0 0 161 591 391 18 0 95 167 163 37 35 101 4 0 1 0 0 26 24 77 156 116 269 312 482 587 619 585 697 629 336 48 539 624 514 569 294 260 179 131 14 207 273 325 241 385
0 0 0 0 0 401 216 26 27 223 123 264 88 58 48 22 0 10 1 10 135 99 159 156 192 392 603 402 305 132 393 577 523 612 209 320 823 762 717 274 270 18 67 244 307 315 173 225 408
0 0 0 0 0 55 131 126 60 283 396 272 121 119 24 26 13 6 3 39 113 81 168 274 260 222 582 540 189 139 17 603 752 604 322 604 712 673 682 413 465 163 129 145 420 312 163 116 283
0 0 0 0 0 0 10 346 242 159 406 380 235 90 48 30 11 11 5 59 111 116 183 310 330 83 411 294 401 473 0 352 880 764 847 1129 564 152 531 724 461 603 433 251 373 32 235 366 167
0 0 0 0 0 0 0 168 141 62 257 338 191 137 71 84 68 11 6 5 102 94 102 174 319 28 371 120 150 393 267 435 816 721 1087 979 841 765 501 661 785 853 525 147 332 233 382 469 84
0 0 0 0 0 0 0 51 234 62 97 87 57 80 108 97 118 21 1 0 51 48 20 0 117 16 145 54 12 271 363 365 581 729 1035 1050 862 804 700 525 801 446 475 484 620 217 210 342 60
0 0 0 0 0 0 19 192 315 137 4 0 0 45 118 105 94 126 0 0 24 40 20 0 63 32 0 52 0 156 339 281 554 886 1025 1127 1094 870 773 682 896 781 685 792 414 69 241 48 24
0 0 0 0 0 0 0 0 250 220 61 48 12 42 130 183 150 169 4 0 12 43 24 40 82 167 133 15 0 82 411 94 438 502 618 1146 1022 989 837 783 1137 1017 923 415 445 535 763 762 19
0 0 0 0 0 0 0 0 0 55 41 0 17 123 109 220 202 205 66 0 0 0 35 70 39 191 233 4 34 17 156 202 69 522 672 796 1064 1002 944 793 1010 1008 967 809 546 986 1014 969 763
0 0 0 0 0 0 0 0 0 10 67 16 0 281 221 229 226 171 156 8 0 0 16 67 34 83 269 129 0 0 60 213 131 367 730 822 1011 1057 912 1162 848 717 911 687 604 838 1027 1017 944
0 0 0 0 0 0 0 0 0 0 22 65 32 406 209 281 177 186 185 99 0 0 0 128 84 42 123 236 32 0 13 58 214 472 669 622 658 1097 1237 1228 969 592 830 1118 951 1149 1086 733 841
0 0 0 0 0 0 0 0 0 0 0 45 81 256 121 38 79 167 226 209 17 0 0 93 152 68 56 160 185 0 0 9 117 452 700 742 546 770 1138 1235 1032 821 608 811 946 991 1133 1100 1012
0 0 0 0 0 0 0 0 0 0 0 7 86 66 71 0 2 128 252 245 78 21 0 9 160 99 82 57 0 85 0 0 9 361 893 771 593 568 783 1051 1078 828 658 719 963 817 942 919 876
0 0 0 0 0 0 0 0 0 0 0 4 148 113 46 35 5 104 327 296 196 69 13 6 33 136 110 63 17 0 19 119 0 36 540 920 640 509 550 903 977 831 626 718 752 877 870 914 949
0 0 0 0 0 0 0 0 0 0 0 0 0 0 7 30 54 273 421 357 228 158 96 31 1 72 225 164 34 0 0 147 159 3 96 795 815 568 696 689 943 955 785 911 983 940 925 936 747
0 0 0 0 0 0 0 0 0 0 0 0 0 0 0 53 70 301 483 392 282 265 211 161 103 18 168 271 183 0 0 1 254 154 16 164 936 775 646 693 932 975 986 1056 857 882 1039 1035 1040

GFSSGP_con_mlcape_081.txt.gz
CAPE
104 46 0 2 13 98 0 0 5 142 42 9 0 0 0 19 114 66 0 0 0 0 521 1069 1229 1183 1334 1526 1658 1660 1705 1672 1523 1912 1910 1393 1975 1647 1290 1744 1200 1693 1834 1842 1819 2178 2220 2144 2018
66 0 8 137 74 0 0 1 32 68 74 2 50 134 168 111 185 6 0 1 0 150 728 1143 1350 1425 1493 1526 1689 1818 1717 1758 1614 1887 1557 2049 1776 1838 1081 1502 1699 1727 1612 1686 1881 2106 2043 2067 1464
5 35 18 26 0 1 0 1 113 276 30 93 294 287 270 189 5 0 58 0 1 266 846 1270 1428 1508 1489 1477 1615 1754 1893 1481 1600 1829 1496 1682 1730 1684 1690 1533 1676 1604 1694 1644 1850 1949 1701 1482 1421
8 112 0 3 1 5 1 76 190 253 198 184 133 182 176 85 0 98 31 0 0 436 1045 1425 1496 1398 1371 1557 1838 1759 1452 1631 1759 1410 1728 1743 1319 1460 1647 1582 1626 1690 1721 1444 1802 1629 1523 1419 1495
136 114 1 9 1 10 11 53 165 182 208 145 152 139 55 164 153 78 9 0 2 554 1108 1417 1473 1441 1395 1395 1482 1656 1604 1676 1809 1603 1738 1501 1691 1556 1531 1328 1399 1616 1347 1412 1424 1359 1362 1236 1565
162 87 31 0 3 21 70 7 65 275 144 177 138 84 99 154 75 46 46 17 141 510 1134 1349 1441 1451 1780 1742 1800 1834 1900 1700 1866 1383 1402 1723 1567 1589 1521 1498 1477 1368 1302 1267 1238 1138 822 1244 1605
186 44 86 27 24 40 11 0 225 260 196 173 65 21 138 162 82 177 140 119 385 772 1017 1333 1716 1684 1823 1767 1684 1768 1764 1826 1899 1659 1708 1430 1475 1422 1610 1478 1392 1565 1432 1345 1253 985 887 1053 1302
201 213 56 40 35 44 21 84 214 298 265 133 26 5 89 136 158 217 180 274 491 815 1035 1174 1570 1569 1409 1527 1704 1678 1760 1895 1818 1625 1463 1353 1404 1508 1618 1317 1411 1260 1294 1289 1235 982 807 978 1114
257 126 42 39 15 75 264 154 134 171 187 117 136 65 103 78 166 119 101 191 310 633 877 1111 1201 1177 1346 1474 1588 1545 1739 1919 1865 1585 1431 1458 1240 1226 1139 1289 1404 1370 1289 1319 1232 1320 1034 1067 1181
106 119 89 78 76 27 59 118 50 77 152 201 99 44 45 110 135 63 23 0 26 294 742 882 1112 879 1159 1362 1530 1445 1608 1684 1375 1165 1223 941 827 925 992 1277 1359 1371 1444 1684 1332 842 546 528 639
5 52 87 47 127 25 15 66 10 1 50 282 73 4 63 96 89 71 4 0 0 265 630 744 734 654 954 1097 1339 1288 1379 941 888 773 936 859 712 911 1126 1215 1059 1119 1212 763 155 53 2 374 457
0 0 1 0 148 7 26 84 26 2 211 297 115 16 62 77 68 63 1 0 3 109 400 443 338 644 773 1040 915 932 812 675 541 626 625 708 488 408 688 702 650 631 535 169 76 2 154 309 275
0 0 0 0 2 33 28 31 40 15 152 359 139 58 35 53 51 42 0 0 2 86 206 305 265 517 507 622 601 712 623 537 558 562 575 425 161 116 343 373 271 175 162 0 3 65 217 261 277
0 0 0 0 0 54 62 33 7 15 292 255 64 72 23 22 50 42 8 0 0 102 17 0 258 414 439 284 270 350 499 631 743 530 563 489 189 105 400 215 275 15 0 0 0 0 231 322 463
0 0 0 0 76 252 100 84 27 91 237 190 60 89 41 1 28 23 0 0 0 19 31 0 154 317 273 193 449 576 656 801 781 742 447 507 333 64 367 320 262 324 20 0 53 266 344 339 338
0 0 0 0 280 632 200 81 9 270 215 209 113 130 150 57 20 14 1 0 43 4 9 39 188 332 323 250 480 617 665 730 801 715 193 464 655 438 366 258 252 140 89 68 127 158 191 258 249
0 0 0 0 221 92 184 52 39 114 266 239 148 96 122 28 18 0 3 0 45 20 24 77 151 290 338 330 427 431 417 658 805 584 66 482 715 659 495 259 186 26 42 135 260 285 150 209 369
0 0 0 0 0 11 53 37 83 175 321 246 118 63 105 0 0 0 0 0 13 16 69 85 122 211 404 437 303 245 128 408 658 695 359 676 705 714 541 322 290 115 112 118 202 141 117 162 187
0 0 0 0 0 0 0 0 67 237 448 312 126 127 98 11 0 0 0 0 23 10 65 104 144 218 494 254 289 412 248 352 780 707 746 1086 564 396 551 438 311 633 360 206 288 107 157 366 37
0 0 0 0 0 0 0 0 116 246 442 341 189 174 131 51 0 11 7 44 20 44 64 117 141 120 396 269 310 461 321 263 668 722 905 940 827 708 607 521 645 627 448 161 314 146 321 229 31
0 0 0 0 0 0 8 0 133 122 101 182 214 98 147 111 12 0 0 86 50 71 41 68 123 47 200 152 172 210 293 322 551 722 769 818 843 637 704 569 679 416 292 316 458 59 193 26 20
0 0 0 0 0 0 0 0 1 132 22 182 29 47 52 157 73 0 0 59 63 90 48 76 205 40 56 90 43 141 336 330 440 636 782 1067 1047 938 823 610 804 637 598 609 291 45 154 166 8
0 0 0 0 0 0 0 0 0 173 239 78 121 36 14 102 120 35 0 5 28 60 63 0 71 65 25 12 22 18 243 190 321 544 816 890 986 1092 941 694 879 695 919 463 386 398 589 568 95
0 0 0 0 0 0 0 0 0 0 0 32 47 9 30 55 121 134 11 0 6 29 42 11 11 0 0 24 0 0 69 239 152 216 579 588 928 988 981 907 880 931 854 564 376 679 654 826 624
0 0 0 0 0 0 0 0 0 0 0 0 21 163 33 100 105 189 44 0 0 20 37 29 5 10 14 6 0 3 0 69 174 135 317 634 803 922 973 949 898 817 875 797 547 801 853 837 782
0 0 0 0 0 0 0 0 0 0 0 0 0 51 37 110 45 173 91 1 0 1 35 48 10 43 58 36 0 0 0 3 47 188 280 578 737 933 1048 992 1072 817 661 1000 883 1015 784 1005 759
0 0 0 0 0 0 0 0 0 0 0 0 0 0 17 80 128 217 134 40 0 0 17 30 10 0 51 70 3 0 0 0 4 53 277 550 661 669 821 1089 1147 1047 768 748 948 885 903 1012 941
0 0 0 0 0 0 0 0 0 0 0 0 0 0 0 0 27 30 72 104 29 1 0 32 51 21 0 48 95 21 0 0 0 0 148 596 680 674 566 978 1112 1143 978 670 805 935 809 954 813
0 0 0 0 0 0 0 0 0 0 0 0 0 0 0 0 0 0 30 109 85 36 7 13 107 75 24 0 60 78 39 0 0 0 0 163 802 699 654 695 986 1014 1057 877 628 647 850 946 839
0 0 0 0 0 0 0 0 0 0 0 0 0 0 0 0 0 0 3 52 186 73 75 45 40 126 56 32 6 0 1 16 0 0 0 0 79 498 766 579 754 891 956 952 827 845 913 927 843

GFSSGP_con_mlcape_084.txt.gz
CAPE
105 6 0 0 3 21 3 1 0 81 6 0 0 0 0 0 20 25 0 0 0 80 787 1079 1196 1232 1402 1618 1746 1774 1726 1421 1832 1991 1480 1883 1628 1386 1313 1382 1626 1831 2013 1864 2185 2182 2178 2007 2160
49 0 0 58 14 1 0 1 86 95 43 0 8 0 28 1 117 0 0 0 0 164 797 942 1140 1350 1450 1662 1758 1761 1731 1587 1806 1744 1593 1840 1788 1214 1893 1420 1439 1904 1786 2013 2052 2103 2040 1762 1739
2 37 31 65 3 3 5 47 190 49 0 23 198 179 203 68 2 0 0 0 5 288 725 995 1249 1443 1491 1698 1753 1756 1873 1501 1733 1643 1783 1741 1657 1396 1216 1371 1677 1644 1579 1923 2032 1887 1713 1720 1717
14 61 0 0 15 28 2 61 247 125 123 185 213 134 4 1 0 0 0 0 33 380 647 1323 1490 1570 1465 1569 1673 1819 1720 1454 1781 1460 1495 1703 1451 1398 1597 1561 1621 1708 1560 1785 1849 1696 1701 1717 1713
77 15 2 4 16 15 12 29 30 131 184 128 195 60 1 40 76 0 0 0 27 321 732 1319 1466 1267 1422 1821 1754 1432 1586 1619 1665 1513 1641 1493 1464 1595 1488 1331 1432 1311 1323 1624 1485 1649 1549 1620 1747
168 73 43 1 10 24 9 0 6 138 218 161 46 18 61 56 0 0 0 11 149 365 956 1164 1346 1379 1384 1326 1441 1604 1539 1703 1768 1718 1497 1338 1474 1346 1265 1364 1357 1303 1383 1377 1414 1309 1545 1747 1701
188 43 76 4 30 3 0 0 103 200 170 180 29 35 41 49 0 0 0 73 338 716 774 1135 1178 1227 1656 1320 1393 1534 1574 1733 1469 1475 1502 1531 1562 1409 1210 1399 1419 1347 1268 1239 1143 1150 1325 1550 1500
155 138 60 9 16 5 21 21 186 330 133 56 29 3 2 26 31 0 0 146 454 620 672 900 1458 1449 1498 1410 1548 1701 1738 1814 1722 1487 1434 1452 1526 1218 1388 1172 1438 1394 1277 1181 1098 1125 1330 1349 1447
215 75 30 18 10 43 224 219 298 111 130 148 86 32 23 49 51 0 0 186 357 472 621 1127 1283 1245 1225 1213 1472 1638 1549 1704 1649 1485 1337 1297 1284 1192 1236 1325 1244 1319 1304 1178 1159 1278 1322 1468 1649
135 98 48 99 107 34 100 98 66 16 94 57 65 46 37 28 20 0 13 73 209 299 566 842 1014 879 1088 1302 1325 1272 1486 1597 1502 1284 1126 1042 920 933 1042 1293 1231 1465 1596 1471 1407 1152 1195 797 1139
100 54 104 89 94 38 89 110 5 0 6 173 26 0 50 54 15 5 0 0 8 100 502 648 745 756 976 1043 1166 1143 1290 1186 1059 1018 853 792 801 968 1086 1068 1121 1452 1392 1025 576 92 290 436 721
0 1 12 25 87 21 40 50 15 0 103 100 0 35 47 46 5 0 0 0 0 55 314 417 638 489 767 832 959 965 1008 648 722 728 782 616 469 736 718 870 928 973 422 31 9 3 281 408 447
0 0 0 0 0 13 68 28 74 2 148 50 8 11 17 0 0 0 0 0 0 13 232 254 290 237 524 614 685 753 765 548 517 570 569 568 238 188 490 673 635 415 197 55 16 137 267 284 444
0 0 0 0 0 53 49 63 70 14 265 91 8 0 4 2 5 8 0 0 0 0 59 142 22 255 408 432 354 380 537 476 485 537 521 353 154 199 390 433 366 90 57 0 5 60 315 261 506
0 0 0 0 0 23 66 43 13 57 446 353 17 2 2 27 18 18 0 0 0 0 45 43 0 149 171 172 226 281 357 468 598 639 436 564 318 183 326 363 330 188 0 0 13 336 359 337 460
0 0 0 10 109 122 67 81 34 252 371 304 74 33 17 22 7 5 0 0 0 0 0 0 76 94 110 70 74 169 306 492 589 584 432 397 416 159 266 433 373 288 157 4 153 267 274 256 284
0 0 0 0 265 116 83 38 9 302 448 292 158 85 13 2 2 8 1 0 0 0 0 0 0 24 67 81 109 345 468 452 462 525 463 338 534 378 359 287 277 93 131 308 290 290 183 211 356
0 0 0 0 12 31 18 2 39 139 456 345 147 135 41 0 20 32 0 0 0 0 0 0 6 23 98 127 74 151 265 286 511 625 398 205 662 539 518 273 236 42 47 97 335 280 188 255 231
0 0 0 0 0 0 0 0 0 71 377 362 185 130 85 23 1 23 0 0 2 9 2 0 0 45 135 171 211 192 203 131 423 514 516 288 637 588 414 351 318 228 253 206 235 133 229 384 87
0 0 0 0 0 0 0 0 0 211 187 356 306 174 96 89 36 6 0 6 0 1 0 7 4 16 104 217 225 229 153 105 359 537 622 689 684 342 474 556 317 490 396 177 266 195 241 375 59
0 0 0 0 0 2 0 0 0 149 281 356 384 222 146 117 28 31 2 0 0 0 41 42 25 8 99 180 125 174 177 109 356 549 599 810 750 661 402 652 594 498 412 184 266 188 296 182 42
0 0 0 0 0 0 0 0 0 66 285 393 281 260 168 122 35 16 3 0 32 27 72 108 86 32 142 89 133 232 224 153 185 458 558 672 757 725 613 658 551 409 358 289 472 126 133 57 36
0 0 0 0 0 0 0 0 0 0 44 217 289 201 137 96 123 5 1 22 46 20 34 93 125 84 156 153 105 141 144 181 180 374 521 617 779 928 861 654 464 421 640 571 527 143 529 575 225
0 0 0 0 0 0 0 0 0 0 0 0 130 287 146 102 103 73 0 0 14 8 15 69 146 107 76 98 30 62 100 90 155 241 386 553 716 787 961 843 609 590 563 592 437 363 687 696 540
0 0 0 0 0 0 0 0 0 0 0 0 0 66 145 122 60 83 36 0 0 0 11 34 83 140 109 59 31 0 9 117 101 57 196 370 487 605 733 829 830 699 746 792 397 462 627 798 727
0 0 0 0 0 0 0 0 0 0 0 0 0 5 25 71 40 27 118 1 0 0 0 22 18 87 118 70 0 0 0 1 121 94 46 101 402 581 583 748 833 856 770 837 516 625 639 764 782
0 0 0 0 0 0 0 0 0 0 0 0 0 0 4 19 52 26 45 57 0 0 8 9 2 28 92 74 0 0 0 0 0 78 140 148 215 496 688 806 835 841 740 592 832 720 550 605 793
0 0 0 0 0 0 0 0 0 0 0 0 0 0 0 0 44 105 114 105 0 0 0 7 18 15 50 70 24 1 0 0 0 0 37 167 254 357 542 716 807 889 929 746 567 842 744 820 897
0 0 0 0 0 0 0 0 0 0 0 0 0 0 0 25 0 26 185 132 25 0 0 0 0 0 14 83 66 34 3 0 0 0 0 36 190 305 469 590 685 804 946 898 773 540 791 773 870
0 0 0 0 0 0 0 0 0 0 0 0 0 0 0 77 30 0 0 138 67 0 0 16 3 0 12 33 84 60 10 0 0 0 0 0 70 238 503 598 615 714 843 914 918 731 522 453 633

GFSSGP_con_mlcape_087.txt.gz
CAPE
16 0 0 1 0 15 12 5 11 54 1 0 0 0 0 0 18 76 0 0 0 80 430 628 1205 1284 1397 1647 1591 1664 1321 1522 2077 1669 1551 1670 1317 1151 1340 1745 2024 2096 2124 2342 2328 2313 2194 2299 2078
2 0 0 27 0 13 9 49 152 91 14 0 0 0 34 0 94 0 0 0 6 214 468 716 1160 1292 1474 1682 1571 1633 1561 1747 1799 1442 1869 1836 1300 1818 1634 1348 1902 2008 2100 2274 2345 2138 1967 1885 2025
0 20 56 19 0 31 14 98 264 68 0 1 139 115 268 12 1 0 0 0 97 401 634 961 1188 1314 1497 1625 1692 1614 1550 1565 1558 1420 1666 1670 1521 1206 1700 1663 1736 1756 2042 2138 2219 2017 1897 1740 1359
3 36 0 7 4 23 28 125 110 11 121 259 185 28 3 0 0 0 0 0 94 419 555 1056 1343 1316 1478 1557 1552 1680 1429 1397 1710 1534 1314 1517 1332 1531 1588 1491 1703 1723 1863 2049 1870 1927 1949 1894 1916
49 10 0 9 9 17 6 66 23 155 170 184 219 21 4 18 19 0 0 0 70 213 625 978 1412 1472 1420 1580 1697 1687 1378 1631 1367 1460 1616 1561 1450 1490 1465 1362 1386 1479 1707 1743 1871 1803 1764 1850 1774
149 49 19 8 15 47 6 0 20 216 230 70 27 38 18 18 0 0 0 0 55 183 630 941 1211 1322 1540 1708 1350 1510 1504 1550 1445 1614 1559 1447 1400 1513 1512 1434 1411 1510 1573 1674 1643 1664 1682 1474 1607
199 56 54 31 14 0 0 2 169 274 246 174 46 80 2 4 0 0 0 18 72 373 723 1010 1027 1438 1217 1477 1487 1482 1516 1311 1611 1429 1470 1353 1075 1266 1372 1412 1286 1174 1366 1421 1421 1592 1717 1590 1519
176 110 51 11 0 3 8 30 310 386 157 77 79 2 0 4 0 0 0 43 196 522 826 1132 913 1241 1383 1454 1477 1511 1562 1535 1376 1445 1544 1485 1222 1263 1008 1117 1406 1334 1339 1306 1434 1673 1587 1508 1544
141 59 31 46 32 42 60 93 298 100 132 122 85 10 0 1 0 0 3 95 331 515 689 646 1117 1429 1426 1401 1383 1438 1504 1284 1357 1393 1349 1429 1364 1250 1173 1298 1413 1396 1305 1272 1444 1587 1472 1474 1762
69 99 42 65 92 51 119 235 109 160 158 117 65 18 7 0 0 0 1 63 164 343 509 1013 1019 1121 1212 1114 1336 1368 1422 1367 1372 1447 1506 1534 1540 1259 1251 1374 1591 1641 1324 1613 1495 1350 1053 1406 1594
48 111 92 52 106 113 80 94 0 12 57 133 51 4 6 0 0 0 0 0 101 236 496 889 1055 980 1129 1373 1277 1197 1365 1503 1356 1532 1388 1296 1298 1261 1508 1456 1659 1740 1575 1016 708 717 933 1255 1448
0 6 34 13 72 25 83 18 0 50 167 189 71 8 0 0 0 0 0 61 121 157 448 845 897 1025 1137 1287 1057 1098 1231 1261 1124 1330 1403 1288 976 1196 1438 1548 1721 1368 806 674 464 796 995 1029 1118
0 0 0 0 35 12 91 13 12 80 208 120 54 0 0 0 0 0 0 51 90 9 424 618 900 923 1058 1214 1105 1009 1029 815 1051 1126 1137 1059 827 963 1304 1426 1340 1094 658 562 496 891 818 996 1091
0 0 0 0 0 2 29 71 101 88 99 106 31 0 7 6 0 0 3 21 0 43 305 505 723 653 885 867 970 949 924 950 914 1024 1083 953 767 858 892 1013 919 891 679 441 454 875 901 915 1121
0 0 0 2 0 13 98 21 31 148 92 101 93 63 38 31 0 0 0 0 0 80 303 396 398 480 627 661 809 747 784 807 998 1140 983 995 650 706 679 758 956 577 262 423 447 962 1002 987 1053
0 0 0 82 8 97 91 150 73 271 188 119 58 33 13 22 0 0 0 0 0 0 118 342 57 294 525 451 621 601 704 828 1164 1192 996 1040 1036 899 727 611 968 1006 390 291 818 938 939 883 936
0 0 0 22 283 121 167 126 208 448 562 255 101 12 6 27 39 56 11 0 0 0 45 190 231 232 340 417 466 561 684 924 1149 1165 1003 945 976 940 786 970 1001 791 649 812 900 877 808 843 912
0 0 0 0 145 237 144 107 102 413 523 442 239 76 6 27 68 111 111 0 0 0 26 116 173 325 331 514 427 616 877 977 1138 1114 1175 716 1143 961 905 877 860 538 686 811 914 932 793 876 844
0 0 0 0 0 0 0 0 0 211 541 464 359 171 62 25 40 104 148 37 0 0 0 0 0 172 335 334 355 507 625 774 844 1237 1138 551 708 782 1092 915 859 544 527 742 900 725 843 934 604
0 0 0 0 0 0 0 0 7 187 338 567 347 227 131 40 43 113 154 103 67 2 0 25 22 147 325 470 614 739 786 691 1003 1226 1117 1011 960 919 1130 923 746 993 904 817 783 668 688 969 471
0 0 0 0 0 1 0 0 0 158 379 569 379 312 203 153 79 97 70 82 86 52 1 0 51 132 353 525 564 572 609 675 757 1057 1125 1281 1393 1003 947 828 899 1020 1004 705 779 613 889 741 451
0 0 0 0 0 0 0 0 0 55 293 412 557 426 282 230 209 143 114 75 98 78 5 49 130 179 362 477 472 596 615 607 720 1004 1189 1297 1354 1346 1129 1254 762 1095 973 693 980 761 698 527 448
0 0 0 0 0 0 0 0 0 0 16 420 518 547 387 267 271 184 172 99 96 116 82 105 162 247 312 423 543 657 683 696 710 970 1179 1244 1334 1468 1345 1288 1156 661 966 875 1035 727 800 1089 638
0 0 0 0 0 0 0 0 0 0 0 0 179 504 397 313 266 180 129 124 105 129 112 127 196 228 316 391 474 608 602 617 626 749 942 1154 1413 1528 1625 1440 1172 1084 1158 1251 1146 790 1098 1326 1109
0 0 0 0 0 0 0 0 0 0 0 0 0 149 427 359 285 277 124 75 80 134 115 138 206 187 268 332 430 551 639 668 598 768 840 964 1262 1388 1512 1487 1315 1296 877 1245 1129 1052 1224 1240 1340
0 0 0 0 0 0 0 0 0 0 0 0 0 73 158 334 375 278 245 95 54 116 139 142 147 177 227 259 402 536 553 600 589 805 768 909 1064 1244 1526 1348 1653 1608 1291 924 1029 1183 1515 1532 1560
0 0 0 0 0 0 0 0 0 0 0 0 0 0 0 81 185 346 271 189 81 158 177 150 161 194 256 237 324 389 411 352 409 670 739 706 887 1164 1383 1299 1343 1549 1552 1439 1201 1204 1101 1346 1651
0 0 0 0 0 0 0 0 0 0 0 0 0 0 58 53 67 42 232 279 118 117 237 213 182 163 229 302 363 329 346 275 206 412 637 701 704 801 1136 1406 1463 1325 1513 1449 1319 1376 1516 1280 1489
0 0 0 0 0 0 0 0 0 0 0 0 0 0 22 140 151 100 40 203 222 75 137 246 239 195 194 279 440 428 320 275 151 143 277 701 828 835 938 1258 1388 1384 1424 1632 1588 1483 1573 1357 1228
0 0 0 0 0 0 0 0 0 0 0 0 0 0 0 88 364 292 13 9 367 323 80 221 235 247 239 289 342 392 374 241 173 121 112 330 586 916 913 1076 1297 1488 1536 1597 1642 1629 1343 1266 1386

GFSSGP_con_mlcape_093.txt.gz
CAPE
0 0 6 0 73 490 330 334 161 183 103 53 0 3 16 661 589 187 0 0 197 184 302 847 1334 1430 1649 1552 1114 1615 2200 1759 1535 1590 1304 1067 1504 1792 2050 2180 2215 2388 2383 2232 2281 2132 2032 1999 1873
7 0 1 359 265 273 235 338 207 132 101 0 0 0 201 407 163 0 0 1 186 134 143 483 1350 1479 1782 1623 1405 1642 1996 1577 1915 1948 1356 1913 1780 1412 1773 2310 2219 2278 2396 2130 2112 2155 2060 2033 2028
130 0 173 290 218 157 281 169 210 72 4 5 24 190 725 226 0 0 0 18 148 40 116 826 1479 1674 1615 1716 1647 1614 1617 1547 1919 1884 1657 1338 1889 1727 1836 1851 2031 2198 2218 2163 2047 1884 2065 2219 1956
0 158 291 125 113 233 293 134 366 45 225 66 212 349 248 69 0 0 2 20 117 164 464 910 1420 1573 1716 1727 1799 1566 1858 1517 1601 1761 1625 1695 1759 1703 1663 1901 2111 2198 2026 2212 1951 1378 2091 1841 1800
139 424 180 66 0 45 139 146 44 83 311 186 206 351 132 3 1 0 5 106 202 374 489 688 1398 1569 1705 1895 1718 1555 1592 1609 1606 1645 1675 1672 1721 1663 1628 1718 1869 1926 2067 2035 1877 1703 1866 1958 1845
270 615 71 51 9 33 164 236 485 153 525 186 407 271 179 12 0 1 43 113 191 347 235 576 1274 1510 1718 1720 1495 1608 1502 1615 1566 1412 1537 1573 1607 1584 1583 1727 1688 1791 1888 1914 1981 1937 1739 1960 1961
449 429 84 7 24 38 78 180 440 555 309 133 455 465 79 1 0 1 85 103 182 237 479 642 847 1280 1572 1378 1532 1620 1610 1541 1414 1434 1388 1442 1780 1644 1560 1603 1594 1699 1761 1880 1959 1811 1753 1740 2136
661 513 56 74 8 4 56 212 178 291 534 546 537 226 0 0 0 4 61 84 109 394 396 544 724 1075 742 1241 1520 1497 1551 1382 1330 1547 1374 1433 1285 1444 1461 1349 1556 1614 1719 1859 1850 1672 1473 2106 1954
441 404 117 72 154 41 70 119 90 199 516 422 478 112 0 0 4 24 44 71 178 188 501 514 467 751 1013 999 1196 1396 1454 1251 1306 1264 1410 1408 1186 1327 1270 1256 1568 1595 1742 1760 1757 1607 1699 1513 909
318 407 172 85 99 155 147 140 27 251 399 485 269 0 0 0 6 15 31 68 84 224 354 266 718 731 1062 915 1285 1089 1066 1288 1170 990 1500 1245 1320 1287 822 1081 1440 1614 1746 1444 1121 1459 1703 1892 1000
277 391 138 78 261 267 122 220 77 151 426 415 56 0 0 0 4 12 31 47 106 160 203 765 728 976 902 635 809 1013 864 871 1129 987 1187 1125 723 1042 902 1121 947 1025 1342 948 1019 1310 1404 1179 541
196 215 114 52 23 193 435 469 316 423 509 518 135 0 0 0 2 9 26 38 122 189 285 684 598 723 1048 557 836 653 672 566 567 788 843 952 992 1043 793 1043 519 585 1242 1052 1293 1312 1185 1036 652
51 207 54 0 14 160 459 233 302 502 651 614 211 0 0 0 2 13 23 34 117 175 253 507 618 1065 909 661 753 795 646 772 582 738 719 842 786 829 817 757 746 680 914 1075 1192 1252 1363 1157 710
0 245 60 10 3 173 162 248 489 487 752 519 76 0 0 0 0 9 22 76 105 110 168 359 730 999 958 931 951 1032 1140 750 799 761 813 881 681 943 714 758 860 792 1016 973 1409 1551 1239 1168 538
0 206 55 0 0 5 366 215 482 568 623 275 31 0 0 0 0 3 13 62 100 61 171 254 492 657 833 689 813 1154 995 711 1040 1244 1312 1409 1216 1214 1040 1120 926 797 1300 1354 1295 1413 1394 502 501
0 84 78 36 0 10 274 119 495 521 555 230 34 0 1 0 0 1 10 16 39 21 167 266 158 571 642 545 719 619 781 1173 1110 1058 1042 1146 1437 1463 1717 1040 1359 1034 930 919 1053 1144 982 857 722
0 89 89 78 41 19 218 248 463 507 597 231 55 0 5 5 6 6 5 5 0 36 180 194 205 391 480 749 754 601 1087 1124 1185 999 1315 1169 1218 1270 1469 1082 1606 1608 653 804 1001 1007 729 595 338
0 158 73 132 109 54 338 554 584 504 671 443 154 39 31 25 15 1 1 1 0 25 230 187 202 488 525 829 763 641 589 1097 1235 1036 1437 1146 1229 1141 1334 1299 1535 1737 682 772 1292 993 1032 803 588
0 91 68 91 102 126 274 419 896 674 599 697 519 225 120 182 52 0 0 0 0 2 131 200 199 664 660 649 379 487 772 1190 1196 1157 1690 1474 1236 1274 1578 1428 1390 1690 891 1437 1340 943 1321 885 593
0 39 58 92 105 93 216 343 448 903 837 444 776 585 346 200 13 5 4 3 1 0 37 226 362 861 856 607 475 417 884 863 1062 1145 1371 1356 1304 1400 1448 1379 1021 1268 1167 1502 1253 1251 956 655 866
0 36 87 129 0 1 16 94 158 166 510 870 808 644 326 89 6 63 64 21 14 3 0 179 470 896 1082 809 1084 1109 1300 1054 1151 1370 1362 1445 1525 1355 1603 1773 1454 1412 1460 1199 1418 1329 1322 937 510
0 2 49 10 0 36 3 72 97 95 206 641 919 947 426 155 45 134 158 187 102 9 0 65 441 726 1184 1172 1062 989 773 731 958 1149 1381 1375 1508 1447 1332 1590 1802 1508 1153 1560 1172 1029 1330 683 515
0 0 37 28 0 55 20 7 28 213 242 427 547 787 656 323 302 241 287 285 230 98 0 4 445 631 955 1269 1602 1210 1167 745 1010 1253 1517 1625 1677 1891 1438 1470 1651 1660 1773 1005 1024 1834 1615 329 750
5 1 3 16 2 12 11 17 55 105 124 131 401 642 771 583 513 314 318 412 366 172 88 0 463 905 1008 1295 1495 1664 1184 1126 1104 1082 1411 1297 1298 1506 1501 1585 1540 1633 1720 1246 1408 1387 1678 1762 1324
30 8 0 0 0 2 0 0 85 57 33 51 33 546 619 784 626 502 439 519 442 241 231 357 524 1011 1225 1264 1487 1636 1671 1177 1157 1457 1208 1015 1107 1333 1719 1789 1565 1476 1654 1358 1404 1742 1637 1485 968
12 3 1 0 0 0 1 56 36 46 87 154 199 374 537 675 781 791 640 655 545 476 478 366 1007 1247 1411 1266 1481 1882 1894 1544 986 997 679 869 759 1061 2041 1598 1652 1627 1568 1385 1537 1612 1363 1133 1223
15 2 1 17 4 0 60 25 43 62 116 257 344 719 855 524 880 971 635 814 711 696 773 643 1050 1455 1643 1708 1679 1854 2085 1913 1126 744 799 1277 1213 756 1856 1273 1571 1480 1525 1478 1848 1710 1196 1436 1285
0 3 1 3 14 11 22 2 49 58 88 154 478 724 628 726 825 729 674 920 923 931 898 987 1089 1435 1606 1801 1762 1760 1893 2074 1978 1366 1111 571 629 1181 1026 1589 1146 1555 1514 1632 1753 1077 1600 1386 1304
0 0 4 44 3 42 13 58 12 71 44 194 226 257 290 391 363 627 764 432 726 1097 970 980 1194 1429 1609 1801 1792 1778 1809 1892 2068 1810 1556 1361 933 1117 1227 1282 1366 1497 1535 1747 1709 1560 1683 1444 1579
0 0 26 14 0 0 3 0 18 40 37 292 81 19 32 56 105 142 241 487 816 933 1074 1202 1012 1131 1309 1637 1785 1737 1766 1779 1782 1908 1706 1552 1494 1262 1205 1450 1866 1973 1822 2038 1952 1618 932 1628 1558

GFSSGP_con_mlcape_096.txt.gz
CAPE
0 0 0 18 0 125 105 161 332 155 122 21 24 118 447 465 312 58 72 341 158 349 802 1005 1128 1105 1058 1027 1626 2030 1583 1562 1389 1232 1079 1523 1828 2053 2275 2348 2332 2268 2293 2186 2141 2028 1982 1985 1583
0 0 3 105 82 183 161 200 118 101 14 2 2 271 23 25 13 8 36 222 73 184 330 563 1394 1511 1411 1234 1792 1818 1549 1945 1841 1345 2094 1653 1449 1767 2284 2234 2297 2304 2133 2168 2119 2108 2121 1956 1364
193 1 20 153 326 128 43 301 148 58 0 0 574 459 0 0 0 0 21 36 0 87 405 1070 1238 1568 1464 1446 1675 1547 1521 1881 1806 1494 1573 1998 1579 1870 1949 1977 2261 2247 2108 2061 1958 2218 2106 1777 1035
267 1 191 236 131 297 122 298 113 65 28 271 160 101 0 10 0 0 15 8 7 435 455 1252 1481 1533 1546 1539 1536 1611 1554 1662 1723 1701 1828 1730 1763 1662 1887 2042 2111 2220 2243 1826 1856 2031 1719 1457 1056
46 318 145 136 8 157 296 411 286 184 77 215 189 0 0 20 0 1 25 26 58 314 471 1102 1461 1520 1532 1584 1546 1542 1574 1494 1747 1722 1809 1819 1761 1804 1819 1879 1955 2106 2004 1902 1877 2104 1883 1512 1305
79 152 47 45 20 77 194 274 108 276 216 264 23 0 0 10 9 7 57 109 477 168 306 706 1561 1718 1708 1405 1663 1401 1648 1617 1533 1703 1626 1669 1605 1649 1674 1718 1905 1967 1927 2001 1913 2076 2032 1412 953
142 235 81 19 9 33 120 333 371 276 99 184 132 1 0 9 16 55 70 316 103 107 357 630 942 1568 1479 1364 1561 1465 1479 1468 1491 1438 1694 1826 1752 1609 1651 1623 1770 1885 2035 2085 1948 1679 1601 1378 903
329 281 27 2 14 38 141 460 254 305 202 394 171 0 0 3 24 74 76 116 309 391 491 780 986 1223 841 1379 1515 1507 1487 1360 1398 1448 1373 1513 1519 1522 1408 1513 1711 1771 2035 1954 1779 1635 1357 638 701
319 197 15 7 0 21 133 114 80 131 382 287 564 0 0 0 16 45 74 247 315 151 515 389 964 916 1100 1069 1242 1322 1190 1378 1256 1222 1245 1159 1264 1336 1332 1529 1743 1726 1928 1836 1676 1522 1241 687 808
219 41 106 57 58 28 96 4 3 23 390 389 5 0 0 0 17 56 67 126 303 421 282 555 696 721 1104 523 1219 1183 904 1160 1194 1151 1043 820 1105 895 779 1504 1673 1757 1455 1568 1684 1205 1235 1263 922
153 43 170 176 197 119 77 10 0 38 324 335 0 0 0 0 31 42 76 84 182 303 347 673 580 928 743 925 1326 1127 1255 1411 1092 1165 1252 1314 1199 863 392 938 1249 1162 1164 934 425 1188 1680 2031 1513
164 22 47 308 340 234 187 73 111 149 59 174 5 0 0 3 27 39 53 94 43 336 706 519 906 448 646 827 549 1112 1054 990 889 737 1242 709 594 1025 449 1233 963 1358 623 351 0 996 1288 888 529
65 0 138 63 322 339 323 124 356 10 112 333 29 0 0 6 25 46 36 62 149 272 639 848 835 891 1116 351 988 934 513 621 479 756 763 924 742 559 900 1047 799 836 1104 1276 1002 1393 1256 1152 591
59 286 162 24 145 558 428 190 391 110 400 146 0 0 1 5 26 50 59 27 87 387 393 782 879 854 986 565 520 1143 440 626 685 845 965 663 846 658 614 971 788 780 1257 1336 1547 1333 1088 1063 552
0 10 233 52 100 428 341 299 337 561 361 102 0 0 3 8 30 37 35 45 50 124 362 755 496 676 1075 1009 1291 836 1072 911 654 1029 1347 1248 1049 746 805 807 1138 1390 1426 1004 1311 1431 1456 832 496
0 4 315 45 28 342 312 224 563 543 344 105 1 2 2 16 16 26 24 53 8 117 232 270 177 629 1081 603 1046 1084 902 843 784 655 1187 1484 1457 1386 795 1214 1072 1010 782 1274 1457 1655 904 831 619
0 19 149 56 35 324 317 42 462 636 350 125 20 2 4 8 11 26 23 45 3 159 264 112 414 388 769 421 962 1100 1146 1018 216 118 979 1287 1442 1491 1233 1166 1276 799 1017 869 892 707 598 878 414
0 0 97 113 22 209 200 165 357 681 391 147 42 5 10 5 14 13 17 27 0 98 257 222 289 470 935 559 1288 1119 1106 1258 657 817 728 1136 1286 1377 1491 1392 1400 1753 932 1238 1022 1527 1168 1030 413
0 0 135 37 0 215 63 0 479 662 496 200 60 12 13 15 24 1 9 14 1 124 163 308 793 532 949 832 441 924 659 1027 1178 658 1146 1076 1323 1304 1316 1313 1422 1701 1338 942 1271 758 971 1390 613
0 0 107 6 4 227 16 75 323 744 693 439 162 68 60 26 31 0 5 4 1 119 161 293 1009 592 992 620 733 855 965 1149 1262 536 1287 1387 1273 1430 1190 1137 1199 1485 1576 1182 1212 1497 749 1021 442
0 0 97 3 0 191 299 138 0 778 632 742 552 316 153 60 93 0 1 0 3 39 155 305 967 652 849 841 878 942 453 41 1253 829 1494 1536 1528 1316 1563 1080 1389 1054 1319 1305 1415 1488 1297 1223 737
0 0 6 99 66 15 50 179 567 850 405 177 695 672 524 290 154 2 4 0 1 0 83 348 877 819 867 1223 679 903 603 120 953 802 1433 1297 1398 1290 1790 1566 1873 1310 899 1077 1385 1440 1263 644 1302
0 0 52 46 5 2 11 163 250 245 330 0 5 749 482 130 5 22 17 10 1 0 0 313 601 1116 905 1268 1059 591 543 732 490 1016 546 1173 1528 1608 1206 1677 1555 1402 692 830 1239 1222 543 1588 950
0 0 0 27 12 0 5 0 107 135 9 66 121 758 393 298 34 78 71 89 37 0 0 238 518 846 1362 873 1266 926 600 255 470 671 377 1117 1488 1569 1383 1353 1681 1495 921 1041 1428 1532 1430 1826 1451
0 0 1 23 5 0 0 14 72 4 0 59 182 683 196 0 158 62 136 166 183 4 0 174 578 753 1177 993 967 1531 1177 1091 598 606 745 1373 1295 1194 1433 1426 1778 1582 1491 1217 1613 1520 1799 1386 1786
0 9 9 9 0 0 0 154 42 31 111 36 309 451 455 12 79 230 300 411 237 209 0 130 519 803 787 1414 1283 1234 1458 1096 879 759 1018 992 853 942 1269 1161 1624 1503 1523 1601 1454 1216 1384 1705 1190
20 7 27 3 0 3 197 115 9 3 101 236 903 749 490 595 391 77 286 531 173 290 162 152 469 717 847 1067 1549 1853 1653 1683 1231 689 625 739 1152 730 979 1180 1328 1480 1557 1520 1367 1371 1226 1278 1254
4 22 14 15 4 24 317 79 87 53 461 607 686 705 536 562 574 60 15 159 134 150 166 1064 768 1023 1079 1227 1550 1732 1961 1787 1643 1655 967 588 1223 587 143 560 1510 1131 1539 1620 1305 1440 1266 1286 1310
0 0 0 2 14 24 314 161 180 265 518 440 262 123 112 176 187 294 331 80 1 420 689 1045 1380 1697 1793 1853 1920 1599 1887 2070 1845 1981 1347 923 1273 967 544 642 850 1516 1442 1488 1748 1395 1268 1091 1162
0 0 4 12 0 4 92 85 29 295 407 162 25 11 3 1 21 76 52 57 224 281 90 609 534 1408 1796 1914 2122 2019 1983 1880 2061 1847 2052 1692 1286 1403 1035 667 568 1452 1684 1643 1401 1557 1459 1219 1228

GFSSGP_con_mlcape_102.txt.gz
CAPE
57 0 0 0 30 27 15 49 277 30 33 50 32 68 92 68 64 0 69 103 192 765 1021 1281 1332 1449 1358 1735 1424 1374 1284 1311 1879 2028 2193 2311 2324 2474 2393 2387 2287 2329 2231 2064 1789 1721 1721 1374 871
0 0 0 32 19 13 25 203 4 32 27 31 23 44 65 43 14 106 87 37 274 692 1092 1114 1028 1181 1890 1806 1667 1902 1335 1427 1308 1666 1909 2260 2396 2351 2317 2367 2264 2280 2263 2075 1676 1602 1401 998 963
0 0 8 48 25 22 28 138 7 24 53 31 23 15 60 82 84 82 88 98 487 651 650 713 895 1393 1819 1589 1719 1751 1591 1791 1878 1344 2027 2064 2089 2168 2190 2201 2346 2379 2330 2035 1654 1709 1490 1386 1091
32 2 0 102 89 0 51 252 37 0 0 21 22 27 58 88 70 100 129 191 163 177 855 1279 1070 1390 1736 1425 1903 1683 1664 1479 1938 1942 1660 1943 2055 2168 2157 2129 2160 2172 2147 1807 1602 1666 1502 1254 808
114 51 55 47 39 18 129 349 7 6 0 0 0 0 5 8 46 76 79 100 21 539 991 1203 1334 1240 1477 1409 1645 1679 1654 1701 1615 1757 1642 1838 1948 1986 2111 2086 2010 2060 2062 1709 1514 1421 1484 1101 949
109 11 32 36 2 51 267 206 1 2 0 0 0 0 0 0 0 0 27 2 64 261 908 1408 1443 1310 1583 1281 1406 1467 1722 1667 1589 1649 1565 1699 1779 1913 2063 2017 2061 2097 2236 1822 1593 1408 946 954 856
65 48 33 53 54 94 118 98 13 0 0 0 0 0 0 0 0 0 44 66 152 584 798 1125 1348 1258 1502 1325 1662 1628 1546 1574 1561 1521 1595 1604 1687 2004 1972 1954 2095 2130 2169 1861 1514 1092 784 889 956
144 0 32 26 54 95 146 52 30 2 0 0 0 0 0 0 13 13 0 77 196 624 693 1010 1144 1092 1314 1311 1393 1437 1382 1528 1556 1583 1576 1665 1667 1812 1964 1910 2200 2087 2019 1738 1469 1089 678 991 999
158 26 46 26 62 125 121 17 48 29 3 0 0 0 0 0 4 0 0 0 106 546 672 961 835 746 1237 1128 1371 1359 1401 1398 1518 1488 1552 1365 1295 1441 1401 1961 2079 1940 1852 1673 1386 1403 1066 1053 1118
27 0 7 36 49 46 143 64 5 3 11 66 3 0 3 80 0 0 6 0 0 64 456 464 346 689 976 1215 1114 1057 1268 950 636 770 1026 926 1037 1042 1332 1822 1896 1811 1554 1338 1056 625 609 844 878
2 0 1 40 106 243 61 36 4 2 1 5 0 0 41 19 18 38 75 39 74 164 508 529 613 754 576 802 651 687 687 692 647 634 829 875 752 1173 1365 1526 1168 1285 1095 775 690 904 1187 1365 1247
0 5 0 21 169 91 67 3 0 0 1 6 2 0 2 47 77 98 96 110 187 253 497 515 509 588 609 719 535 652 739 729 655 594 706 797 458 610 805 781 701 656 527 184 210 465 804 876 662
0 28 20 99 85 12 18 81 164 3 61 21 23 6 23 56 89 38 40 161 195 255 422 366 358 630 565 636 764 683 766 688 639 860 711 397 89 146 493 756 862 518 7 11 146 248 614 318 239
10 70 47 88 112 47 102 65 31 9 81 7 10 2 25 53 78 67 54 160 224 319 361 191 54 497 511 394 547 562 664 699 678 805 732 444 132 232 503 662 715 469 509 710 796 581 477 209 155
0 0 58 124 262 185 44 18 3 18 48 5 3 2 13 45 83 105 40 145 307 277 238 197 321 338 312 339 584 608 630 580 633 770 659 413 421 611 776 670 472 598 798 920 1147 1103 722 335 37
0 4 6 188 231 266 124 1 12 1 64 41 2 0 26 52 102 62 62 101 314 263 229 397 448 365 339 656 433 595 560 470 508 698 878 689 563 493 752 522 360 431 883 788 1109 1094 756 269 128
0 0 5 265 370 265 88 0 7 37 58 56 21 0 13 47 67 61 117 201 277 326 276 445 360 209 340 816 590 473 313 103 287 561 724 858 614 446 851 878 688 690 592 831 714 566 495 728 317
0 0 0 15 124 101 48 0 6 51 56 95 25 0 5 26 33 39 151 271 301 155 169 320 420 251 502 766 628 297 90 0 3 522 855 968 940 988 930 976 752 1009 748 893 674 632 690 846 500
0 0 6 241 139 65 10 0 0 1 108 129 3 0 5 29 33 24 194 303 222 107 0 33 195 135 241 563 598 448 88 79 0 258 776 983 994 1088 922 1155 682 1214 865 700 1031 928 871 289 449
0 0 8 119 58 61 71 116 145 89 162 118 0 0 2 19 34 23 74 155 4 81 176 158 211 140 80 524 675 755 666 409 314 491 695 852 1019 725 911 811 677 907 825 568 768 974 573 677 519
0 0 0 21 16 3 88 17 96 113 134 18 2 0 3 4 16 28 42 81 0 31 227 279 310 102 53 485 660 655 582 571 517 572 686 851 978 939 1002 926 813 1128 907 837 784 1070 944 722 687
0 0 0 52 80 43 86 1 0 3 39 65 61 5 0 1 15 30 60 86 88 76 242 284 303 171 172 272 443 526 414 272 445 420 615 906 1075 1085 855 753 961 866 937 814 852 1070 801 624 550
0 0 0 24 81 112 28 0 0 0 79 166 172 16 1 1 6 20 52 82 113 175 228 295 282 237 345 550 591 392 272 145 625 588 701 1042 1145 1009 1032 858 988 784 761 627 755 1092 790 1048 841
0 0 83 64 38 6 0 0 2 0 47 206 248 47 51 33 7 1 10 101 131 206 348 267 269 234 255 778 1030 516 219 112 380 833 781 973 938 1033 1294 984 905 796 606 550 565 1198 1045 1162 1070
0 0 0 5 14 0 0 0 3 24 159 313 336 210 124 119 54 2 1 110 174 181 299 388 310 225 228 457 842 688 335 349 548 651 642 799 998 912 1071 1158 1061 786 756 747 721 1146 1177 797 918
0 0 0 0 0 1 7 0 16 31 169 284 214 271 239 215 217 35 0 69 133 137 218 409 377 256 309 365 804 856 597 289 388 668 524 350 489 662 1136 1221 1232 1032 972 804 1210 1024 1053 872 860
0 0 0 0 0 0 78 49 99 81 2 130 46 187 179 249 165 48 3 28 146 188 313 294 406 299 320 334 844 773 728 445 436 506 339 267 568 707 936 995 1258 1324 1017 1072 1054 951 781 873 847
0 0 0 0 0 0 66 82 44 38 233 174 19 10 161 71 98 193 144 103 137 114 207 347 532 481 469 469 802 789 927 731 470 385 360 614 824 1038 1014 660 483 916 1211 1157 1041 765 662 805 769
0 0 0 0 0 5 49 60 282 198 337 239 275 210 147 75 38 34 104 156 109 100 91 132 217 617 572 578 837 995 815 1149 1068 562 834 528 1046 952 953 730 462 622 1113 1130 1056 883 669 696 728
0 0 0 0 0 52 73 93 191 113 145 188 172 181 54 76 73 21 0 40 240 24 12 0 14 214 390 552 574 743 690 792 737 684 1282 1146 824 713 712 587 569 524 976 1062 959 820 816 893 882

GFSSGP_con_mlcape_105.txt.gz
CAPE
312 0 0 0 5 10 0 24 148 66 10 30 0 7 25 70 108 0 79 133 244 590 1068 1175 1353 1586 1375 1351 1321 1437 2144 2279 2106 2352 2413 2336 2300 2374 2374 2428 2238 2167 1702 1622 1694 1233 911 748 866
7 0 0 51 0 0 15 106 101 30 22 0 40 74 123 91 146 70 92 199 433 678 1077 1199 1375 1475 1666 1440 1418 1330 1341 1847 1976 2303 2306 2359 2505 2430 2386 2334 2257 2262 1882 1868 1664 1373 1193 1065 1001
0 0 6 51 2 0 42 35 10 5 18 0 93 102 120 149 111 73 148 349 686 724 1100 1142 1328 1830 1733 1924 1845 1360 1591 1363 1613 1968 2290 2252 2350 2443 2402 2416 2513 2466 1897 1883 1718 1441 1309 1256 1152
14 27 2 58 2 7 48 16 11 0 14 30 79 57 103 105 97 134 260 448 523 750 723 1023 1552 1816 1560 1770 1867 1591 1823 1793 1363 1958 2020 2049 2240 2301 2355 2418 2591 2120 1939 1976 1797 1682 1300 1112 1230
87 53 13 76 29 16 34 202 9 12 7 18 42 22 40 97 137 114 220 231 303 425 954 1088 1567 1770 1449 1776 1775 1673 1470 1754 1626 1704 1880 1878 2009 2259 2284 2269 2380 1817 1781 1905 1802 1764 1227 1130 1372
79 30 5 8 24 15 153 175 7 32 25 31 10 0 52 94 15 97 155 177 258 584 1072 1341 1361 1600 1507 1723 1723 1757 1736 1649 1773 1628 1679 1720 2015 2201 2260 2205 2201 2066 1695 1742 1785 1357 1036 1277 1222
80 15 23 49 8 77 45 52 0 16 15 0 0 0 3 3 3 50 56 0 547 837 1017 1335 1146 1621 1409 1555 1535 1579 1660 1551 1556 1609 1672 1855 2061 2200 2149 2309 2363 2221 1780 1743 1566 1238 1083 1323 1468
101 9 18 17 52 120 19 52 59 7 0 0 0 0 0 0 19 68 92 217 427 759 837 1090 1174 1464 1210 1444 1432 1538 1654 1649 1645 1621 1452 1762 1998 2061 2152 2028 2383 2294 1870 1742 1402 1265 1348 1313 1443
17 0 0 27 38 55 30 4 22 34 2 0 0 0 2 4 53 32 26 125 362 604 807 1009 1055 1204 1143 1269 1389 1451 1632 1677 1704 1617 1559 1579 1652 1666 1651 2157 2280 2132 1819 1660 1520 1464 1224 1129 1440
0 0 0 2 1 77 13 0 1 0 0 0 0 0 0 0 26 0 0 28 195 370 760 907 702 1076 1055 1314 1272 1256 1308 1184 1363 1373 1239 1168 1232 1260 1554 2139 2057 1866 1689 1479 1402 1383 1100 965 1083
0 0 0 0 25 95 9 0 1 0 6 0 0 0 0 1 13 0 0 0 0 256 773 817 457 929 1047 1154 905 964 566 671 728 917 865 920 979 1428 1605 1642 1580 1367 1171 640 635 864 938 945 868
0 0 4 0 117 131 1 1 1 13 3 0 0 13 0 0 10 0 0 0 0 146 509 465 507 681 736 762 612 735 722 727 617 701 835 756 767 888 926 836 840 738 508 273 285 428 586 939 1161
0 4 11 164 38 35 10 2 0 3 0 0 20 0 23 5 34 35 72 25 92 241 460 509 596 551 628 323 431 661 765 826 633 631 755 619 499 495 610 727 792 684 178 28 199 180 264 191 239
0 0 22 31 73 36 50 11 60 4 101 0 30 0 16 23 35 65 94 174 205 290 385 469 555 640 599 466 598 631 697 714 670 640 644 295 156 315 600 728 656 413 360 781 845 693 349 236 367
0 0 84 89 81 84 31 23 30 6 30 0 0 3 27 49 34 75 115 210 262 359 447 305 442 623 510 438 508 594 597 580 586 596 581 381 113 299 592 616 583 668 662 850 1009 961 696 85 243
0 0 12 126 216 64 51 0 8 12 5 0 0 0 40 56 66 82 109 214 294 376 331 219 185 423 379 366 550 603 595 539 574 669 722 336 352 565 713 514 429 495 937 799 1081 902 543 168 46
0 0 26 162 350 125 42 0 0 14 3 1 0 0 14 39 67 112 141 239 299 349 265 315 402 440 369 548 532 505 322 361 492 710 787 705 493 590 839 547 454 452 592 819 764 528 489 596 336
0 0 24 57 168 175 46 0 23 12 5 7 0 0 7 32 93 130 151 304 343 283 282 469 382 326 376 489 370 278 56 116 198 610 617 723 449 817 939 860 807 694 780 869 640 627 774 1045 520
0 0 32 163 92 10 10 9 12 34 26 0 22 0 6 11 47 97 155 306 304 294 204 363 250 214 522 527 406 306 161 11 58 422 658 717 750 945 898 1049 725 1096 829 752 1011 911 760 327 362
0 0 29 166 107 6 0 1 12 28 49 53 75 0 0 19 93 105 182 280 263 269 248 369 280 253 569 556 420 388 257 119 90 244 640 829 871 755 810 970 701 993 668 597 874 900 583 712 474
0 0 2 66 36 45 30 19 10 23 45 86 145 0 0 16 64 131 222 289 261 163 200 291 266 115 262 539 505 428 435 406 195 362 569 716 850 744 774 833 827 903 825 685 783 994 904 658 735
0 0 0 73 16 0 4 0 58 46 28 72 102 1 14 7 40 119 242 270 183 123 131 89 147 111 76 433 536 522 484 413 405 460 519 634 896 887 808 814 784 891 898 709 780 966 712 631 787
0 0 0 1 34 30 13 1 0 127 19 53 112 2 6 8 36 91 178 188 120 167 181 238 205 150 122 294 352 437 466 293 334 382 424 715 865 946 909 800 828 801 708 656 763 960 773 942 1027
0 7 19 60 41 3 16 18 0 57 82 0 102 29 2 21 21 61 130 106 77 187 191 245 234 164 234 256 277 308 232 217 494 495 346 628 891 945 997 864 553 686 670 648 570 976 681 1004 1122
0 0 0 19 19 3 0 7 0 12 44 6 68 70 2 3 21 35 73 88 86 160 161 204 214 179 253 388 646 496 312 154 164 511 582 547 839 934 953 1009 602 743 646 534 462 897 991 859 782
0 0 0 0 0 1 0 0 0 36 23 168 260 121 69 8 14 6 25 92 106 161 215 174 186 165 178 337 490 656 453 285 276 504 537 668 763 851 998 1000 1039 955 664 772 629 754 930 1042 903
0 0 0 0 0 0 0 11 47 73 92 298 229 170 182 54 8 4 7 119 82 134 275 434 285 195 182 231 356 664 685 422 258 349 491 302 277 679 708 1060 1049 1052 902 962 809 827 754 976 877
0 0 0 0 0 0 1 35 46 149 131 97 212 148 141 140 73 57 43 32 176 202 252 337 542 346 281 354 349 596 783 592 376 313 422 388 327 412 659 742 1082 917 1032 980 918 811 782 745 713
0 0 0 0 0 0 0 13 247 334 356 179 68 77 120 165 112 117 108 75 147 213 241 193 219 364 457 496 492 630 894 843 630 478 372 338 396 482 671 826 617 691 795 1040 1033 942 800 510 533
0 0 0 0 0 0 24 13 203 278 259 263 79 62 60 66 101 128 138 190 150 162 70 49 72 81 210 446 549 542 594 741 733 675 603 731 961 805 797 729 629 491 491 900 1076 961 934 843 391

GFSSGP_con_mlcape_108.txt.gz
CAPE
0 0 0 0 1 13 2 34 221 0 0 0 0 0 0 44 40 0 26 114 152 451 956 1232 1489 1746 1669 1756 2135 2193 2056 2146 2356 2289 2334 2395 2321 2112 2127 1955 1900 1666 1912 1136 898 924 1182 1222 893
5 0 0 45 1 6 2 97 142 30 0 0 25 20 41 63 98 35 46 243 266 672 918 1079 1511 1375 1456 1418 1395 1908 2144 2211 2258 2359 2525 2506 2255 2193 2245 2052 1974 1999 1798 1770 1465 1384 1208 1300 1533
0 0 29 102 1 0 32 106 28 34 14 0 65 106 100 23 35 27 159 407 447 878 989 1251 1349 1768 1489 1679 1413 1263 1561 1885 2146 2293 2337 2455 2430 2228 2444 2296 2182 2093 1813 1814 1677 1596 1499 1382 1359
0 22 5 42 0 26 14 11 17 0 17 45 43 82 41 2 5 121 455 428 358 719 948 1206 1830 1699 1856 1722 1381 1797 1917 1459 1767 1865 2103 2213 2413 2371 2213 2132 2128 2058 1969 1881 1644 1541 1481 1532 1472
59 47 3 36 4 13 15 51 4 26 20 47 22 28 3 60 97 267 363 302 292 618 792 1135 1627 1601 1625 1801 1678 1610 1842 1502 1796 1886 2127 2224 2308 2233 2029 2249 2044 2087 2075 1917 1884 1511 1428 1779 1825
34 57 3 23 13 36 69 82 8 36 47 8 0 0 19 82 26 174 264 268 388 413 720 1277 1576 1449 1612 1663 1767 1787 1823 1497 1724 1840 1873 2079 2230 2071 2111 2243 1746 1936 1932 1907 1633 1697 1634 1681 1663
107 39 21 16 26 26 64 81 7 17 28 9 0 0 33 48 10 63 94 221 271 762 910 1136 1358 1493 1533 1570 1742 1760 1377 1650 1445 1685 1881 2117 2090 2068 1937 2196 2062 1764 1899 1888 1514 1473 1483 1530 1251
130 12 15 23 40 47 23 95 35 2 6 7 0 0 0 26 23 21 113 130 569 758 992 936 1298 1280 1342 1351 1650 1706 1400 1504 1624 1591 1948 2022 2214 2106 2017 1953 2207 1893 1873 1742 1662 1548 1561 1421 1301
10 1 0 34 41 1 40 24 36 18 0 0 0 0 0 50 24 0 0 234 458 748 834 887 1048 986 1238 1211 1478 1284 1318 1573 1665 1563 1681 1791 1567 1517 1617 1904 2240 1939 1855 1711 1494 1195 1424 1000 1192
0 0 0 1 16 26 17 10 1 0 0 0 0 0 2 40 0 0 0 0 137 384 626 754 872 825 1018 1288 1215 1196 1141 1339 1352 1348 1251 1322 1249 1456 1707 2117 2004 1906 1835 1857 1434 1263 1348 951 1117
0 0 2 26 29 18 32 12 11 20 3 0 0 0 0 0 0 0 0 0 49 230 621 736 687 862 837 1076 890 967 797 941 1019 988 969 974 1015 1172 1420 1615 1464 1271 889 487 679 685 840 900 905
0 0 4 19 167 104 52 4 17 61 6 0 0 0 0 0 0 0 0 0 40 164 524 671 476 795 794 853 699 693 617 599 722 718 770 759 883 1067 1037 974 795 610 346 176 392 352 372 805 1214
0 1 60 48 228 33 15 5 16 22 5 0 0 0 0 0 0 0 0 0 4 90 311 372 392 610 583 517 555 623 681 743 598 658 630 477 607 696 692 763 760 563 22 361 523 308 172 169 271
0 0 66 137 112 51 8 0 3 16 14 0 0 3 0 0 0 0 0 0 0 107 230 314 388 451 467 211 393 558 674 737 599 615 681 504 344 416 541 683 512 405 623 915 1020 915 491 232 320
0 0 45 155 78 102 13 2 24 12 13 0 10 16 4 0 25 4 0 0 24 150 245 338 421 548 453 326 412 551 589 636 512 554 567 184 126 296 506 582 637 671 718 961 1077 814 385 297 407
0 0 0 145 98 85 14 11 69 40 54 3 14 12 4 0 37 34 64 69 106 215 273 334 454 459 403 352 395 456 421 497 497 579 545 410 155 167 461 638 540 615 858 842 802 592 338 65 124
0 0 4 130 97 52 30 3 14 52 77 1 1 20 25 30 30 57 105 137 195 267 323 241 313 347 342 304 383 394 407 446 423 578 669 405 439 469 560 507 433 462 625 884 671 463 433 688 443
0 0 24 102 129 136 71 27 2 52 99 16 21 33 36 44 33 50 128 177 235 274 303 209 188 288 317 288 286 130 125 215 295 545 693 622 439 471 717 579 662 692 750 848 814 885 821 832 401
0 51 99 162 102 67 0 0 41 41 84 52 0 7 19 54 58 92 122 203 253 270 254 214 259 271 355 342 275 184 142 154 151 419 614 692 586 663 616 739 663 978 710 811 922 865 550 346 325
0 18 53 183 88 2 0 1 33 69 62 57 62 0 0 40 65 107 155 218 277 290 212 326 235 234 355 368 279 257 178 42 57 245 561 716 727 708 768 802 589 805 639 625 862 787 692 747 563
0 0 32 64 62 21 3 13 31 66 46 73 84 0 0 1 61 147 177 219 261 257 186 257 148 152 323 397 312 299 256 226 136 201 538 715 788 735 762 741 712 777 636 606 746 937 758 654 676
0 0 20 103 9 1 0 0 9 18 21 46 63 40 0 0 62 122 169 203 235 210 176 236 154 119 299 418 433 308 355 311 258 194 430 578 807 745 695 696 712 786 716 700 757 885 772 652 880
0 0 0 8 10 11 9 0 0 25 44 6 19 31 0 6 36 96 131 177 219 192 169 188 247 127 116 351 401 318 336 299 293 309 444 535 733 855 754 739 702 713 710 636 701 961 847 724 1066
0 0 19 18 10 0 2 1 0 36 22 0 7 20 0 7 24 71 128 195 250 187 147 129 151 131 73 98 293 330 256 213 288 311 293 515 740 830 861 837 689 654 648 637 640 751 674 996 1094
0 0 2 0 0 0 0 0 0 3 50 43 6 43 18 5 14 50 114 175 187 236 161 121 54 79 121 92 172 194 279 220 255 377 295 360 668 828 823 895 650 512 641 548 504 665 951 900 758
0 0 0 0 0 0 0 1 0 3 0 70 12 35 19 0 5 29 130 156 93 201 195 194 156 97 109 194 221 245 191 176 148 201 459 412 544 692 786 888 939 734 821 494 439 456 904 1007 921
0 0 0 0 0 0 0 0 20 35 8 33 47 63 13 0 12 32 97 102 77 192 282 216 179 142 99 251 443 570 357 313 237 257 381 331 513 650 700 910 921 985 936 789 727 637 811 961 872
0 0 0 0 0 0 0 0 5 46 73 164 195 146 80 0 14 42 30 29 121 137 153 337 240 203 185 163 211 361 443 302 244 129 257 262 130 244 550 571 735 991 896 831 811 781 780 764 760
0 0 0 0 0 0 0 0 119 80 102 230 252 245 106 26 7 19 63 62 81 71 94 172 239 337 309 261 316 358 481 407 246 296 271 211 150 312 258 502 600 711 658 665 833 780 768 736 613
0 0 0 0 0 0 0 0 170 271 296 167 151 203 88 41 67 97 66 83 93 117 130 71 51 95 153 218 426 466 509 547 580 551 545 388 353 462 437 403 534 550 563 637 744 871 882 834 777

GFSSGP_con_mlcape_111.txt.gz
CAPE
0 0 0 3 21 34 20 56 217 0 0 0 0 0 0 78 72 0 22 215 255 628 1109 1473 1419 1895 1968 2163 1994 2011 2224 2239 2236 2345 2368 2209 2154 2117 1853 1889 1808 1538 1226 1334 1410 1492 1235 1389 1379
1 0 0 39 20 8 15 151 41 0 0 0 0 1 105 51 84 0 88 238 347 736 1058 1345 1593 1468 1312 1543 2085 2136 2140 2271 2138 2365 2354 2242 1714 2076 2018 1988 2035 1722 1518 1307 1106 1279 1605 1511 1415
0 0 24 106 5 12 18 116 63 0 0 20 95 165 173 84 4 10 209 291 500 789 1054 1546 1317 1374 1349 1289 1309 1802 1912 2118 1955 2312 2276 2119 1799 2170 2075 2084 2033 1979 1845 1795 1746 1548 1609 1519 1612
0 24 0 31 0 29 44 19 19 0 1 103 119 95 13 1 0 173 286 335 630 958 1111 1393 1849 1622 2079 1456 1427 1509 1233 1668 1720 2086 2186 2085 2022 1987 2237 2310 2259 1774 1713 1379 1314 1339 1688 1604 1492
125 41 9 8 5 7 41 51 0 16 19 87 103 9 3 138 228 257 342 346 543 668 906 1556 1814 1750 1928 1759 1544 1768 1558 1470 1902 1920 2223 2238 1924 1974 1988 2205 2222 2031 1809 1825 1682 1788 2026 1962 1913
21 32 16 2 13 15 87 92 13 28 77 24 5 0 19 196 212 327 293 289 366 481 508 1459 1568 1558 1700 1749 1599 1727 1659 1677 1767 1873 2059 1772 1592 1817 2042 1943 2175 2024 1923 1798 1972 1721 1732 1797 1504
68 2 0 9 13 23 73 105 0 42 49 8 0 0 45 162 180 248 338 404 417 274 787 1577 1103 1617 1617 1730 1590 1506 1754 1641 1755 1859 1867 1598 1424 1696 1994 1825 1944 1977 1938 1649 1661 1634 1533 1358 1635
115 13 23 63 36 67 87 111 56 25 33 7 0 0 0 89 130 185 312 262 179 409 834 1169 1529 1161 1346 1531 1659 1458 1431 1406 1648 1900 1664 1649 1486 1591 1890 1924 1933 1948 1842 1810 1477 1404 1370 1318 1881
19 0 1 47 49 67 72 44 10 18 1 0 9 0 30 70 87 76 43 123 451 685 647 1136 1326 1247 1400 1454 1429 1306 1521 1673 1546 1784 1822 1592 1352 1570 1822 2000 2026 1987 1828 1576 1420 1333 1424 1547 1751
34 0 2 0 16 47 26 24 2 0 3 0 0 22 42 48 74 0 0 137 387 640 768 1056 1000 1114 1201 1254 1319 1423 1354 1525 1575 1755 1860 1450 1567 1527 1942 2100 1953 1946 1728 1634 1624 1536 1284 1237 1600
0 0 1 77 11 3 23 5 36 15 3 0 0 0 14 22 36 0 0 116 323 565 560 848 1036 1106 1147 1347 1343 1164 1526 1306 1425 1507 1457 1472 1699 1864 2168 1873 1663 1485 783 932 1046 1038 1226 1412 1513
16 3 0 70 35 2 42 3 55 61 18 0 0 25 0 8 0 0 0 62 262 442 548 732 1101 1004 1341 1156 857 955 887 915 704 1081 1265 1241 1343 1633 1761 1261 1184 936 694 802 989 958 992 1249 1738
10 2 59 74 36 56 36 16 45 23 1 0 0 20 0 0 0 0 0 0 254 359 499 628 849 1013 1142 931 971 1006 969 851 816 911 1021 978 1119 1273 1221 1383 1190 579 1028 1431 1296 1090 976 905 939
0 33 181 101 47 42 27 14 46 39 3 0 0 0 0 0 0 0 0 0 117 246 400 496 648 920 910 646 874 960 1190 1115 1078 975 900 803 1004 1058 1229 1231 946 1194 1591 1686 1770 1516 990 957 1126
0 29 153 159 107 61 36 23 24 48 4 1 0 0 0 0 0 0 0 0 50 203 434 423 566 698 602 556 860 1017 1146 1138 1066 1033 863 629 678 864 1144 1283 1384 1348 1575 1809 1858 1489 722 883 832
0 13 13 180 180 70 45 22 22 29 1 18 9 28 49 70 64 0 0 0 47 201 470 559 539 783 684 653 888 995 910 1005 941 989 870 581 571 575 984 1287 1210 1460 1570 1745 1379 1195 834 637 566
0 0 23 148 149 110 48 36 100 45 5 56 36 75 83 74 131 55 38 72 140 300 488 563 735 750 672 644 815 871 953 1003 1019 1114 1015 820 672 818 1120 1112 1089 1212 1501 1641 1214 1156 1390 1665 1265
0 0 84 122 158 104 48 5 9 80 8 54 82 93 96 85 125 162 170 156 197 405 528 597 638 762 685 660 736 611 715 758 825 1129 1229 1034 1008 956 1238 1060 1326 1394 1403 1568 1649 1549 1516 934 966
0 0 137 140 150 116 40 5 8 67 81 77 98 72 98 111 158 170 208 241 301 436 522 472 461 636 622 567 580 474 457 571 602 1016 1140 1142 901 1103 1160 1325 1229 1520 1463 1605 1652 1329 1383 1278 1244
288 196 118 212 95 73 13 10 47 62 125 72 99 117 126 141 165 189 192 295 349 419 489 518 360 431 709 704 707 664 479 489 574 788 1066 1265 1252 1156 1307 1365 1115 1073 1322 1435 1650 1511 1412 1447 1365
0 14 106 160 144 52 74 31 72 100 126 151 82 73 92 141 160 224 230 313 362 415 422 434 477 551 683 724 655 577 547 496 294 470 976 1164 1312 1231 1341 1275 1271 839 1143 1315 1471 1499 1323 1364 1371
0 0 180 135 26 58 0 0 11 124 111 98 94 41 6 57 163 238 260 332 347 409 436 447 553 539 615 725 707 393 489 392 540 479 1002 1144 1374 1323 1240 1320 1398 1301 1262 1422 1458 1355 1525 1773 1501
0 0 173 138 60 16 0 0 1 8 85 50 75 85 12 10 105 169 251 331 334 432 411 402 486 366 543 747 811 534 320 349 702 585 876 1054 1162 979 1252 1369 1359 1272 1483 1300 1398 1509 1612 1655 1789
0 85 142 101 64 0 0 0 19 14 0 63 74 100 90 0 46 139 215 342 363 428 407 367 398 304 377 689 767 689 356 314 683 645 568 697 967 1049 1400 1326 1422 1494 1433 1271 1422 1452 1489 1748 1982
0 0 0 0 0 0 0 0 6 46 59 63 57 106 77 46 33 131 238 332 313 276 396 408 392 462 337 369 615 704 467 455 560 396 720 707 1081 1120 1306 1416 1254 1111 1339 1353 1364 1456 1637 1679 1594
0 0 0 0 0 0 5 0 27 50 42 147 87 34 69 66 53 132 248 341 321 300 298 405 363 451 431 343 393 598 609 632 655 748 904 665 909 603 744 818 1152 1124 1282 1369 1220 1138 1772 1710 1730
0 0 0 0 0 0 14 30 48 117 65 152 131 63 36 48 86 123 246 275 268 376 350 414 464 396 375 419 294 503 598 552 512 512 729 749 897 915 756 922 982 1399 1474 1435 1348 1204 1319 1726 1811
0 0 0 0 0 0 0 9 103 134 149 102 183 159 103 71 102 136 293 211 245 266 194 416 437 396 417 552 414 552 894 759 628 612 625 610 657 789 1181 1054 1072 1058 1283 1507 1397 1396 1480 1464 1541
0 0 0 0 0 0 0 8 131 209 301 312 342 223 195 75 120 203 219 155 110 136 116 209 413 510 419 469 523 517 773 816 702 677 651 567 609 636 738 960 946 926 971 1014 1315 1383 1401 1144 1480
0 0 0 0 0 0 0 11 309 549 425 531 508 418 223 114 159 167 130 322 240 113 101 132 283 405 540 527 598 531 693 841 734 764 799 648 442 652 914 648 772 990 1089 1290 883 1021 1270 1198 1307

GFSSGP_con_mlcape_114.txt.gz
CAPE
0 0 13 141 327 103 25 102 0 0 0 0 0 0 209 373 239 151 0 23 493 807 906 1215 1954 2116 2093 1871 2079 2269 2358 2251 2349 2270 2032 1986 2027 1942 1969 1825 1558 1690 1672 1694 1273 1383 1399 1311 1342
0 1 59 440 174 30 40 57 0 0 0 0 0 38 261 324 38 0 0 99 544 762 1006 1270 1716 1732 2021 2099 2080 2125 2334 2247 2346 2324 1706 1827 1966 1945 2106 1633 1621 1370 1379 1250 1748 1635 1530 1310 1414
0 50 379 228 6 40 37 130 0 0 0 36 199 361 476 124 0 0 0 203 581 873 1154 1284 1346 1274 1336 1749 2160 2054 2174 2099 2345 2392 1788 1533 2014 2083 2041 2027 1961 1916 1868 1805 1695 1732 1626 1628 1480
35 169 129 101 30 38 135 258 8 0 6 248 243 324 84 38 0 0 79 279 593 857 1120 1212 1348 1604 1312 1121 1208 1346 1845 1939 2174 2292 1787 1681 1993 2081 2230 2041 1839 1534 1488 1463 1672 1714 1676 1674 1409
292 92 7 44 80 115 148 92 15 0 33 265 312 219 8 38 40 19 193 330 558 853 902 1371 1798 1608 1651 1567 1956 1684 1337 1965 1964 2272 1848 1590 1827 1999 2181 2098 1994 1945 1948 1739 1729 1929 1922 1753 1291
8 53 8 1 34 109 211 182 30 40 125 150 83 5 110 102 44 83 234 384 520 650 1056 1275 1512 1918 1822 1633 1776 1721 1540 1695 2047 2115 1689 1501 2077 2061 2288 2233 2068 1954 1966 1846 1607 1654 1565 1414 1399
194 5 56 5 33 87 179 219 53 163 143 144 7 4 106 151 147 167 239 333 434 413 818 956 891 1432 1531 1747 1694 1732 1660 1880 1854 1907 1466 1600 1835 2004 2018 2118 2055 1870 1787 1762 1685 1672 1500 1778 1585
238 178 89 29 18 95 108 161 104 163 160 21 1 28 77 209 194 212 336 390 278 320 952 995 897 1249 976 1369 1480 1651 1542 1718 1785 1488 1507 1506 1751 2142 1889 1862 2052 1959 1878 1626 1604 1581 1471 1941 1556
186 106 31 45 79 52 95 96 125 81 91 8 2 0 66 126 130 142 222 191 142 224 359 944 615 861 1064 1141 1092 1340 1523 1542 1737 1155 1415 1551 1564 1713 2080 1742 2052 1924 1697 1450 1524 1580 1590 1684 1568
187 91 38 55 36 35 73 84 49 66 137 64 0 52 59 82 53 0 0 37 98 281 430 713 452 810 921 971 1300 1172 1227 1112 1221 1389 1460 1500 1622 1635 1754 1730 1988 1808 1559 1584 1414 1382 1119 1378 745
65 71 62 118 88 53 39 88 60 86 84 59 58 45 51 31 2 0 0 51 201 397 398 503 528 720 913 1108 982 988 944 846 1201 1440 1413 1409 1541 1608 1281 1192 1120 957 1068 1235 1299 1369 1251 1180 986
77 107 28 55 57 5 9 31 66 70 42 19 0 60 29 10 0 0 0 120 243 335 370 488 523 818 1031 637 658 471 352 477 625 1058 1329 1487 1297 1139 950 792 1100 1121 1220 1591 1397 1104 1495 1165 1515
135 68 110 70 16 58 47 88 65 38 12 0 0 0 0 0 0 0 0 83 191 293 328 452 513 827 954 939 543 347 307 353 553 938 1146 990 844 1037 1165 1400 1239 1334 1529 1243 1272 1118 1367 1023 1110
0 45 112 62 28 71 32 26 79 7 6 0 0 0 0 0 0 0 0 59 135 203 237 471 509 663 764 964 969 699 449 662 619 706 901 1150 945 1262 1384 1286 1309 1615 1549 1443 1336 1447 986 831 977
0 4 130 63 42 19 16 0 62 14 0 0 0 0 0 0 0 0 0 31 95 182 290 464 424 506 740 949 907 438 404 573 650 723 1173 1362 1299 1726 1447 1510 1442 1419 1760 2071 1406 929 732 391 523
0 1 55 121 39 76 29 28 138 6 0 0 0 0 0 0 0 0 0 24 74 269 340 387 133 422 799 873 798 491 691 588 627 631 876 1128 1420 1624 1632 1415 1379 1737 1702 1249 1075 946 857 743 736
0 17 47 176 95 13 20 29 54 12 0 7 7 1 41 52 70 0 0 33 101 376 568 499 384 451 754 1003 922 900 773 906 719 773 882 1261 1301 1605 1363 1277 1393 1867 1548 1277 1194 1437 1495 1085 1060
0 0 212 124 154 79 147 41 43 23 54 43 44 70 81 121 160 63 42 106 119 394 675 559 654 680 817 875 1030 853 836 939 743 698 861 1375 1443 1588 1415 1392 1543 1621 1294 1230 1529 1944 1478 1255 1364
0 0 238 205 83 149 81 12 75 48 28 48 42 70 106 130 230 182 141 136 285 397 572 677 712 830 892 864 550 600 636 807 864 1031 1504 1505 1378 1579 1798 1251 1228 1396 1385 1932 2111 1568 1604 961 1346
2 1 251 213 374 143 101 112 92 75 0 97 59 52 98 116 140 297 238 258 341 545 577 638 732 926 993 913 794 760 685 759 795 1062 1370 1383 1331 1608 1479 1675 1237 1448 1396 2102 2327 2327 1016 995 1761
187 132 220 184 251 231 113 97 146 66 40 77 78 120 75 97 160 305 316 310 368 584 735 697 794 923 904 758 988 845 1077 1003 878 983 974 1228 1463 1416 1378 1590 1297 1135 1550 1452 1899 1880 2066 936 1600
0 6 203 364 193 123 249 3 170 90 112 130 62 103 112 96 124 223 328 360 368 508 735 800 855 1123 801 1093 861 803 678 659 631 660 909 1007 1273 1243 1155 1528 1119 1120 1286 1758 1778 1745 1818 2414 1033
0 4 134 216 137 140 105 0 12 177 153 76 126 44 62 81 76 129 239 348 374 482 588 704 897 1161 945 863 759 604 525 556 703 840 1234 1075 1455 1382 1114 1556 1160 1271 944 1956 1856 2090 2250 1660 1475
0 3 19 25 109 4 37 71 44 181 153 180 133 135 22 58 55 89 142 298 483 460 546 547 783 1028 1028 1189 913 696 663 623 728 853 951 912 868 940 1170 1495 1577 1510 1622 1796 1681 1970 2277 2186 2178
0 13 4 0 0 36 0 0 72 61 89 201 204 159 182 10 32 59 153 311 544 471 543 484 772 945 936 1041 985 938 621 686 539 728 648 601 835 857 1165 1315 1548 1346 1552 1990 1969 2072 2123 2233 1921
0 10 4 6 43 74 69 0 45 97 94 141 210 176 209 151 45 78 194 312 536 530 640 544 806 952 907 871 896 1025 1018 582 487 616 954 862 891 617 924 999 1043 1608 1682 1699 1993 1587 1517 1831 1894
0 0 3 9 53 63 86 82 165 197 186 180 214 206 110 235 113 126 208 346 634 580 691 724 830 992 932 837 1012 1004 935 663 487 759 716 928 1299 858 891 901 933 1172 1132 1533 1700 1252 1528 1930 1944
0 0 3 0 32 20 102 72 293 354 303 256 230 236 147 162 165 198 264 413 613 389 813 703 925 1071 940 765 902 690 852 954 741 789 755 1118 1396 1431 1141 1104 962 1256 1256 1524 1500 1221 1540 1812 1643
0 0 0 10 0 56 73 96 592 713 590 450 388 249 192 162 162 281 375 636 697 758 730 784 977 943 740 607 698 524 738 726 913 849 1035 967 1228 1517 1138 1347 1312 1317 1212 1326 1358 1404 1363 1750 1453
0 0 0 0 8 0 64 402 657 823 792 562 640 494 309 274 266 371 757 816 863 732 356 188 725 811 867 863 942 888 799 898 789 864 1126 1272 1240 1395 1553 1554 1504 1133 1161 1381 1188 1160 947 1427 1357

GFSSGP_con_mlcape_117.txt.gz
CAPE
0 0 45 227 230 295 49 20 5 0 0 0 7 52 376 514 222 29 0 454 659 832 962 1408 1832 1885 2052 2120 2172 2164 2200 2176 2044 1641 1946 1940 2073 1891 1832 1792 1805 1743 1464 1414 1460 1459 1428 1380 1378
0 8 150 459 278 116 7 3 1 0 0 0 2 155 232 19 0 0 81 506 577 538 737 1233 1848 2037 1974 1953 2162 2220 2276 2252 1939 1619 1716 2057 2171 1803 1495 1411 1560 1493 1806 1769 1597 1362 1348 1444 1482
0 87 530 264 4 32 6 21 12 0 0 47 221 457 224 0 0 1 130 463 550 1076 1256 1207 1387 1680 2067 2072 2121 2174 2150 2231 2169 1723 1708 2061 2143 1970 2044 1946 1914 1823 1659 1801 1724 1682 1649 1503 1538
20 231 282 72 54 170 11 3 0 0 225 344 407 285 0 4 2 1 115 442 633 1006 597 873 1064 1115 1152 1289 1528 1909 1909 2194 2095 1634 1658 2178 2179 1882 1736 1639 1449 1528 1472 1851 1827 1761 1657 1452 1250
212 179 101 116 114 246 105 14 5 69 310 371 459 41 0 9 0 11 168 407 637 659 669 673 1970 1372 1477 1934 1474 1392 1876 2035 1997 1783 1929 2095 2248 1963 1904 1864 1935 1912 1688 1873 1823 1622 1291 1302 1130
2 329 85 72 165 274 222 61 25 102 353 327 150 16 63 2 0 40 185 388 476 687 942 995 1590 1881 1608 1860 1813 1361 1736 1951 1929 1742 1850 2034 2231 2104 2027 2002 1939 1893 1658 1639 1608 1524 1289 1293 1216
342 105 120 77 204 178 233 222 80 173 229 186 0 63 11 3 13 117 222 369 428 735 824 611 1039 1417 1634 1731 1729 1666 1671 1881 1916 1619 1876 2084 2002 2300 2091 2047 2012 1906 1805 1747 1704 1740 1760 1474 844
481 267 109 36 77 215 202 250 285 213 174 101 6 7 0 36 55 199 208 283 349 549 636 743 1083 1127 926 1174 1712 1722 1797 1601 1677 1683 1672 2109 2082 1905 1977 1543 2099 1929 1728 1663 1721 1526 1784 1230 671
232 202 127 95 49 116 175 153 275 322 148 152 161 18 40 56 112 207 232 151 189 354 620 706 831 1109 924 997 1282 1399 1776 1754 1369 1442 1560 1412 1513 1551 1633 1717 1984 1750 1578 1669 1454 1389 1496 1337 562
331 283 181 174 234 57 163 135 172 248 209 184 108 81 47 35 115 140 235 91 93 195 524 578 460 552 976 787 1204 1008 1153 1123 1293 1467 1556 1623 1601 1583 1070 1481 1688 1266 1192 1117 1138 1285 1767 1916 1244
162 129 125 230 150 89 87 102 173 286 243 171 165 48 41 5 69 61 37 42 150 177 379 501 583 994 839 973 1019 812 867 995 1142 1391 1467 1671 1336 1327 706 1317 1467 1336 1541 1714 1539 1557 1226 796 372
140 118 357 205 58 71 98 170 140 132 224 140 126 0 0 0 3 12 35 104 140 251 362 289 504 857 906 862 651 569 355 472 776 1121 1447 1587 1344 898 887 1037 1102 1177 1257 1504 1071 801 1059 710 845
139 155 259 152 0 22 79 136 115 219 42 64 35 3 0 0 1 24 50 93 171 205 269 289 475 918 791 634 291 244 175 481 629 1062 1268 1187 924 977 1045 1215 1165 1065 1307 1203 1044 765 855 739 1011
170 203 134 52 60 66 105 134 138 19 12 5 0 2 1 1 3 33 38 90 101 226 228 313 487 744 1134 986 356 375 469 298 647 881 1081 926 967 1135 1342 1233 1113 1117 1613 1651 1181 1393 587 740 819
54 163 146 71 32 49 35 2 81 35 8 2 1 2 6 3 5 27 41 76 114 151 318 307 341 666 1199 1160 395 369 216 409 517 836 1205 1282 1162 1879 1432 1336 1270 1211 1111 1843 1124 843 662 427 349
108 138 127 37 19 27 22 0 72 23 14 3 3 12 12 11 0 13 22 46 99 190 231 292 213 545 985 852 266 206 291 310 429 730 982 1496 1765 1755 1773 1386 1206 890 1285 723 787 676 531 564 580
81 53 118 64 35 20 26 10 63 38 24 7 8 25 47 36 11 10 16 28 136 257 298 288 223 461 781 764 740 451 753 345 444 569 832 1403 1384 1778 1477 1177 1148 1993 1066 734 873 650 1047 970 682
50 80 172 46 28 29 16 45 50 57 23 39 37 53 63 58 49 20 27 56 147 342 364 531 363 585 794 916 922 608 397 518 343 611 1225 1323 1220 1425 1687 1353 1089 2099 824 1278 1264 2026 1106 995 1264
8 23 161 70 100 19 11 30 0 0 1 21 55 69 83 94 89 56 134 121 120 211 547 860 685 844 852 809 620 759 613 539 430 635 1014 1368 1191 1383 1543 1504 1158 1533 1832 1498 1720 1877 1446 778 1147
0 24 145 129 56 0 54 106 31 0 0 94 53 52 70 100 110 99 149 125 116 158 387 714 994 948 1010 776 780 821 760 772 787 1088 665 914 1120 1439 1458 1468 1016 1405 1350 1531 1936 2333 1467 803 1348
0 88 182 67 67 39 60 81 114 2 0 6 79 48 86 107 84 102 167 166 250 216 274 471 1046 990 1254 1040 1298 1147 952 1022 825 1113 1035 1375 1073 1119 1563 1523 1816 1218 2009 1291 2131 1449 1845 759 1163
27 151 58 183 162 89 192 99 202 127 0 25 68 69 32 98 41 194 163 172 273 249 412 368 816 1181 1082 1110 862 802 760 706 734 771 941 1134 1276 1155 1184 1242 1518 1613 1633 2053 1565 1605 1966 2068 825
6 0 27 12 274 1 236 124 250 131 0 1 45 78 44 46 96 136 179 230 178 243 357 425 552 1012 934 937 939 717 905 763 545 1006 1480 1253 1394 1440 1039 1436 1356 1365 1340 1611 2169 1997 2306 1744 1863
0 0 93 205 151 117 125 110 264 59 0 2 131 101 97 99 86 113 143 162 269 192 286 365 534 890 1149 1034 897 918 1109 987 939 1120 999 712 1162 1035 1180 1237 1450 1590 1469 1901 1803 2023 2186 2638 2350
0 3 86 76 73 81 97 105 107 227 109 146 128 118 82 83 102 129 94 139 356 142 188 298 569 952 842 931 961 1011 1044 1137 837 1242 992 558 462 723 1244 1436 1582 1495 1745 1986 2013 2002 2355 2175 2282
0 45 141 76 62 101 60 49 229 245 303 261 136 207 97 108 98 102 133 182 124 205 113 227 803 991 1025 683 749 953 1064 889 804 1039 866 606 562 684 1541 1297 1372 1692 1473 1719 1942 1909 1509 1680 1936
1 18 130 108 52 4 67 323 278 197 174 272 352 200 84 91 42 81 116 119 173 277 316 253 862 1081 854 953 887 965 955 887 842 1054 1311 939 1282 706 1081 1091 1048 1301 1464 1514 1748 1495 1467 2112 2009
0 5 68 101 33 33 110 0 289 227 206 209 232 341 236 196 174 80 132 110 395 497 445 465 839 958 795 737 1029 1011 880 858 744 981 987 1172 1398 1280 1154 1051 1009 1193 1261 1338 1549 1346 1358 1291 1643
0 0 10 87 58 10 70 25 461 384 399 245 289 371 340 313 146 267 136 317 252 585 913 773 949 1112 861 562 614 622 543 617 769 776 826 1011 1418 1821 1573 1339 1185 1185 1242 1216 1430 1617 1796 1626 1436
0 0 6 33 30 3 0 1 447 743 536 503 409 579 404 302 209 278 248 209 690 947 934 762 1183 1151 911 605 944 814 705 541 563 556 1004 1037 1227 1480 1570 1371 1337 1274 1319 1452 1483 1286 756 1088 1105

GFSSGP_con_mlcape_123.txt.gz
CAPE
0 0 0 103 77 104 58 1 6 81 45 22 29 59 56 97 0 18 550 691 1034 1274 1543 1721 1847 2032 2030 2089 2032 1971 1950 1898 1887 1773 1792 1722 1798 1557 1482 1676 1573 1702 1764 1544 1565 1566 1263 736 721
0 0 40 176 105 29 17 6 26 124 59 0 0 22 22 69 251 399 465 834 827 1256 1444 1741 1803 1903 2047 2015 1978 1955 1804 1983 2015 1896 1836 1896 1769 1756 1902 1787 1735 1599 1465 1649 1655 1460 763 727 893
0 0 88 35 50 62 40 16 21 187 18 0 0 2 82 152 280 306 433 607 926 1098 1294 1711 1930 2092 2068 2119 2071 1996 1915 2028 2084 1846 1699 1575 1561 1761 1804 1851 1949 1896 1874 1657 1792 1472 1059 1160 930
0 193 123 27 43 80 49 23 62 0 0 0 0 0 95 174 290 346 495 751 861 1049 1752 1762 1830 1991 2036 2004 2111 1926 1947 2050 2133 2022 2061 1935 1736 1613 1615 1673 1863 1906 1882 1425 1579 988 617 793 1009
7 230 76 63 14 22 67 83 80 72 0 0 0 7 154 190 297 659 623 447 406 549 987 1216 1396 1327 1702 1744 2077 1974 1812 1969 2015 1942 1735 1788 1638 1606 1739 1789 1957 1652 1539 1229 1293 922 465 654 592
127 192 55 13 17 22 133 184 156 61 5 0 0 6 154 393 510 537 306 257 258 852 803 1144 1696 1470 1254 1730 2008 1920 1920 1994 2105 2145 1953 1993 1958 1893 1973 1799 1692 1614 1369 1135 607 285 192 229 213
148 81 14 18 10 41 211 106 77 2 0 0 0 0 86 222 217 277 282 222 781 1110 1114 1101 1620 1640 1187 1626 1890 1860 1863 2036 2184 2133 2009 1938 1926 2039 1996 1991 1840 1671 1592 1145 590 129 0 46 77
266 121 36 33 0 67 244 142 84 1 1 0 0 0 114 287 222 349 356 321 652 904 935 1053 1393 1367 1259 1684 1818 1876 1785 2076 2120 2065 2002 2049 1983 2001 2017 1837 1821 1714 1638 1278 651 189 185 101 92
416 18 59 32 34 39 246 151 132 60 3 0 0 0 130 231 264 412 248 20 339 551 872 847 933 1183 1153 1509 1698 1733 1794 1830 2123 1969 2125 1670 1435 1528 1602 1447 1785 1810 1609 1022 746 240 111 175 131
155 61 110 126 59 54 281 258 198 62 67 5 0 22 112 94 280 250 173 188 192 496 697 694 872 889 978 1116 1400 1332 1473 1205 1269 1170 1589 1544 1453 1354 1045 1377 1721 1796 1602 1696 1209 830 734 1077 599
180 118 255 285 176 133 238 220 345 150 36 0 0 6 99 66 117 217 259 84 141 310 528 524 758 800 657 922 1122 1098 1169 1288 1418 1331 1301 1452 1568 1405 1040 1107 960 1219 1183 1426 1752 1775 1530 956 1574
159 78 513 343 155 117 171 146 208 199 39 0 0 0 71 66 8 15 156 143 275 285 411 619 588 554 910 860 1104 1017 1141 1139 1104 1413 972 850 854 777 749 74 702 1094 1154 1275 1419 1536 1165 586 705
202 415 384 152 52 55 67 147 131 118 50 15 0 23 54 49 34 54 72 52 8 165 427 662 579 725 907 911 736 950 925 1001 884 1172 1027 792 1341 836 386 730 401 65 690 1116 896 1075 897 759 661
109 149 202 151 35 41 121 138 88 205 82 3 0 5 24 46 25 67 95 64 123 344 401 647 868 415 481 856 990 728 675 932 658 574 811 1117 1079 147 503 852 9 645 993 1111 828 644 582 487 639
164 126 156 119 48 84 29 79 85 134 69 36 0 1 8 17 53 88 111 127 182 275 319 390 693 629 506 490 209 389 684 488 91 293 1105 866 958 1211 224 137 502 331 680 777 430 506 819 571 775
162 151 57 60 36 37 35 44 68 64 51 20 0 9 21 34 49 56 88 78 97 179 127 242 473 624 300 488 345 320 482 198 588 875 1540 1062 1237 1049 651 261 807 1497 1644 2031 1203 645 572 332 474
86 82 56 18 40 25 40 66 87 94 48 1 0 12 19 44 57 53 75 58 89 120 198 459 484 86 281 602 737 604 698 587 816 934 1323 1464 1076 697 319 547 1323 1311 1175 984 1287 1425 1063 580 681
37 69 75 58 27 13 21 51 77 84 80 16 9 21 21 45 36 48 60 82 37 132 194 507 328 87 580 717 672 681 471 556 603 831 713 1241 1116 643 383 830 347 463 552 1137 1294 1668 1352 307 657
27 41 67 47 51 19 13 40 54 77 99 24 25 44 27 19 40 49 60 78 102 104 289 278 189 96 673 377 197 329 300 1001 775 926 903 1363 1016 0 917 549 1 25 471 1338 1574 1800 1963 361 324
21 21 48 61 47 46 28 25 22 53 79 87 50 30 33 15 18 42 105 121 105 78 177 194 253 290 264 291 249 423 558 780 1021 755 1368 911 1180 1046 1608 1371 397 375 1243 1097 1355 1751 2172 1458 773
38 65 37 33 63 18 11 7 5 23 38 40 40 49 31 12 9 62 143 124 87 61 139 315 160 240 146 281 237 395 654 518 802 902 514 1019 1074 895 1481 1645 1190 994 950 971 1894 2183 2130 2044 2136
13 114 21 69 10 0 3 0 8 3 16 23 26 86 87 16 8 46 109 187 90 62 31 242 243 251 272 0 168 265 341 252 537 612 381 645 621 956 1363 1118 1322 656 172 522 1580 2248 1968 2146 2037
66 0 71 86 7 1 6 0 0 11 0 0 0 46 57 13 38 7 48 288 277 120 137 283 196 309 336 271 95 165 250 274 317 565 869 763 813 717 887 786 1137 795 416 1273 1669 2024 1811 2204 1938
207 174 115 50 0 0 0 7 3 0 4 0 0 13 42 10 18 57 36 193 434 400 542 593 227 225 433 399 369 141 231 479 287 436 712 780 669 486 876 1048 905 1174 1258 1230 1534 1979 1537 2169 2113
161 134 21 0 0 0 0 0 0 28 26 15 0 0 18 21 15 17 33 40 57 450 709 767 545 358 630 298 360 354 434 426 385 473 571 563 629 669 470 1152 865 998 904 1224 1453 1589 1334 1888 1818
8 20 13 0 0 0 2 0 41 98 124 36 0 0 13 52 7 7 74 44 103 151 844 837 607 471 472 420 487 511 508 360 177 418 654 847 624 622 657 1002 929 1301 1348 924 1428 1561 1586 1481 1642
0 42 12 11 13 0 3 14 0 292 300 95 4 0 6 72 21 12 58 15 134 158 473 565 517 348 421 748 806 699 670 568 609 707 917 926 829 769 1030 809 914 1071 866 1313 1288 1191 1068 1075 1804
0 1 6 0 9 0 30 58 83 253 144 113 41 0 50 74 26 42 25 4 71 304 312 632 451 262 340 837 521 521 601 688 857 1009 972 878 799 881 830 917 1028 1095 939 1185 1229 1011 1264 1173 1436
0 0 0 0 2 18 10 6 179 0 127 46 53 50 79 108 74 33 36 115 123 314 536 670 449 393 514 768 580 693 573 537 788 845 669 987 944 1198 1097 1125 916 631 1293 1067 838 614 856 761 1105
0 0 0 0 0 0 0 1 237 117 0 0 2 32 87 169 105 93 161 145 109 414 717 755 581 358 398 1052 555 441 772 914 638 785 812 807 950 1004 984 752 884 1006 1098 942 700 1002 946 1024 640

GFSSGP_con_mlcape_129.txt.gz
CAPE
8 0 1 90 14 0 0 20 40 1 38 42 20 105 140 112 1 0 118 501 777 1088 1410 1617 1726 1810 1940 1955 1866 1911 1799 1830 1751 1763 1648 1500 1698 1678 1635 1575 1320 1269 1261 1279 1329 1276 1404 1259 1345
0 0 70 4 17 0 8 30 45 16 52 10 85 118 129 124 328 204 310 894 1098 1368 1525 1714 1755 1998 2012 1953 1983 1830 1868 1801 1778 1803 1630 1753 1787 1740 1679 1795 1466 1432 1491 1397 1432 1363 1264 1323 1314
0 127 17 4 28 11 24 26 33 29 23 63 139 205 318 273 434 355 642 1139 1277 1465 1640 1899 1848 1671 1848 2056 2014 2013 1899 2034 1850 1901 1848 1852 1864 1775 1351 1558 1801 1945 1490 1341 1665 1461 1295 1330 1445
10 61 42 20 26 39 78 34 48 46 22 63 58 74 254 460 505 569 916 1144 1228 1409 1616 2131 2289 2077 2009 2075 2111 1998 1834 1973 1942 1715 1966 1896 1970 1997 1749 1884 1711 1916 1527 1474 1676 1415 1275 1366 1280
0 53 3 0 8 15 22 21 57 60 67 85 55 73 232 399 537 632 883 1065 1091 1333 1792 2174 2156 2141 2038 2106 2073 2110 1502 1551 1989 1946 1889 1909 1733 1756 1885 2031 1821 1420 1285 1229 1439 1499 1497 1526 1654
66 99 1 8 25 28 23 17 60 105 107 113 88 94 242 411 347 708 850 1039 1235 1421 1941 2102 1934 2260 2037 2104 1788 2058 2129 1999 1979 1957 1907 1867 2096 2180 1937 1553 1344 1247 1085 1046 1210 1233 1055 1030 1643
52 26 4 3 19 52 30 103 53 75 69 83 97 56 258 336 558 746 616 762 926 1337 1399 1487 1755 1902 2168 2141 1833 2028 2175 2052 2250 2231 2323 2149 2047 1975 1822 1722 1464 1109 939 836 926 794 599 510 1193
153 42 0 0 29 22 62 26 80 41 63 156 137 53 110 236 301 364 535 696 837 819 759 908 1398 1759 1858 1950 1971 2061 2332 2221 2248 2093 2194 2218 2156 2035 1976 1946 1768 1613 1135 808 869 837 838 875 953
96 51 0 1 15 30 49 25 41 8 98 69 106 122 148 168 95 120 148 155 411 866 1276 1060 1069 1539 1773 1839 2058 1836 2318 2233 2220 2064 1865 1998 1809 1719 1479 1842 1906 1673 1417 1063 717 502 452 580 492
6 14 0 1 10 2 72 93 1 35 55 101 95 183 119 104 112 141 220 228 211 594 997 1081 828 1366 1688 1825 1816 1886 2142 2058 1640 1446 1287 1364 1252 1169 1505 1644 1648 1730 1526 1003 749 858 685 1348 1162
28 16 4 1 0 39 65 12 0 19 23 44 75 116 92 52 183 310 339 362 266 188 769 802 890 1178 1518 1629 1497 1598 1714 1652 1209 1154 1193 1249 1068 1036 985 472 803 877 1042 1023 1067 1227 1285 1170 906
0 269 98 143 0 2 84 57 3 1 29 42 130 132 92 100 195 237 242 426 472 384 576 836 856 1043 1192 1227 1262 1087 1068 1214 1185 1333 1354 873 673 629 449 154 833 841 913 1071 1056 1034 1123 1169 1110
19 227 185 172 19 21 63 24 37 19 38 117 159 156 119 128 107 150 254 394 448 434 661 753 752 663 713 710 943 1029 1157 1241 1271 1204 1067 977 726 470 512 576 199 134 633 719 897 665 814 730 222
251 211 110 94 77 122 93 88 79 8 65 118 137 165 140 109 71 94 260 333 360 419 490 627 675 483 446 719 825 923 912 1009 1127 1087 873 749 93 586 561 476 194 376 733 1130 577 594 491 445 143
218 83 131 71 51 75 85 76 31 69 59 86 116 145 161 122 83 83 224 273 290 352 453 470 508 606 577 540 670 744 812 788 767 787 693 827 1016 208 371 329 609 1259 1325 1389 671 467 495 521 430
199 90 25 42 77 22 5 0 39 97 57 74 66 100 70 160 146 96 191 205 229 298 450 456 526 567 552 571 627 562 652 581 228 672 875 880 580 88 244 745 920 1051 1063 1262 1079 906 655 477 474
51 9 42 61 40 9 1 0 49 49 49 60 55 26 35 81 137 134 161 144 224 288 421 503 521 485 294 339 618 536 527 242 324 834 750 797 858 478 638 672 929 563 1366 1530 1387 779 601 391 479
0 15 14 9 40 24 24 40 22 50 100 17 39 55 39 68 45 113 93 72 196 251 408 447 446 331 416 528 368 463 379 5 299 831 749 637 654 368 491 782 223 433 1154 1437 1709 1753 312 301 462
0 0 4 26 37 17 30 42 38 47 61 23 4 38 52 59 34 85 105 55 183 183 262 384 328 215 391 372 382 319 345 207 439 777 870 184 343 245 349 460 39 839 1097 1616 1804 1491 376 387 325
0 0 16 46 29 44 31 29 31 31 25 6 2 17 25 38 49 84 85 99 100 87 196 249 192 175 336 224 442 323 360 380 492 747 847 854 88 545 1031 619 50 810 929 1498 1707 1458 892 1199 721
0 1 29 45 9 6 49 6 31 16 18 26 5 13 28 39 43 56 78 91 68 74 155 187 59 151 255 280 399 418 464 456 557 598 843 875 629 922 1230 1177 855 587 754 1338 1628 1831 1608 871 109
0 45 30 0 0 0 36 0 0 13 21 21 8 0 1 57 59 46 78 101 84 93 214 180 43 148 217 197 237 294 348 312 452 569 616 659 802 730 1039 1077 760 388 373 1109 1572 1658 1645 1424 530
1 176 35 43 6 32 12 3 3 25 19 13 3 0 0 28 34 43 63 88 109 128 185 209 76 139 142 156 165 196 204 149 290 472 462 575 604 794 1064 1055 796 260 477 1199 1333 1443 1488 1082 1033
269 174 150 65 24 0 4 19 0 0 3 7 0 0 0 0 33 65 82 79 128 169 186 180 107 119 88 50 90 122 146 141 216 337 464 274 495 547 820 702 814 685 744 939 1264 1110 1401 1293 780
14 1 0 0 1 2 18 8 9 1 0 0 3 0 0 0 29 63 74 92 125 168 213 194 177 168 110 0 48 139 163 150 154 255 331 400 377 477 526 782 736 780 748 1029 1151 1082 1213 1202 1263
6 0 0 0 3 3 8 3 7 0 0 1 5 4 13 8 9 55 78 85 101 146 199 192 197 171 128 68 0 116 154 155 220 245 177 358 396 420 398 421 708 780 789 717 1150 1021 1102 1020 1150
42 66 36 69 63 21 3 2 0 7 1 31 9 7 7 2 16 42 86 92 109 122 178 176 150 169 148 137 153 87 172 180 272 321 245 265 347 455 445 430 587 676 786 708 786 939 862 945 1104
13 4 18 39 33 19 11 0 0 10 79 91 71 0 0 6 8 46 80 129 144 108 126 248 163 156 162 111 220 206 192 244 261 240 279 368 467 534 598 553 554 704 811 832 879 929 937 868 993
0 0 0 0 0 1 7 0 0 2 7 81 72 1 0 0 3 15 56 138 183 187 234 276 286 225 172 211 218 243 156 261 345 224 222 274 422 508 578 583 547 631 753 803 902 822 827 906 791
0 0 0 0 0 1 16 0 158 79 141 119 41 0 0 0 7 34 32 100 165 285 366 352 366 339 250 229 340 267 254 348 388 512 509 498 670 651 674 730 693 647 693 782 728 625 894 586 525

GFSSGP_con_mlcape_132.txt.gz
CAPE
2 81 24 114 43 27 13 31 18 9 0 35 47 99 82 210 8 0 76 345 587 791 1573 1497 1753 1847 1669 1865 1841 1894 1889 1534 1617 1627 1588 1609 1581 1349 1032 821 1050 1053 1142 1274 1369 1442 1484 1472 1219
0 0 70 10 33 26 17 17 25 15 34 13 162 178 173 65 296 94 175 713 710 1151 1498 1570 1745 1936 1868 1822 1845 1791 1725 1767 1842 1707 1444 1711 1596 1571 1540 1430 1250 925 714 861 999 1017 852 952 1235
0 74 39 16 64 29 0 14 24 32 27 151 233 320 385 192 154 230 619 872 1119 1208 1563 1700 1564 1900 1973 1912 1872 1892 1910 1931 1832 1796 1979 1657 1648 1383 1416 1476 1185 1068 993 1059 1125 1174 1217 1312 1703
3 90 29 20 51 84 38 5 27 30 96 150 149 116 328 335 244 586 973 1010 1104 1350 1661 1899 1754 1926 2069 2060 1929 1965 1993 1665 1811 1983 1950 1920 1619 1515 1658 1587 1792 1474 1606 1429 1181 964 1217 1424 1788
5 63 2 19 29 44 30 14 42 54 80 111 107 56 81 483 579 783 965 1089 1062 1254 1855 2067 1883 2035 2084 2047 1950 1797 1876 1747 1786 1926 1616 1840 1712 1725 1799 1698 1408 1177 1340 1271 1284 1224 1397 1609 1660
74 80 7 21 35 54 51 57 58 50 54 63 64 59 208 555 289 740 962 1060 1228 1389 1837 1793 1830 1660 2151 2041 2023 1428 1800 1917 2115 1975 1890 1797 1940 1622 1540 1243 1189 1034 1133 1257 1327 1117 1165 1727 1648
68 37 13 35 64 45 68 103 54 58 33 20 87 11 258 304 455 750 930 1051 1258 1756 1793 1706 1735 2006 1854 2038 2194 2114 2113 2041 1947 2081 2033 1940 1786 1799 1663 1450 1086 883 973 1152 1054 816 848 1380 1664
171 32 1 5 51 74 79 61 103 80 91 53 32 0 34 214 544 678 820 845 1147 1372 1283 1285 1487 1836 1694 1810 2043 2184 2074 1902 2156 2161 2188 2090 1948 1880 1831 1663 1564 1185 966 1137 1082 892 874 1065 1629
27 53 0 5 10 28 97 53 72 120 69 57 163 31 91 272 430 396 397 564 901 926 754 1137 1403 1522 1655 1603 1951 2333 2321 2002 1889 2130 2374 1813 1461 1378 1580 1825 1696 1360 1170 1008 851 795 845 683 1258
12 32 5 0 11 18 69 96 89 68 49 79 22 98 123 166 157 38 244 178 120 308 931 771 1274 1552 1578 1896 1736 1973 1848 1436 1449 1431 1291 1092 1016 1634 1429 1181 1263 1101 1130 979 983 956 1367 1211 1158
0 7 26 0 21 7 56 104 62 76 30 7 0 49 97 144 167 20 0 0 23 661 1040 761 931 1447 1579 1606 1623 1675 1574 1409 1075 984 1036 1005 807 789 334 399 653 628 948 957 983 978 1057 1079 717
0 166 45 12 5 63 70 109 39 38 94 40 23 81 104 129 15 6 29 70 65 387 767 728 968 1176 1383 1401 1367 1434 1292 1068 1083 1217 1100 755 549 421 288 533 364 358 679 752 732 755 868 1023 1068
0 131 124 188 17 55 94 63 38 44 94 118 93 98 108 105 107 257 163 266 128 192 527 629 764 934 1052 1035 1021 860 938 1040 1087 1112 978 797 579 410 495 155 97 421 717 734 586 537 524 280 113
299 159 103 110 23 23 54 72 35 19 116 112 100 89 80 88 121 165 189 319 240 285 448 629 544 639 725 647 782 892 922 986 1122 1086 792 659 106 457 515 411 242 881 1095 885 403 470 476 233 128
193 42 119 77 71 114 64 44 1 81 95 124 110 107 107 107 86 97 195 287 274 310 505 583 512 424 417 556 715 802 790 866 842 830 693 691 905 334 273 292 874 1076 1034 1031 497 492 514 498 256
187 93 61 61 100 29 65 28 41 102 102 110 138 158 136 121 83 44 181 231 239 269 381 491 610 379 339 540 620 665 673 607 487 572 642 775 760 126 413 682 955 761 1156 1003 899 807 410 423 539
56 17 58 65 67 21 10 10 38 83 90 77 123 112 112 123 84 34 151 203 178 265 319 348 468 442 445 370 492 502 486 335 222 621 754 705 418 58 556 746 439 858 1359 1525 1341 504 408 411 541
5 29 34 60 55 33 3 0 41 78 80 81 96 131 77 91 96 74 134 121 159 235 309 345 371 401 370 348 412 339 260 75 331 626 723 746 627 483 502 334 201 919 1203 1597 1525 1049 196 294 476
0 6 58 74 28 7 26 17 3 39 67 68 67 65 48 70 106 115 101 93 163 205 289 346 345 284 297 237 409 420 405 161 185 632 686 359 207 49 348 67 538 893 1255 1572 1552 959 297 575 859
0 0 9 20 0 0 2 17 39 20 36 18 50 56 25 24 53 93 100 93 121 161 219 303 277 284 329 273 241 300 315 208 156 576 622 556 223 388 695 85 550 565 1188 1494 1567 912 801 361 363
0 0 31 16 0 0 8 0 26 24 42 6 0 21 29 45 62 50 88 91 46 97 172 300 237 153 251 250 271 282 316 373 409 539 638 679 32 676 961 739 618 443 925 1297 1566 1498 1362 576 172
0 9 10 4 0 0 0 3 1 40 10 10 0 0 11 17 45 54 64 77 49 66 91 244 184 175 201 217 190 207 220 239 312 466 573 666 679 732 840 809 580 143 701 1276 1339 1486 1344 1149 550
0 76 3 13 38 13 0 0 0 19 25 19 0 0 0 14 37 55 57 60 65 55 53 157 160 135 157 227 241 217 194 130 237 425 490 449 516 634 946 845 609 55 697 1126 1151 1288 1185 875 948
194 108 85 20 35 14 29 2 0 4 14 3 0 0 0 0 35 61 77 72 66 54 74 109 147 87 148 103 131 158 125 104 136 279 356 274 477 512 751 778 671 504 481 834 1148 963 1241 1082 744
150 31 1 0 8 4 3 20 9 1 2 19 2 0 0 0 34 46 64 79 58 76 87 137 137 50 133 100 86 98 101 103 81 159 254 305 226 359 450 549 586 614 627 805 978 914 1020 1107 1152
198 1 0 0 0 0 25 0 0 2 4 10 16 4 3 11 15 35 45 68 79 88 83 115 130 67 86 62 80 83 89 109 109 138 190 238 281 237 322 432 639 611 695 716 963 930 962 899 1056
164 30 43 59 28 2 27 3 3 0 0 0 0 1 0 1 24 31 37 59 68 94 112 105 107 66 64 67 22 54 82 97 119 171 168 171 195 345 373 361 363 504 663 574 592 910 729 717 818
151 85 119 88 6 1 17 0 0 0 5 5 0 0 0 0 10 36 64 51 61 74 108 88 78 64 82 90 37 0 32 100 102 172 256 198 169 254 397 442 440 462 645 784 690 716 783 743 751
2 11 0 4 21 37 16 1 15 29 13 28 93 42 2 1 0 32 67 92 85 85 91 90 60 50 67 86 67 109 61 79 119 182 207 222 263 341 404 360 491 545 553 721 747 731 745 704 692
0 0 0 0 0 1 55 0 120 102 101 138 148 50 22 0 1 60 77 116 109 88 87 137 124 104 89 96 73 65 170 129 136 227 175 148 183 245 416 414 471 539 477 633 689 743 828 712 729

GFSSGP_con_mlcape_135.txt.gz
CAPE
9 197 48 148 76 89 23 6 21 0 0 0 22 136 126 260 18 60 203 450 569 684 1398 1365 1624 1566 1905 1853 1885 1851 1732 1858 1712 1659 1664 1618 1285 1101 979 1237 1215 1244 1427 1421 1444 1401 1205 1077 965
14 0 112 13 26 20 37 22 26 7 29 17 186 194 238 142 266 159 396 680 646 1106 1329 1424 1691 1800 1878 1715 1919 1847 1734 1897 1788 1612 1792 1642 1619 1521 1447 1251 754 622 522 761 817 1016 1045 928 1033
0 1 25 52 51 27 47 9 21 32 38 199 307 403 454 128 127 260 605 766 1044 1368 1515 1824 1946 1968 1946 1901 1900 1900 1948 1907 1843 1991 1566 1618 1404 1450 1429 1188 738 701 803 498 540 685 1368 1624 1791
11 154 48 8 32 83 52 9 19 43 137 202 215 191 257 188 162 589 757 921 1048 1312 1464 1744 2097 2012 2029 1992 1956 2068 1910 1945 1856 1769 1787 1383 1655 1606 1479 1366 1336 1594 870 576 571 1254 1669 1753 1790
58 112 7 10 38 70 20 28 31 56 121 200 196 85 90 641 727 639 796 984 1045 1205 1540 1690 2005 2081 2054 1918 2124 1972 1809 1919 1816 1785 1818 1683 1818 1578 1476 1298 1139 1263 1211 1144 1356 1695 1500 1600 1330
163 99 3 5 18 42 153 119 126 141 166 127 37 41 233 763 495 687 790 954 994 1383 1669 1594 1532 2139 2144 2022 1601 1743 1744 1762 1420 1824 1740 1609 1390 1329 1122 1057 1049 1219 1305 1343 1134 1313 1644 1688 1411
78 23 31 7 14 16 107 205 63 105 109 92 15 29 311 441 546 759 914 1023 1137 1538 1613 1805 1578 1993 2134 2155 1725 1859 1841 1763 1943 1705 1530 1674 1829 1523 1301 977 944 1097 1268 1184 968 1068 1354 1518 1579
251 31 25 13 11 21 119 141 110 110 108 78 39 32 64 380 801 883 942 1104 1296 1499 1603 1745 1927 1789 1865 1970 2213 2155 1787 1958 1882 1620 1775 2014 1752 1551 1738 1438 1076 1066 1232 1139 908 923 1086 1666 1640
107 44 31 28 21 34 85 104 159 137 0 68 217 60 107 416 597 628 810 1002 1357 1408 1330 1334 1670 1830 1640 1743 2169 1838 1811 1990 2119 2054 1781 1486 1370 1493 1319 1182 1386 1340 1243 1134 1019 1008 1289 1248 1606
76 50 14 35 0 15 82 149 113 32 86 111 102 169 277 348 408 421 289 362 922 965 819 1340 1485 1443 1759 1889 2359 1668 1695 1948 2115 1874 1611 1512 1736 1419 991 1237 1066 1194 1056 958 1021 1469 1531 1448 1427
0 34 28 21 8 28 56 115 111 3 32 80 0 7 183 268 279 133 151 461 449 476 570 982 1414 1670 1839 1960 1902 1840 1787 1510 1505 1480 1595 1369 1275 967 763 1085 1087 1174 1177 1409 1394 1387 1544 1654 1369
0 195 88 59 39 39 49 143 111 34 82 22 8 29 129 174 79 71 153 142 168 820 957 830 1377 1703 1881 1973 1998 1794 1380 1190 1273 1650 1477 1220 917 885 1108 658 905 1236 1284 1436 1351 1357 1581 1722 1767
4 130 181 60 30 65 21 68 72 70 114 92 107 128 135 213 188 57 0 17 191 636 898 788 1317 1605 1778 1598 1583 1454 1428 1497 1690 1626 1423 1291 1085 969 969 719 862 1459 1745 1394 1307 1267 898 705 884
282 252 238 143 106 107 13 61 16 70 148 81 129 164 195 228 112 168 193 245 183 358 759 815 1092 1432 1475 1295 1091 1290 1519 1641 1749 1639 1360 924 697 965 1122 848 1435 1968 1930 1354 1155 1257 921 719 745
337 129 184 157 108 105 32 46 34 119 162 105 152 189 213 205 200 287 249 336 209 347 683 809 865 1170 1152 1034 1254 1486 1407 1518 1530 1317 1246 1238 1471 818 671 1405 1763 1721 1735 1689 1272 1169 1268 1027 803
267 172 59 91 137 103 2 3 22 70 166 114 187 197 200 205 221 266 249 420 440 468 713 834 512 712 836 968 1205 1309 1333 1371 1159 1130 1169 1288 1298 425 1156 1465 1302 1847 2013 1798 1594 1060 1079 1244 1267
51 4 76 107 102 37 26 15 69 66 121 64 166 209 233 242 231 212 222 363 401 500 732 797 846 625 731 986 1100 1228 1160 988 839 1094 1290 1324 724 364 1186 1146 974 1693 2328 2485 1538 1022 1105 1163 1298
53 50 90 82 51 28 62 4 42 109 134 108 175 208 269 256 233 219 176 306 362 451 632 778 874 944 752 877 917 911 809 506 888 1211 1250 1253 1160 928 1202 594 1498 1975 2436 2623 2304 872 780 966 1136
0 81 3 67 1 8 0 30 36 42 100 67 58 162 217 238 268 208 146 246 313 397 539 646 663 787 785 745 860 733 708 490 674 1134 1209 972 763 613 880 401 1540 1931 2271 2352 2111 847 1085 1135 1690
0 0 24 25 0 0 0 0 13 41 67 122 142 133 187 203 240 220 143 174 277 336 426 403 634 714 698 655 845 830 833 689 527 1154 1162 804 592 681 1089 317 1233 1481 2367 2497 1707 1459 1616 721 701
0 0 33 39 0 11 0 2 30 46 55 87 88 141 117 157 183 225 203 160 242 311 364 445 614 631 667 687 692 711 806 693 448 798 1067 1222 519 1033 1550 771 1190 1111 2013 2353 2365 2383 2042 965 534
0 0 155 25 17 0 0 0 0 27 48 28 60 25 106 108 173 189 194 235 220 254 328 444 562 532 625 691 628 347 458 559 515 787 1016 1047 577 1260 1517 1399 1034 778 1640 2047 2176 2139 1898 1769 1266
30 187 134 76 51 0 0 0 10 16 58 20 25 33 22 82 120 162 188 203 222 192 199 375 510 548 497 519 542 314 479 526 692 783 819 1041 1101 1162 1474 1388 1128 437 1482 1837 1836 2159 1712 1567 1604
375 187 112 82 22 0 0 0 5 14 12 50 20 72 1 19 76 126 172 178 208 177 155 265 372 412 444 437 496 460 401 460 521 703 811 847 983 1150 1276 1369 1268 1051 1103 1610 1777 1655 1865 1520 1390
385 110 1 8 31 3 2 0 2 15 8 24 24 85 35 16 58 108 146 136 174 158 152 177 251 314 352 340 433 515 487 430 252 330 633 717 737 848 969 1162 1108 1185 1214 1387 1814 1593 1606 1629 1848
222 8 7 26 1 0 20 6 3 7 10 6 26 67 63 8 40 84 131 148 172 179 193 178 211 282 259 313 299 385 442 396 372 444 569 702 638 639 879 948 1079 1164 1271 1182 1525 1580 1628 1451 1733
371 119 97 111 70 9 2 13 20 0 0 0 12 4 40 11 14 72 115 123 176 207 219 203 238 325 195 237 289 294 333 347 348 370 467 576 662 709 695 755 788 1075 1134 1237 1099 1294 1430 1308 1315
417 238 145 244 11 0 11 19 0 0 7 1 11 6 23 49 15 67 78 126 166 186 238 263 280 270 289 195 179 185 249 263 319 389 430 479 538 560 719 778 774 946 941 1220 1129 1147 1344 1337 1317
128 214 88 94 122 45 65 41 80 13 53 51 2 5 30 82 44 45 81 133 183 187 248 270 286 280 271 253 238 178 118 199 318 371 401 560 680 521 623 789 902 1032 928 1063 1243 1240 1336 1249 1395
0 5 26 29 0 3 102 27 198 180 152 143 95 25 6 44 62 86 105 145 157 135 216 257 261 258 247 315 316 288 254 163 227 328 392 533 564 695 742 861 594 880 990 1026 780 1035 1052 1202 1260

GFSSGP_con_mlcape_141.txt.gz
CAPE
9 482 407 621 978 606 54 47 87 82 102 118 222 109 300 557 446 381 409 399 557 446 789 1021 1483 1259 1267 1413 1459 1381 1427 1437 1455 1310 1192 928 1228 1288 1247 1245 1240 1186 610 685 592 632 1024 1163 1357
166 174 247 145 392 52 66 69 91 99 148 210 194 391 348 342 388 368 454 522 615 746 656 777 1468 1661 1391 1665 1544 1555 1500 1515 1529 1610 1481 1393 1160 833 945 946 935 767 589 698 512 359 515 708 579
86 55 259 317 205 71 51 63 115 168 358 472 548 474 417 402 468 523 427 753 843 737 814 1577 1674 1578 1679 1783 1719 1650 1606 1537 1589 1567 1594 1541 904 730 769 871 916 698 822 965 587 303 227 310 718
149 679 112 32 119 194 76 68 135 294 521 519 551 278 364 493 534 380 556 826 693 732 800 1694 1858 1812 1794 1783 1751 1758 1696 1676 1500 1748 1574 1528 1039 1464 1318 963 645 470 1027 1346 777 465 461 844 1351
449 357 1 39 117 83 117 118 194 317 458 521 369 247 463 502 363 500 624 828 831 661 670 1334 1820 1880 1774 1737 1780 1652 1753 1810 1747 1737 1695 1535 1401 1523 1231 871 897 1004 1546 1488 1311 960 1569 1656 1479
487 637 38 43 145 112 164 167 234 422 483 393 267 328 431 414 479 507 708 922 939 893 690 1188 1830 1997 1987 1695 1777 1743 1607 1847 1635 1764 1685 1360 1285 1416 1542 1299 1249 1305 1306 1523 1662 1651 953 1353 1490
538 407 57 27 151 338 278 254 341 362 262 264 298 351 312 428 404 431 460 828 1076 976 829 1012 1308 1694 1792 1790 1912 1700 1749 1777 1801 1806 1526 1387 1189 1299 1425 1355 1333 1237 1216 1346 1474 1795 1760 1137 799
923 473 185 40 164 295 324 320 341 261 265 147 258 321 205 339 323 432 428 686 947 1051 1332 1208 1562 735 776 1499 1750 1902 1709 1650 2036 1520 945 525 785 779 992 825 1120 1325 1150 1142 1012 1612 1854 1099 842
367 33 199 11 98 294 394 369 332 295 255 178 299 176 217 249 332 384 499 557 613 880 1318 1196 1094 1394 1405 1416 1554 1692 1587 1104 596 963 1136 985 1049 1390 1512 992 1389 1212 959 829 950 1169 1582 1019 673
470 320 185 60 35 239 280 250 129 140 107 183 212 169 238 286 345 393 524 560 540 462 716 1060 1051 836 1185 958 1346 969 1634 855 713 932 959 975 1276 1105 789 925 1157 864 870 933 1131 1439 1792 1541 1097
355 386 267 110 6 151 205 168 197 140 129 127 124 220 273 334 352 382 504 525 558 460 325 382 1307 1186 1163 1645 1173 897 444 656 1293 1847 1280 1054 1056 1180 580 964 1369 1616 1429 1687 1663 1693 2051 1092 543
349 366 306 102 18 25 162 187 71 96 134 61 202 239 245 250 268 307 386 554 535 237 291 496 949 1496 1561 811 1315 862 315 486 1357 1469 1467 1510 1072 1007 1183 807 463 955 848 1336 952 1140 1245 724 372
327 432 290 59 5 69 78 255 182 143 12 130 153 160 178 169 183 195 266 532 425 309 335 515 768 1632 1535 1367 1008 981 286 831 592 1049 1420 972 978 1180 1179 1761 1016 1316 1048 979 865 940 741 382 457
266 439 320 267 174 31 93 121 268 107 30 50 80 84 83 159 159 180 266 362 449 317 362 600 699 1731 1394 1398 1203 759 586 867 1051 789 1159 1836 982 1735 1044 1104 1280 1346 1012 1188 967 918 914 773 745
352 227 334 282 215 50 15 20 102 152 45 38 42 97 185 186 199 239 244 250 354 296 392 502 717 939 1107 1011 890 1085 476 843 943 886 1576 1788 1556 1690 1410 898 1355 1226 1251 1574 1128 1070 1065 862 900
127 188 232 410 253 161 7 7 48 104 102 59 59 126 213 292 233 247 152 246 280 379 369 574 541 602 972 693 1134 1057 788 1007 1076 871 964 1672 1761 1919 1709 1464 1429 1524 1489 1086 942 850 906 891 926
11 79 140 431 311 66 1 8 34 147 269 93 73 164 90 182 243 311 318 293 246 547 512 479 444 523 616 945 1296 1479 1254 1007 967 1030 1190 1587 1422 1972 1592 1364 1752 3139 1510 1019 817 764 965 1241 814
0 104 159 291 173 52 2 8 24 33 154 124 125 109 121 144 238 222 322 466 324 418 609 561 478 684 767 1167 1451 1293 667 978 951 1215 1266 1534 1507 1857 2297 1538 1813 2658 1214 1094 953 1246 1441 1355 1230
1 58 89 193 166 91 2 20 44 59 61 114 102 153 75 138 241 192 216 448 401 539 540 754 693 819 925 926 955 835 520 948 992 1496 1470 1770 1534 1880 2154 1277 1626 2149 2053 2038 1921 1724 2118 1121 1538
11 86 84 62 172 133 111 89 26 24 35 50 103 39 114 112 191 157 242 248 377 505 625 808 979 1017 973 773 998 856 681 626 907 1370 1406 1426 1325 1600 1718 1746 1464 1352 1896 2618 2402 2641 1814 897 1331
0 64 51 118 93 83 78 86 29 27 23 0 14 52 77 91 76 174 223 263 326 495 562 621 943 997 932 808 889 1216 1157 983 859 1374 1335 1293 1248 1238 1857 1542 1823 1577 1717 2093 2988 2836 2400 1766 1349
20 7 2 37 62 43 49 58 98 61 16 11 2 22 93 213 91 199 197 212 255 356 405 721 969 981 933 1259 847 893 878 732 546 804 905 1335 1299 1448 1487 1724 1659 1759 1473 2124 2447 2376 3136 2187 1920
48 44 13 98 67 105 82 18 76 124 13 15 6 62 49 47 73 148 118 286 222 356 464 479 869 970 779 990 958 1064 738 524 612 791 1467 1682 1377 1556 1368 1668 1788 1597 1734 2064 2553 2857 2960 2541 2203
0 3 83 82 82 61 61 5 124 148 87 5 22 59 84 37 98 124 105 220 242 312 360 402 777 946 857 890 976 1065 666 598 424 852 1056 833 1206 1161 1344 1394 1828 1702 1794 1794 2125 2425 2649 2787 2632
0 22 65 37 79 75 47 1 24 85 36 77 22 107 103 144 82 36 129 163 278 316 387 359 709 793 889 836 624 753 971 1000 665 799 640 607 565 567 1442 1281 1620 1463 1516 1763 1795 2242 2420 2093 2288
0 35 59 9 40 60 63 64 57 20 61 100 54 17 112 74 46 99 87 131 222 325 352 368 693 901 740 840 662 767 797 640 720 914 533 460 543 515 1601 1426 1106 1091 1434 1449 1488 1408 1446 1641 1754
33 0 15 17 52 61 71 35 59 22 89 112 94 96 90 112 144 45 44 8 187 288 359 411 650 906 938 734 797 732 771 730 618 691 541 636 747 733 826 735 952 1133 1331 1445 1571 1241 1116 1224 1770
1 70 28 41 68 76 9 41 38 45 64 76 31 43 169 176 126 32 93 117 209 277 316 411 573 947 936 755 760 776 710 743 896 1117 1125 990 977 519 948 1036 725 818 1019 1228 1407 1084 1094 1397 1174
25 4 105 144 102 15 74 15 71 86 210 129 24 15 38 205 51 99 85 120 263 324 371 406 564 876 920 823 706 776 783 790 802 702 770 765 956 1256 982 1303 1123 1228 1147 1277 1326 1470 1500 1599 1339
0 3 123 137 146 69 0 0 487 472 415 216 37 28 67 187 93 106 127 143 135 317 460 495 573 757 919 759 736 715 787 828 739 783 798 833 996 1182 1214 1148 1406 947 1115 1193 1347 1288 882 997 986

GFSSGP_con_mlcape_144.txt.gz
CAPE
0 17 582 475 614 267 15 50 52 40 27 106 190 165 329 319 215 154 121 293 465 400 760 1104 1452 738 294 438 881 1201 1434 1273 1182 1086 1273 1251 1163 1244 1268 1340 1109 700 515 413 450 1052 781 1247 1057
2 148 188 508 135 101 15 38 42 57 21 329 162 168 122 110 203 319 407 675 636 563 664 967 1151 1379 889 994 1097 1340 1481 1564 1531 1406 1187 1086 1097 1113 1105 1054 801 706 775 660 693 963 759 586 663
110 62 319 86 4 65 47 36 3 142 96 186 119 155 65 123 223 452 631 136 81 719 810 1503 1287 1541 1477 1484 1472 1576 1520 1437 1423 1312 360 256 366 488 948 1030 1133 1100 790 687 612 374 299 432 677
142 170 135 0 0 70 20 16 45 97 219 201 75 131 309 212 188 752 621 218 192 588 910 1505 1717 1655 1654 1659 1722 1673 1562 1635 1553 1426 596 1177 1295 856 672 325 695 1043 830 595 585 683 657 801 560
264 434 0 0 0 10 49 79 223 213 253 171 129 97 247 153 270 730 786 652 404 618 1011 1536 1778 1732 1666 1585 1470 1611 1531 1628 1651 1566 1252 1351 1352 1072 740 1084 1641 1627 1219 1103 1758 1664 1698 1369 1095
52 178 6 1 81 95 64 112 208 229 173 181 160 187 189 229 552 785 556 325 368 519 733 1163 1720 1626 1591 1607 1543 1542 1550 1540 1713 1535 1337 1291 1361 1230 875 1274 1345 1396 1485 1424 820 1198 1391 1367 798
472 64 29 59 196 140 110 229 131 70 96 179 165 132 204 214 518 673 546 455 280 457 675 996 1496 1629 1482 1654 1324 1539 1667 1443 1351 1048 1088 1212 1407 1347 1296 1398 1290 1341 1405 1623 1722 1140 613 653 225
314 60 44 23 57 85 222 159 32 137 121 246 191 99 232 195 370 727 629 30 1 702 763 928 1043 1347 1369 1304 1764 1379 1531 1461 1555 1139 1014 767 1277 1250 1057 1275 1382 1320 1136 966 1414 1461 929 39 0
52 5 11 77 64 227 135 162 312 0 85 181 232 136 162 148 166 389 214 596 838 762 1047 757 544 963 1182 1452 1494 1405 748 938 843 312 724 1047 966 1171 1160 899 1232 916 705 668 945 1355 544 14 0
289 64 63 71 67 97 238 86 79 79 44 135 135 177 105 168 124 377 184 274 701 865 650 1114 766 1005 889 559 1176 1132 539 582 961 1108 825 1097 1477 1253 581 697 1071 942 752 754 1044 1402 699 729 219
193 247 144 43 26 104 149 184 176 58 17 102 116 148 140 150 146 304 270 228 407 866 406 0 13 52 683 824 1319 1387 1143 571 1436 1242 1487 499 961 767 698 564 987 1114 1101 1111 1308 1704 1864 1667 1641
227 283 389 118 9 5 183 202 129 163 83 83 143 124 180 156 134 254 410 286 151 347 621 91 281 0 0 872 1074 746 630 837 1245 447 245 416 980 689 474 58 61 906 1613 1938 1730 1955 1999 1317 76
198 162 167 124 3 10 64 142 240 82 46 121 174 151 135 135 147 214 343 241 132 103 497 1352 697 110 680 772 570 598 187 148 643 60 0 0 247 0 25 27 137 7 422 1187 866 1028 903 258 253
10 105 132 25 26 68 40 70 204 59 108 148 95 111 129 123 133 110 361 193 87 180 278 604 1142 1463 1395 1485 885 545 280 173 868 351 0 51 668 137 33 186 5 226 639 869 802 515 717 522 488
161 280 290 355 157 84 6 16 142 169 166 72 100 88 84 78 116 131 258 196 44 227 213 532 1222 977 1279 940 922 1220 218 346 265 1013 1314 1803 456 0 0 232 359 338 1476 986 970 1176 738 816 622
32 353 332 281 249 14 4 1 59 99 147 95 60 91 103 45 168 160 74 99 112 178 223 409 510 1192 911 625 596 1032 594 607 882 962 1128 1414 1637 117 7 257 1071 1217 1338 1004 879 1106 799 440 567
34 74 63 1 334 35 9 1 0 53 82 126 129 138 169 24 296 152 71 121 70 160 427 221 464 621 589 506 1126 1213 448 899 1055 753 1273 1267 1138 998 203 878 1267 2008 2002 601 777 1022 1071 1054 787
10 56 68 18 269 79 3 0 0 5 1 60 87 88 122 150 255 218 189 157 283 340 332 523 426 548 751 647 1226 1079 577 59 1218 592 281 1331 1242 1194 0 715 199 276 920 1403 1236 1767 1482 1675 1541
68 15 4 170 191 0 0 0 0 0 5 54 87 162 146 182 137 258 332 244 318 279 392 227 835 614 971 948 1227 605 831 1119 718 1076 886 1726 1344 1529 2224 0 0 78 604 1822 1232 1099 1374 1878 1187
76 1 8 205 149 189 55 13 10 0 0 9 13 92 167 78 157 109 368 382 391 463 541 462 743 726 992 1070 1112 929 626 772 1197 1218 1357 1635 1329 1552 1747 425 0 31 174 2471 2096 2818 2853 924 1531
17 39 72 87 114 117 190 68 2 0 11 6 2 29 74 74 126 155 341 388 566 572 475 782 1030 994 743 1104 1091 839 677 564 216 1244 1185 1377 1189 1267 2000 267 0 0 65 600 2417 2894 2828 1990 1202
0 33 35 49 50 82 62 57 27 0 8 2 0 4 34 55 92 50 173 157 520 565 797 743 940 977 784 1077 766 717 676 505 1040 826 1230 1306 1254 1493 1420 1224 443 0 7 0 1185 2308 2976 2330 1908
1 3 6 1 35 30 33 32 164 1 0 0 0 0 5 13 52 55 77 210 530 546 561 780 829 800 766 1054 851 720 726 908 773 1183 1090 1498 1252 1549 1356 1385 463 395 216 558 0 183 2342 2608 2723
0 2 0 4 3 11 27 41 201 61 19 5 6 0 2 4 25 106 26 60 366 376 496 703 880 534 980 736 553 645 613 610 565 751 506 1263 1482 1316 1298 1344 1612 1737 24 7 2058 1976 2647 2215 2424
0 0 0 0 13 5 85 20 141 125 225 60 27 0 0 1 28 70 112 85 242 449 421 579 962 887 752 957 1010 1070 661 826 555 450 363 665 1101 1075 1238 1374 1552 1711 1513 1595 1556 1856 2150 2094 1971
0 0 0 0 2 0 8 65 70 9 174 68 20 0 0 31 19 51 31 227 228 440 446 747 956 839 544 945 736 822 928 582 622 732 694 707 1098 1140 1326 1207 1442 1160 1511 1327 1409 1365 1672 1693 2054
6 3 0 0 4 0 12 46 71 82 155 98 11 11 7 75 73 125 119 100 10 55 484 810 1053 816 601 807 879 675 802 655 732 931 362 465 1016 1140 1393 1474 914 1307 1189 1384 1503 1620 1135 1366 1704
0 0 35 55 48 29 137 49 4 114 286 169 86 59 37 89 104 34 57 56 60 173 662 784 1116 1025 782 912 629 535 1072 636 775 1150 724 525 896 546 338 969 795 864 1010 1325 1314 1338 1222 1328 1170
6 0 0 40 0 17 78 34 10 9 73 238 4 14 16 115 133 144 44 50 0 28 376 676 1052 1208 1075 996 767 786 771 660 934 1088 628 1116 1193 1148 1119 1089 1326 1205 1251 1371 1299 1295 780 735 1072
0 1 0 5 71 85 46 23 0 0 0 119 100 70 76 266 81 195 182 80 23 354 403 312 944 1111 986 797 1114 907 830 909 757 684 964 780 757 1169 1207 1057 1291 1222 1210 1087 909 705 981 1100 972